[[{"header":{"parameterUnit":"m.s-1","parameterCategory":1,"la1":31.0,"la2":29.5877,"lo1":-88.7671,"lo2":-86.6584,"dy":0.0162,"dx":0.0185,"nx":115,"ny":88,"refTime":"2025-05-25T00:00:00:Z","depth":0,"parameterNumber":2,"parameterNumberName":"U-component_of_WINDS"},"data":[0.0,0.0,0.0,0.0,0.0,0.0,0.0,0.0,0.0,0.0,0.0,0.0,0.0,0.0,0.0,0.0,0.0,0.0,0.0,0.0,0.0,0.0,0.0,0.0,0.0,0.0,0.0,0.0,0.0,0.0,0.0,0.0,0.0,0.0,0.0,0.0,0.0,0.0,0.0,0.0,0.0,0.0,0.0,0.0,0.0,0.0,0.0,0.0,0.0,0.0,0.0,0.0,0.0,0.0,0.0,0.0,0.0,0.0,0.0,0.0,0.0,0.0,0.0,0.0,0.0,0.0,0.0,0.0,0.0,0.0,0.0,0.0,0.0,0.0,0.0,0.0,0.0,0.0,0.0,0.0,0.0,0.0,0.0,0.0,0.0,0.0,0.0,0.0,0.0,0.0,0.0,0.0,0.0,0.0,0.0,0.0,0.0,0.0,0.0,0.0,0.0,0.0,0.0,0.0,0.0,0.0,0.0,0.0,0.0,0.0,0.0,0.0,0.0,0.0,0.0,0.0,0.0,0.0,0.0,0.0,0.0,0.0,0.0,0.0,0.0,0.0,0.0,0.0,0.0,0.0,0.0,0.0,0.0,0.0,0.0,0.0,0.0,0.0,0.0,0.0,0.0,0.0,0.0,0.0,0.0,0.0,0.0,0.0,0.0,0.0,0.0,0.0,0.0,0.0,0.0,0.0,0.0,0.0,0.0,0.0,0.0,0.0,0.0,0.0,0.0,0.0,0.0,0.0,0.0,0.0,0.0,0.0,0.0,0.0,0.0,0.0,0.0,0.0,0.0,0.0,0.0,0.0,0.0,0.0,0.0,0.0,0.0,0.0,0.0,0.0,0.0,0.0,0.0,0.0,0.0,0.0,0.0,0.0,0.0,0.0,0.0,0.0,0.0,0.0,0.0,0.0,0.0,0.0,0.0,0.0,0.0,0.0,0.0,0.0,0.0,0.0,0.0,0.0,0.0,0.0,0.0,0.0,0.0,0.0,0.0,0.0,0.0,0.0,0.0,0.0,0.0,0.0,0.0,0.0,0.0,0.0,0.0,0.0,0.0,0.0,0.0,0.0,0.0,0.0,0.0,0.0,0.0,0.0,0.0,0.0,0.0,0.0,0.0,0.0,0.0,0.0,0.0,0.0,0.0,0.0,0.0,0.0,0.0,0.0,0.0,0.0,0.0,0.0,0.0,0.0,0.0,0.0,0.0,0.0,0.0,0.0,0.0,0.0,0.0,0.0,0.0,0.0,0.0,0.0,0.0,0.0,0.0,0.0,0.0,0.0,0.0,0.0,0.0,0.0,0.0,0.0,0.0,0.0,0.0,0.0,0.0,0.0,0.0,0.0,0.0,0.0,0.0,0.0,0.0,0.0,0.0,0.0,0.0,0.0,0.0,0.0,0.0,0.0,0.0,0.0,0.0,0.0,0.0,0.0,0.0,0.0,0.0,0.0,0.0,0.0,0.0,0.0,0.0,0.0,0.0,0.0,0.0,0.0,0.0,0.0,0.0,0.0,0.0,0.0,0.0,0.0,0.0,0.0,0.0,0.0,0.0,0.0,0.0,0.0,0.0,0.0,0.0,0.0,0.0,0.0,0.0,0.0,0.0,0.0,0.0,0.0,0.0,0.0,0.0,0.0,0.0,0.0,0.0,0.0,0.0,0.0,0.0,0.0,0.0,0.0,0.0,0.0,0.0,0.0,0.0,0.0,0.0,0.0,0.0,0.0,0.0,0.0,0.0,0.0,0.0,0.0,0.0,0.0,0.0,0.0,0.0,0.0,0.0,0.0,0.0,0.0,0.0,0.0,0.0,0.0,0.0,0.0,0.0,0.0,0.0,0.0,0.0,0.0,0.0,0.0,0.0,0.0,0.0,0.0,0.0,0.0,0.0,0.0,0.0,0.0,0.0,0.0,0.0,0.0,0.0,0.0,0.0,0.0,0.0,0.0,0.0,0.0,0.0,0.0,0.0,0.0,0.0,0.0,0.0,0.0,0.0,0.0,0.0,0.0,0.0,0.0,0.0,0.0,0.0,0.0,0.0,0.0,0.0,0.0,0.0,0.0,0.0,0.0,0.0,0.0,0.0,0.0,0.0,0.0,0.0,0.0,0.0,0.0,0.0,0.0,0.0,0.0,0.0,0.0,0.0,0.0,0.0,0.0,0.0,0.0,0.0,0.0,0.0,0.0,0.0,0.0,0.0,0.0,0.0,0.0,0.0,0.0,0.0,0.0,0.0,0.0,0.0,0.0,0.0,0.0,0.0,0.0,0.0,0.0,0.0,0.0,0.0,0.0,0.0,0.0,0.0,0.0,0.0,0.0,0.0,0.0,0.0,0.0,0.0,0.0,0.0,0.0,0.0,0.0,0.0,0.0,0.0,0.0,0.0,0.0,0.0,0.0,0.0,0.0,0.0,0.0,0.0,0.0,0.0,0.0,0.0,0.0,0.0,0.0,0.0,0.0,0.0,0.0,0.0,0.0,0.0,0.0,0.0,0.0,0.0,0.0,0.0,0.0,0.0,0.0,0.0,0.0,0.0,0.0,0.0,0.0,0.0,0.0,0.0,0.0,0.0,0.0,0.0,0.0,0.0,0.0,0.0,0.0,0.0,0.0,0.0,0.0,0.0,0.0,0.0,0.0,0.0,0.0,0.0,0.0,0.0,0.0,0.0,0.0,0.0,0.0,0.0,0.0,0.0,0.0,0.0,0.0,0.0,0.0,0.0,0.0,0.0,0.0,0.0,0.0,0.0,0.0,0.0,0.0,0.0,0.0,0.0,0.0,0.0,0.0,0.0,0.0,0.0,0.0,0.0,0.0,0.0,0.0,0.0,0.0,0.0,0.0,0.0,0.0,0.0,0.0,0.0,0.0,0.0,0.0,0.0,0.0,0.0,0.0,0.0,0.0,0.0,0.0,0.0,0.0,0.0,0.0,0.0,0.0,0.0,0.0,0.0,0.0,0.0,0.0,0.0,0.0,0.0,0.0,0.0,0.0,0.0,0.0,0.0,0.0,0.0,0.0,0.0,0.0,0.0,0.0,0.0,0.0,0.0,0.0,0.0,0.0,0.0,0.0,0.0,0.0,0.0,0.0,0.0,0.0,0.0,0.0,0.0,0.0,0.0,0.0,0.0,0.0,0.0,0.0,0.0,0.0,0.0,0.0,0.0,0.0,0.0,0.0,0.0,0.0,0.0,0.0,0.0,0.0,0.0,0.0,0.0,0.0,0.0,0.0,0.0,0.0,0.0,0.0,0.0,0.0,0.0,0.0,0.0,0.0,0.0,0.0,0.0,0.0,0.0,0.0,0.0,0.0,0.0,0.0,0.0,0.0,0.0,0.0,0.0,0.0,0.0,0.0,0.0,0.0,0.0,0.0,0.0,0.0,0.0,0.0,0.0,0.0,0.0,0.0,0.0,0.0,0.0,0.0,0.0,0.0,0.0,0.0,0.0,0.0,0.0,0.0,0.0,0.0,0.0,0.0,0.0,0.0,0.0,0.0,0.0,0.0,0.0,0.0,0.0,0.0,0.0,0.0,0.0,0.0,0.0,0.0,0.0,0.0,0.0,0.0,0.0,0.0,0.0,0.0,0.0,0.0,0.0,0.0,0.0,0.0,0.0,0.0,0.0,0.0,0.0,0.0,0.0,0.0,0.0,0.0,0.0,0.0,0.0,0.0,0.0,0.0,0.0,0.0,0.0,0.0,0.0,0.0,0.0,0.0,0.0,0.0,0.0,0.0,0.0,0.0,0.0,0.0,0.0,0.0,0.0,0.0,0.0,0.0,0.0,0.0,0.0,0.0,0.0,0.0,0.0,0.0,0.0,0.0,0.0,0.0,0.0,0.0,0.0,0.0,0.0,0.0,0.0,0.0,0.0,0.0,0.0,0.0,0.0,0.0,0.0,0.0,0.0,0.0,0.0,0.0,0.0,0.0,0.0,0.0,0.0,0.0,0.0,0.0,0.0,0.0,0.0,0.0,0.0,0.0,0.0,0.0,0.0,0.0,0.0,0.0,0.0,0.0,0.0,0.0,0.0,0.0,0.0,0.0,0.0,0.0,0.0,0.0,0.0,0.0,0.0,0.0,0.0,0.0,0.0,0.0,0.0,0.0,0.0,0.0,0.0,0.0,0.0,0.0,0.0,0.0,0.0,0.0,0.0,0.0,0.0,0.0,0.0,0.0,0.0,0.0,0.0,0.0,0.0,0.0,0.0,0.0,0.0,0.0,0.0,0.0,0.0,0.0,0.0,0.0,0.0,0.0,0.0,0.0,0.0,0.0,-1.0366,0.0,0.0,0.0,0.0,0.0,0.0,0.0,0.0,0.0,0.0,0.0,0.0,0.0,0.0,0.0,0.0,0.0,0.0,0.0,0.0,0.0,0.0,0.0,0.0,0.0,0.0,0.0,0.0,0.0,0.0,0.0,0.0,0.0,0.0,0.0,0.0,0.0,0.0,0.0,0.0,0.0,0.0,0.0,0.0,0.0,0.0,0.0,0.0,0.0,0.0,0.0,0.0,0.0,0.0,0.0,0.0,0.0,0.0,0.0,0.0,0.0,0.0,0.0,0.0,0.0,0.0,0.0,0.0,0.0,0.0,0.0,0.0,0.0,0.0,0.0,0.0,0.0,0.0,0.0,0.0,0.0,0.0,0.0,0.0,0.0,0.0,0.0,0.0,0.0,0.0,0.0,0.0,0.0,0.0,0.0,0.0,0.0,0.0,0.0,0.0,0.0,0.0,0.0,0.0,0.0,0.0,0.0,0.0,0.0,0.0,-1.0855,-1.1179,-1.1135,-1.1157,-1.127,0.0,0.0,0.0,0.0,0.0,0.0,0.0,0.0,0.0,0.0,0.0,0.0,0.0,0.0,0.0,0.0,0.0,0.0,0.0,0.0,0.0,0.0,0.0,0.0,0.0,0.0,0.0,0.0,0.0,0.0,0.0,0.0,0.0,0.0,0.0,0.0,0.0,0.0,0.0,0.0,0.0,0.0,0.0,0.0,0.0,0.0,0.0,0.0,0.0,0.0,0.0,0.0,0.0,0.0,0.0,0.0,0.0,0.0,0.0,0.0,0.0,0.0,0.0,0.0,0.0,0.0,0.0,0.0,0.0,0.0,0.0,0.0,0.0,0.0,0.0,0.0,0.0,0.0,0.0,0.0,0.0,0.0,0.0,0.0,0.0,0.0,0.0,0.0,0.0,0.0,0.0,0.0,0.0,0.0,0.0,0.0,0.0,0.0,0.0,0.0,0.0,0.0,0.0,0.0,0.0,0.0,0.0,0.0,0.0,0.0,0.0,0.0,-1.1644,-1.1842,-1.2288,0.0,0.0,0.0,0.0,0.0,0.0,0.0,0.0,0.0,0.0,0.0,0.0,0.0,0.0,0.0,0.0,0.0,0.0,0.0,0.0,0.0,0.0,0.0,0.0,0.0,0.0,0.0,0.0,0.0,0.0,0.0,0.0,0.0,0.0,0.0,0.0,0.0,0.0,0.0,0.0,0.0,0.0,0.0,0.0,0.0,0.0,0.0,0.0,0.0,0.0,0.0,0.0,0.0,0.0,0.0,0.0,0.0,0.0,0.0,0.0,0.0,0.0,0.0,0.0,0.0,0.0,0.0,0.0,0.0,0.0,0.0,0.0,0.0,0.0,0.0,0.0,0.0,0.0,0.0,0.0,0.0,0.0,0.0,0.0,0.0,0.0,0.0,0.0,0.0,0.0,0.0,0.0,0.0,0.0,0.0,0.0,0.0,0.0,0.0,0.0,0.0,0.0,0.0,0.0,0.0,0.0,0.0,0.0,0.0,0.0,-1.1992,-1.3227,-1.2279,0.0,-1.3324,0.0,0.0,0.0,0.0,0.0,0.0,0.0,0.0,0.0,0.0,0.0,0.0,0.0,0.0,0.0,0.0,0.0,0.0,0.0,0.0,0.0,0.0,0.0,0.0,0.0,0.0,0.0,0.0,0.0,0.0,0.0,0.0,0.0,0.0,0.0,0.0,0.0,0.0,0.0,0.0,0.0,0.0,0.0,0.0,0.0,0.0,0.0,0.0,0.0,0.0,0.0,0.0,0.0,0.0,0.0,0.0,0.0,0.0,0.0,0.0,0.0,0.0,0.0,0.0,0.0,0.0,0.0,0.0,0.0,0.0,0.0,0.0,0.0,0.0,0.0,0.0,0.0,0.0,0.0,0.0,0.0,0.0,0.0,0.0,0.0,0.0,0.0,0.0,0.0,0.0,0.0,0.0,0.0,0.0,0.0,0.0,0.0,0.0,0.0,0.0,0.0,0.0,0.0,0.0,0.0,0.0,0.0,0.0,0.0,0.0,-1.3922,-1.4498,-1.426,-1.4426,0.0,0.0,0.0,0.0,0.0,0.0,0.0,0.0,0.0,0.0,0.0,0.0,0.0,0.0,0.0,0.0,0.0,0.0,0.0,0.0,0.0,0.0,0.0,0.0,0.0,0.0,0.0,0.0,0.0,0.0,0.0,0.0,0.0,0.0,0.0,0.0,0.0,0.0,0.0,0.0,0.0,0.0,0.0,0.0,0.0,0.0,0.0,0.0,0.0,0.0,0.0,0.0,0.0,0.0,0.0,0.0,0.0,0.0,0.0,0.0,0.0,0.0,0.0,0.0,0.0,0.0,0.0,0.0,0.0,0.0,0.0,0.0,0.0,0.0,0.0,0.0,0.0,0.0,0.0,0.0,0.0,0.0,0.0,0.0,0.0,0.0,0.0,0.0,0.0,0.0,0.0,0.0,0.0,0.0,0.0,0.0,0.0,0.0,0.0,0.0,0.0,0.0,0.0,0.0,0.0,0.0,0.0,0.0,0.0,0.0,-1.5526,-1.5904,-1.5752,-1.5999,-1.6052,-1.5798,0.0,0.0,0.0,0.0,0.0,0.0,0.0,0.0,0.0,0.0,0.0,0.0,0.0,0.0,0.0,0.0,0.0,0.0,0.0,0.0,0.0,0.0,0.0,0.0,0.0,0.0,0.0,0.0,0.0,0.0,0.0,0.0,0.0,0.0,0.0,0.0,0.0,0.0,0.0,0.0,0.0,0.0,0.0,0.0,0.0,0.0,0.0,0.0,0.0,0.0,0.0,0.0,0.0,0.0,0.0,0.0,0.0,0.0,0.0,0.0,0.0,0.0,0.0,0.0,0.0,0.0,0.0,0.0,0.0,0.0,0.0,0.0,0.0,0.0,0.0,0.0,0.0,0.0,0.0,0.0,0.0,0.0,0.0,0.0,0.0,0.0,0.0,0.0,0.0,0.0,0.0,0.0,0.0,0.0,0.0,0.0,0.0,0.0,0.0,0.0,0.0,0.0,0.0,0.0,0.0,0.0,0.0,0.0,0.0,-1.7557,-1.7585,-1.7071,-1.704,-1.6413,0.0,0.0,0.0,0.0,0.0,0.0,0.0,0.0,0.0,0.0,0.0,0.0,0.0,0.0,0.0,0.0,0.0,0.0,0.0,0.0,0.0,0.0,0.0,0.0,0.0,0.0,0.0,0.0,0.0,0.0,0.0,0.0,0.0,0.0,0.0,0.0,0.0,0.0,0.0,0.0,0.0,0.0,0.0,0.0,0.0,0.0,0.0,0.0,0.0,0.0,0.0,0.0,0.0,0.0,0.0,0.0,0.0,0.0,0.0,0.0,0.0,0.0,0.0,0.0,0.0,0.0,0.0,0.0,0.0,0.0,0.0,0.0,0.0,0.0,0.0,0.0,0.0,0.0,0.0,0.0,0.0,0.0,0.0,0.0,0.0,0.0,0.0,0.0,0.0,0.0,0.0,0.0,0.0,0.0,0.0,0.0,0.0,0.0,0.0,0.0,0.0,0.0,0.0,0.0,0.0,0.0,0.0,0.0,0.0,-1.6204,-1.7581,-1.8454,-1.8653,-1.7839,-1.7079,0.0,0.0,0.0,0.0,0.0,0.0,0.0,0.0,0.0,0.0,0.0,0.0,0.0,0.0,0.0,0.0,0.0,0.0,0.0,0.0,0.0,0.0,0.0,0.0,0.0,0.0,0.0,0.0,0.0,0.0,0.0,0.0,0.0,0.0,0.0,0.0,0.0,0.0,0.0,0.0,0.0,0.0,0.0,0.0,0.0,0.0,0.0,0.0,0.0,0.0,0.0,0.0,0.0,0.0,0.0,0.0,0.0,0.0,0.0,0.0,0.0,0.0,0.0,0.0,0.0,0.0,0.0,0.0,0.0,0.0,0.0,0.0,0.0,0.0,0.0,0.0,0.0,0.0,0.0,0.0,0.0,0.0,0.0,0.0,0.0,0.0,0.0,0.0,0.0,0.0,0.0,0.0,0.0,0.0,0.0,0.0,0.0,0.0,0.0,0.0,0.0,0.0,0.0,0.0,0.0,0.0,0.0,0.0,0.0,-1.7291,0.0,-1.96,0.0,-1.8374,-1.7477,0.0,0.0,0.0,0.0,0.0,0.0,0.0,0.0,0.0,0.0,0.0,0.0,0.0,0.0,0.0,0.0,0.0,0.0,0.0,0.0,0.0,0.0,0.0,0.0,0.0,0.0,0.0,0.0,0.0,0.0,0.0,0.0,0.0,0.0,0.0,0.0,0.0,0.0,0.0,0.0,0.0,0.0,0.0,0.0,0.0,0.0,0.0,0.0,0.0,0.0,0.0,0.0,0.0,0.0,0.0,0.0,0.0,0.0,0.0,0.0,0.0,0.0,0.0,0.0,0.0,0.0,0.0,0.0,0.0,0.0,0.0,0.0,0.0,0.0,0.0,0.0,0.0,0.0,0.0,0.0,0.0,0.0,0.0,0.0,0.0,0.0,0.0,0.0,0.0,0.0,0.0,0.0,0.0,0.0,0.0,0.0,0.0,0.0,0.0,0.0,0.0,0.0,0.0,0.0,0.0,0.0,0.0,0.0,-1.8158,-2.0634,-2.1616,-2.1048,-1.8861,-1.8674,-1.7548,0.0,0.0,0.0,0.0,0.0,0.0,0.0,0.0,0.0,0.0,0.0,0.0,0.0,0.0,0.0,0.0,0.0,0.0,0.0,0.0,0.0,0.0,0.0,0.0,0.0,0.0,0.0,0.0,0.0,0.0,0.0,0.0,0.0,0.0,0.0,0.0,0.0,0.0,0.0,0.0,0.0,0.0,0.0,0.0,0.0,0.0,0.0,0.0,0.0,0.0,0.0,0.0,0.0,0.0,0.0,0.0,0.0,0.0,0.0,0.0,0.0,0.0,0.0,0.0,0.0,0.0,0.0,0.0,0.0,0.0,0.0,0.0,0.0,0.0,0.0,0.0,0.0,0.0,0.0,0.0,0.0,0.0,0.0,0.0,0.0,0.0,0.0,0.0,0.0,0.0,0.0,0.0,0.0,0.0,0.0,0.0,0.0,0.0,0.0,0.0,0.0,0.0,0.0,0.0,0.0,0.0,0.0,0.0,0.0,-2.0108,-2.1537,-2.1902,-2.1086,-1.961,-1.8448,0.0,0.0,0.0,0.0,0.0,0.0,0.0,0.0,0.0,0.0,0.0,0.0,0.0,0.0,0.0,0.0,0.0,0.0,0.0,0.0,0.0,0.0,0.0,0.0,0.0,0.0,0.0,0.0,0.0,0.0,0.0,0.0,0.0,0.0,0.0,0.0,0.0,0.0,0.0,0.0,0.0,0.0,0.0,0.0,0.0,0.0,0.0,0.0,0.0,0.0,0.0,0.0,0.0,0.0,0.0,0.0,0.0,0.0,0.0,0.0,0.0,0.0,0.0,0.0,0.0,0.0,0.0,0.0,0.0,0.0,0.0,0.0,0.0,0.0,0.0,0.0,0.0,0.0,0.0,0.0,0.0,0.0,0.0,0.0,0.0,0.0,0.0,0.0,0.0,0.0,0.0,0.0,0.0,0.0,0.0,0.0,0.0,0.0,0.0,0.0,0.0,0.0,0.0,0.0,0.0,0.0,0.0,0.0,0.0,-1.9841,-2.1637,-2.214,-2.1211,-1.9918,-1.8782,-1.7871,0.0,0.0,0.0,0.0,0.0,0.0,0.0,0.0,0.0,0.0,0.0,0.0,0.0,0.0,0.0,0.0,0.0,0.0,0.0,0.0,0.0,0.0,0.0,0.0,0.0,0.0,0.0,0.0,0.0,0.0,0.0,0.0,0.0,0.0,0.0,0.0,0.0,0.0,0.0,0.0,0.0,0.0,0.0,0.0,0.0,0.0,0.0,0.0,0.0,0.0,0.0,0.0,0.0,0.0,0.0,0.0,0.0,0.0,0.0,0.0,0.0,0.0,0.0,0.0,0.0,0.0,0.0,0.0,0.0,0.0,0.0,0.0,0.0,0.0,0.0,0.0,0.0,0.0,0.0,0.0,0.0,0.0,0.0,0.0,0.0,0.0,0.0,0.0,0.0,0.0,0.0,0.0,0.0,0.0,0.0,0.0,0.0,0.0,0.0,0.0,0.0,0.0,0.0,0.0,0.0,0.0,0.0,0.0,-1.9741,-2.1917,-2.2008,-1.9917,-1.9851,-1.8868,0.0,0.0,0.0,0.0,0.0,0.0,0.0,0.0,0.0,0.0,0.0,0.0,0.0,0.0,0.0,0.0,0.0,0.0,0.0,0.0,0.0,0.0,0.0,0.0,0.0,0.0,0.0,0.0,0.0,0.0,0.0,0.0,0.0,0.0,0.0,0.0,0.0,0.0,0.0,0.0,0.0,0.0,0.0,0.0,0.0,0.0,0.0,0.0,0.0,0.0,0.0,0.0,0.0,0.0,0.0,0.0,0.0,0.0,0.0,0.0,0.0,0.0,0.0,0.0,0.0,0.0,0.0,0.0,0.0,0.0,0.0,0.0,0.0,0.0,0.0,0.0,0.0,0.0,0.0,0.0,0.0,0.0,0.0,0.0,0.0,0.0,0.0,0.0,0.0,0.0,0.0,0.0,0.0,0.0,0.0,0.0,0.0,0.0,0.0,0.0,0.0,0.0,0.0,0.0,0.0,0.0,0.0,0.0,0.0,-1.939,-2.1412,-2.2584,-2.2703,-2.1328,-2.0331,0.0,0.0,0.0,0.0,0.0,0.0,0.0,0.0,0.0,0.0,0.0,0.0,0.0,0.0,0.0,0.0,0.0,0.0,0.0,0.0,0.0,0.0,0.0,0.0,0.0,0.0,0.0,0.0,0.0,0.0,0.0,0.0,0.0,0.0,0.0,0.0,0.0,0.0,0.0,0.0,0.0,0.0,0.0,0.0,0.0,0.0,0.0,0.0,0.0,0.0,0.0,0.0,0.0,0.0,0.0,0.0,0.0,0.0,0.0,0.0,0.0,0.0,0.0,0.0,0.0,0.0,0.0,0.0,0.0,0.0,0.0,0.0,0.0,0.0,0.0,0.0,0.0,0.0,0.0,0.0,0.0,0.0,0.0,0.0,0.0,0.0,0.0,0.0,0.0,0.0,0.0,0.0,0.0,0.0,0.0,0.0,0.0,0.0,0.0,0.0,0.0,0.0,0.0,0.0,0.0,0.0,0.0,0.0,-1.8109,-1.9064,-2.0938,-2.2403,-2.3406,-2.2538,-2.1601,0.0,0.0,0.0,0.0,0.0,0.0,0.0,0.0,0.0,0.0,0.0,0.0,0.0,0.0,0.0,0.0,0.0,0.0,0.0,0.0,0.0,0.0,0.0,0.0,0.0,0.0,0.0,0.0,0.0,0.0,0.0,0.0,0.0,0.0,0.0,0.0,0.0,0.0,0.0,0.0,0.0,0.0,0.0,0.0,0.0,0.0,0.0,0.0,0.0,0.0,0.0,0.0,0.0,0.0,0.0,0.0,0.0,0.0,0.0,0.0,0.0,0.0,0.0,0.0,0.0,0.0,0.0,0.0,0.0,0.0,0.0,0.0,0.0,0.0,0.0,0.0,0.0,0.0,0.0,0.0,0.0,0.0,0.0,0.0,0.0,0.0,0.0,0.0,0.0,0.0,0.0,0.0,0.0,0.0,0.0,0.0,0.0,0.0,0.0,0.0,0.0,0.0,0.0,0.0,0.0,0.0,0.0,0.0,-1.7581,-1.8599,-2.0329,-2.1709,-2.2729,-2.3336,-2.2525,0.0,0.0,0.0,0.0,0.0,0.0,0.0,0.0,0.0,0.0,0.0,0.0,0.0,0.0,0.0,0.0,0.0,0.0,0.0,0.0,0.0,0.0,0.0,0.0,0.0,0.0,0.0,0.0,0.0,0.0,0.0,0.0,0.0,0.0,0.0,0.0,0.0,0.0,0.0,0.0,0.0,0.0,0.0,0.0,0.0,0.0,0.0,0.0,0.0,0.0,0.0,0.0,0.0,0.0,0.0,0.0,0.0,0.0,0.0,0.0,0.0,0.0,0.0,0.0,0.0,0.0,0.0,0.0,0.0,0.0,0.0,0.0,0.0,0.0,0.0,0.0,0.0,0.0,0.0,0.0,0.0,0.0,0.0,0.0,0.0,0.0,0.0,0.0,0.0,0.0,0.0,0.0,0.0,0.0,0.0,0.0,0.0,0.0,0.0,0.0,0.0,0.0,0.0,0.0,0.0,0.0,0.0,0.0,-1.6503,-1.6728,-1.8954,-2.0894,-2.2443,-2.2569,-2.1972,0.0,0.0,0.0,0.0,0.0,0.0,0.0,0.0,0.0,0.0,0.0,0.0,0.0,0.0,0.0,0.0,0.0,0.0,0.0,0.0,0.0,0.0,0.0,0.0,0.0,0.0,0.0,0.0,0.0,0.0,0.0,0.0,0.0,0.0,0.0,0.0,0.0,0.0,0.0,0.0,0.0,0.0,0.0,0.0,0.0,0.0,0.0,0.0,-0.6703,0.0,0.0,0.0,0.0,0.0,0.0,0.0,0.0,0.0,0.0,0.0,0.0,0.0,0.0,0.0,0.0,0.0,0.0,0.0,0.0,0.0,0.0,0.0,0.0,0.0,0.0,0.0,0.0,0.0,0.0,0.0,0.0,0.0,0.0,0.0,0.0,0.0,0.0,0.0,0.0,0.0,0.0,0.0,0.0,0.0,0.0,0.0,0.0,0.0,0.0,0.0,0.0,0.0,0.0,0.0,0.0,0.0,0.0,0.0,-1.5501,-1.628,-1.8337,-2.0312,-2.2057,-2.2205,-2.1785,0.0,0.0,0.0,0.0,0.0,0.0,0.0,0.0,0.0,0.0,0.0,0.0,0.0,0.0,0.0,0.0,0.0,0.0,0.0,0.0,0.0,0.0,0.0,0.0,0.0,0.0,0.0,0.0,0.0,0.0,0.0,0.0,0.0,0.0,0.0,0.0,0.0,0.0,0.0,0.0,0.0,0.0,0.0,0.0,0.0,0.0,0.0,0.0,0.0,0.0,0.0,0.0,0.0,0.0,0.0,0.0,0.0,0.0,0.0,0.0,0.0,0.0,0.0,0.0,0.0,0.0,0.0,0.0,0.0,0.0,0.0,0.0,0.0,0.0,0.0,0.0,0.0,0.0,0.0,0.0,0.0,0.0,0.0,0.0,0.0,0.0,0.0,0.0,0.0,0.0,0.0,0.0,0.0,0.0,0.0,0.0,0.0,0.0,0.0,0.0,0.0,0.0,0.0,0.0,0.0,0.0,0.0,-1.2991,-1.4597,-1.598,-1.7843,-1.9758,-2.1626,-2.1699,-2.1349,-2.0563,0.0,0.0,0.0,0.0,0.0,0.0,0.0,0.0,0.0,0.0,0.0,0.0,0.0,0.0,0.0,0.0,0.0,0.0,0.0,0.0,0.0,0.0,0.0,0.0,0.0,0.0,0.0,0.0,0.0,0.0,0.0,0.0,0.0,0.0,0.0,0.0,0.0,0.0,-0.811,-0.8752,0.0,0.0,0.0,0.0,0.0,0.0,0.0,0.0,-0.7848,0.0,0.0,0.0,0.0,0.0,0.0,0.0,0.0,0.0,0.0,0.0,0.0,0.0,0.0,0.0,0.0,0.0,0.0,0.0,0.0,0.0,0.0,0.0,0.0,0.0,0.0,0.0,0.0,0.0,0.0,0.0,0.0,0.0,0.0,0.0,0.0,0.0,0.0,0.0,0.0,0.0,0.0,0.0,0.0,0.0,0.0,0.0,0.0,0.0,0.0,0.0,0.0,0.0,0.0,0.0,0.0,-0.994,-1.2649,-1.4085,-1.4191,-1.6736,-1.8958,-2.0701,-1.9983,-1.9491,-1.9353,0.0,0.0,0.0,0.0,0.0,0.0,0.0,0.0,0.0,0.0,0.0,0.0,0.0,0.0,0.0,0.0,0.0,0.0,0.0,0.0,0.0,0.0,0.0,0.0,0.0,0.0,0.0,0.0,0.0,0.0,0.0,0.0,0.0,0.0,0.0,0.0,0.0,0.0,0.0,-0.8639,-0.912,0.0,0.0,0.0,0.0,0.0,0.0,0.0,0.0,-0.8974,0.0,0.0,0.0,0.0,0.0,0.0,0.0,0.0,0.0,0.0,0.0,0.0,0.0,0.0,0.0,0.0,0.0,0.0,0.0,0.0,0.0,0.0,0.0,0.0,0.0,0.0,0.0,0.0,0.0,0.0,0.0,0.0,0.0,0.0,0.0,0.0,0.0,0.0,0.0,0.0,0.0,0.0,0.0,0.0,0.0,0.0,0.0,0.0,0.0,0.0,0.0,0.0,0.0,0.0,0.0,-0.9418,-1.1782,-1.3237,-1.3649,-1.6347,-1.828,-1.9233,-1.9637,-1.8859,0.0,0.0,0.0,0.0,0.0,0.0,0.0,0.0,0.0,0.0,0.0,0.0,0.0,0.0,0.0,0.0,0.0,0.0,0.0,0.0,0.0,0.0,0.0,0.0,0.0,0.0,0.0,0.0,0.0,0.0,0.0,0.0,0.0,0.0,0.0,0.0,0.0,0.0,0.0,0.0,-0.8574,-0.9071,-0.9155,0.0,0.0,0.0,0.0,0.0,0.0,-0.8613,-0.8802,0.0,0.0,0.0,0.0,0.0,0.0,0.0,0.0,0.0,0.0,0.0,0.0,0.0,0.0,0.0,0.0,0.0,0.0,0.0,0.0,0.0,0.0,0.0,0.0,0.0,0.0,0.0,0.0,0.0,0.0,0.0,0.0,0.0,0.0,0.0,0.0,0.0,0.0,0.0,0.0,0.0,0.0,0.0,0.0,0.0,0.0,0.0,0.0,0.0,0.0,0.0,0.0,0.0,0.0,0.0,-0.8802,-1.0885,-1.2389,-1.3273,-1.566,-1.7172,-1.7641,-1.8564,-1.7823,0.0,0.0,0.0,0.0,0.0,0.0,0.0,0.0,0.0,0.0,0.0,0.0,0.0,0.0,0.0,0.0,0.0,0.0,0.0,0.0,0.0,0.0,0.0,0.0,0.0,0.0,0.0,0.0,0.0,0.0,0.0,0.0,0.0,0.0,0.0,0.0,0.0,0.0,0.0,0.0,0.0,-0.9165,-0.916,-0.8581,0.0,0.0,0.0,0.0,-0.8345,-0.8619,0.0,0.0,0.0,0.0,0.0,0.0,0.0,0.0,0.0,0.0,0.0,0.0,0.0,0.0,0.0,0.0,0.0,0.0,0.0,0.0,0.0,0.0,0.0,0.0,0.0,0.0,0.0,0.0,0.0,0.0,0.0,0.0,0.0,0.0,0.0,0.0,0.0,0.0,0.0,0.0,0.0,0.0,0.0,0.0,0.0,0.0,0.0,0.0,0.0,0.0,0.0,0.0,0.0,0.0,0.0,0.0,-0.7955,-1.0305,-1.1838,-1.2378,-1.3707,-1.505,-1.6315,-1.4733,-1.4865,0.0,0.0,0.0,0.0,0.0,0.0,0.0,0.0,0.0,0.0,0.0,0.0,0.0,0.0,0.0,0.0,0.0,0.0,0.0,0.0,0.0,0.0,0.0,0.0,0.0,0.0,0.0,0.0,0.0,0.0,0.0,0.0,0.0,0.0,0.0,0.0,0.0,0.0,0.0,0.0,0.0,-0.9454,-0.8784,-0.8604,-0.8367,0.0,0.0,-0.8456,-0.834,-0.96,0.0,0.0,0.0,0.0,0.0,0.0,0.0,0.0,0.0,0.0,0.0,0.0,0.0,0.0,0.0,0.0,0.0,0.0,0.0,0.0,0.0,0.0,0.0,0.0,0.0,0.0,0.0,0.0,0.0,0.0,0.0,0.0,0.0,0.0,0.0,0.0,0.0,0.0,0.0,0.0,0.0,0.0,0.0,0.0,0.0,0.0,0.0,0.0,0.0,0.0,0.0,0.0,0.0,0.0,0.0,-0.7729,-0.7467,-1.0128,-1.1602,-1.1746,-1.3808,-1.4815,-1.449,-1.47,-1.4878,0.0,0.0,0.0,0.0,0.0,0.0,0.0,0.0,0.0,0.0,0.0,0.0,0.0,0.0,0.0,0.0,0.0,0.0,0.0,0.0,0.0,0.0,0.0,0.0,0.0,0.0,0.0,0.0,0.0,0.0,0.0,0.0,0.0,0.0,0.0,0.0,0.0,0.0,0.0,0.0,0.0,0.0,-0.8508,-0.8398,0.0,0.0,0.0,-0.8618,-0.9228,0.0,0.0,0.0,0.0,0.0,0.0,0.0,0.0,0.0,0.0,0.0,0.0,0.0,0.0,0.0,0.0,0.0,0.0,0.0,0.0,0.0,0.0,0.0,0.0,0.0,0.0,0.0,0.0,0.0,0.0,0.0,0.0,0.0,0.0,0.0,0.0,0.0,0.0,0.0,0.0,0.0,0.0,0.0,0.0,0.0,0.0,0.0,0.0,0.0,0.0,0.0,0.0,0.0,0.0,0.0,0.0,0.0,-0.7248,-0.992,-1.1325,-1.1442,-1.3497,-1.4044,-1.2927,-1.4307,0.0,0.0,0.0,0.0,0.0,0.0,0.0,0.0,0.0,0.0,0.0,0.0,0.0,0.0,0.0,0.0,0.0,0.0,0.0,0.0,0.0,0.0,0.0,0.0,0.0,0.0,0.0,-0.6974,0.0,0.0,0.0,0.0,0.0,0.0,0.0,0.0,0.0,0.0,0.0,0.0,0.0,0.0,-0.8223,-0.8277,-0.8372,-0.8495,0.0,0.0,-0.8896,-0.999,-0.995,-0.9788,0.0,0.0,0.0,0.0,0.0,0.0,0.0,0.0,0.0,0.0,0.0,0.0,0.0,0.0,0.0,0.0,0.0,0.0,0.0,0.0,0.0,0.0,0.0,0.0,0.0,0.0,0.0,0.0,0.0,0.0,0.0,0.0,0.0,0.0,0.0,0.0,0.0,0.0,0.0,0.0,0.0,0.0,0.0,0.0,0.0,0.0,0.0,0.0,0.0,0.0,0.0,0.0,0.0,0.0,0.0,-0.745,-0.9496,-1.0917,-1.1535,-1.1648,-1.1758,-1.1897,-1.1853,-1.2161,0.0,0.0,0.0,0.0,0.0,0.0,0.0,0.0,0.0,0.0,0.0,0.0,0.0,0.0,0.0,0.0,0.0,0.0,0.0,0.0,0.0,0.0,0.0,0.0,0.0,0.0,0.0,0.0,0.0,0.0,0.0,0.0,0.0,0.0,0.0,0.0,0.0,0.0,0.0,0.0,0.0,-0.8354,-0.7981,-0.8763,-0.9259,0.0,-0.9138,-0.9614,-1.0195,-1.073,-1.0835,-1.0098,0.0,0.0,0.0,0.0,0.0,0.0,0.0,0.0,0.0,0.0,0.0,0.0,0.0,0.0,0.0,0.0,0.0,0.0,0.0,0.0,0.0,0.0,0.0,0.0,0.0,0.0,0.0,0.0,0.0,0.0,0.0,0.0,0.0,0.0,0.0,0.0,0.0,0.0,0.0,0.0,0.0,0.0,0.0,0.0,0.0,0.0,0.0,0.0,0.0,0.0,0.0,0.0,0.0,-0.7189,-0.7786,-0.978,-1.1264,-1.2266,-1.2846,-1.298,-1.2681,-1.2614,-1.295,0.0,0.0,0.0,0.0,0.0,0.0,0.0,0.0,0.0,0.0,0.0,0.0,0.0,0.0,0.0,0.0,0.0,0.0,0.0,0.0,0.0,0.0,0.0,0.0,0.0,0.0,0.0,0.0,-0.6006,-0.6047,-0.5599,0.0,0.0,0.0,0.0,0.0,0.0,0.0,0.0,0.0,0.0,-0.8153,-0.837,-0.8857,0.0,0.0,-0.9513,-0.9924,-1.0569,-1.0584,-1.037,-0.9939,-0.9918,0.0,0.0,0.0,0.0,0.0,0.0,0.0,0.0,0.0,0.0,0.0,0.0,0.0,0.0,0.0,0.0,0.0,0.0,0.0,0.0,0.0,0.0,0.0,0.0,0.0,0.0,0.0,0.0,0.0,0.0,0.0,0.0,0.0,0.0,0.0,0.0,0.0,0.0,0.0,0.0,0.0,0.0,0.0,0.0,0.0,0.0,0.0,0.0,0.0,0.0,0.0,0.0,-0.7523,-0.8348,-1.0471,-1.2054,-1.3055,-1.3819,-1.3918,-1.336,-1.3452,-1.3574,0.0,0.0,0.0,0.0,0.0,0.0,0.0,0.0,0.0,0.0,0.0,0.0,0.0,0.0,0.0,0.0,0.0,0.0,0.0,0.0,0.0,0.0,0.0,0.0,0.0,0.0,0.0,0.0,-0.5229,-0.5293,-0.537,0.0,0.0,0.0,0.0,0.0,0.0,0.0,0.0,0.0,0.0,-0.8185,-0.8685,-0.9065,-0.9402,-0.9694,-0.9868,-1.0187,-1.0858,-1.0797,-1.061,-1.0349,0.0,0.0,0.0,0.0,0.0,0.0,0.0,0.0,0.0,0.0,0.0,0.0,0.0,0.0,0.0,0.0,0.0,0.0,0.0,0.0,0.0,0.0,0.0,0.0,0.0,0.0,0.0,-2.2252,0.0,0.0,-2.1426,0.0,0.0,0.0,0.0,0.0,0.0,0.0,0.0,0.0,0.0,0.0,0.0,0.0,0.0,0.0,0.0,0.0,0.0,0.0,0.0,0.0,0.0,-0.8312,-0.9188,-1.1548,-1.3141,-1.3856,-1.41,-1.4061,-1.3677,-1.3858,-1.3458,-1.2424,0.0,0.0,0.0,0.0,0.0,0.0,0.0,0.0,0.0,0.0,0.0,0.0,0.0,0.0,0.0,0.0,0.0,0.0,0.0,0.0,0.0,0.0,0.0,0.0,0.0,0.0,-0.503,-0.4047,-0.3762,0.0,0.0,0.0,0.0,0.0,0.0,0.0,0.0,0.0,0.0,-0.7818,-0.8579,-0.8872,-0.9478,-0.9959,-1.0083,-1.0226,-1.0499,-1.1044,-1.161,-1.1917,0.0,0.0,0.0,0.0,0.0,0.0,0.0,0.0,0.0,0.0,0.0,0.0,0.0,0.0,0.0,0.0,0.0,0.0,0.0,0.0,0.0,0.0,0.0,0.0,0.0,0.0,0.0,-2.3914,-2.3648,0.0,0.0,0.0,0.0,0.0,0.0,0.0,0.0,0.0,0.0,0.0,-2.128,-2.1038,0.0,0.0,0.0,0.0,0.0,0.0,0.0,0.0,0.0,0.0,0.0,0.0,-0.9268,-1.0306,-1.2625,-1.4431,-1.5572,-1.5612,-1.5458,-1.5206,-1.4501,-1.3799,-1.3061,0.0,0.0,0.0,0.0,0.0,0.0,0.0,0.0,0.0,0.0,0.0,0.0,0.0,0.0,0.0,0.0,0.0,0.0,0.0,0.0,0.0,0.0,0.0,0.0,0.0,-0.4834,0.0,0.0,0.0,0.0,0.0,0.0,0.0,0.0,0.0,0.0,0.0,-0.7421,-0.7846,-0.8482,-0.9093,-0.9629,-1.0377,-1.095,0.0,0.0,0.0,0.0,0.0,0.0,0.0,0.0,0.0,0.0,0.0,0.0,0.0,0.0,-1.4369,-1.2454,-1.2148,-1.2392,-1.2973,0.0,0.0,0.0,0.0,0.0,0.0,0.0,0.0,0.0,0.0,0.0,0.0,0.0,0.0,-2.6614,-2.6259,-2.5985,0.0,0.0,0.0,0.0,0.0,0.0,0.0,0.0,-2.5453,-2.4746,-2.3496,-2.3863,-2.41,0.0,-2.3676,-2.328,0.0,0.0,0.0,0.0,0.0,0.0,0.0,0.0,-1.061,-1.1473,-1.3853,-1.5711,-1.6834,-1.6782,-1.6613,-1.6401,-1.5204,-1.4419,-1.4107,-1.428,-1.4613,0.0,0.0,0.0,0.0,0.0,0.0,0.0,0.0,0.0,0.0,0.0,0.0,0.0,0.0,0.0,0.0,0.0,0.0,0.0,0.0,0.0,0.0,0.0,-0.4706,0.0,0.0,0.0,0.0,0.0,0.0,0.0,0.0,0.0,-0.7319,-0.7907,-0.855,-0.9004,-0.9573,-1.008,-1.047,0.0,0.0,0.0,0.0,0.0,0.0,0.0,-1.1613,-1.1861,-1.1532,-1.1389,-1.187,-1.345,-1.4724,-1.4791,0.0,0.0,-1.4034,-1.3799,-1.4082,-1.473,-1.5509,-1.631,-1.7123,-1.7733,-1.8229,0.0,0.0,0.0,0.0,0.0,0.0,0.0,0.0,-2.9748,-3.0153,0.0,-2.939,0.0,0.0,0.0,0.0,-2.464,-2.5804,0.0,0.0,-2.7545,-2.7248,-2.5931,-2.6755,-2.6877,-2.6251,-2.6402,-2.5662,-2.3951,-2.0267,0.0,0.0,0.0,0.0,0.0,0.0,-1.2376,-1.2681,-1.5169,-1.6916,-1.7728,-1.7579,-1.739,-1.7141,-1.5981,-1.5365,-1.5476,-1.5702,-1.6124,-1.6833,-1.6422,0.0,0.0,0.0,0.0,0.0,0.0,0.0,0.0,0.0,0.0,0.0,0.0,0.0,0.0,0.0,0.0,0.0,0.0,0.0,0.0,-0.5568,0.0,0.0,0.0,0.0,0.0,0.0,0.0,0.0,0.0,0.0,-0.8551,-0.8974,-0.9629,-1.0231,0.0,0.0,0.0,0.0,-1.1846,-1.2051,-1.192,-1.1905,-1.2112,-1.2537,-1.2717,-1.2325,0.0,0.0,-1.1987,-1.3773,-1.521,-1.5143,-1.6337,-1.7178,-1.6965,-1.6583,-1.6503,-1.6948,-1.7727,-1.8607,-1.9521,-2.0004,-2.0589,-3.0629,0.0,0.0,0.0,0.0,-3.1949,-3.299,-3.3414,-3.38,-3.3644,-3.3003,-3.2103,0.0,0.0,0.0,0.0,0.0,0.0,-2.872,-2.8256,-2.8466,-2.7897,-2.668,-2.7052,-2.6852,-2.6115,-2.5492,-2.4354,-2.275,-2.1105,-1.9086,-1.6742,0.0,0.0,0.0,0.0,-1.3952,-1.4609,-1.6171,-1.7606,-1.8795,-1.8035,-1.7384,-1.6791,-1.7098,-1.7288,-1.732,-1.766,-1.8026,-1.841,-1.8405,0.0,0.0,0.0,0.0,0.0,0.0,0.0,0.0,0.0,0.0,0.0,0.0,0.0,0.0,0.0,0.0,0.0,0.0,0.0,-0.7725,-0.7675,-0.7529,0.0,0.0,0.0,0.0,0.0,0.0,0.0,0.0,0.0,-1.0674,-1.1102,-1.1368,0.0,0.0,-1.2266,-1.2344,-1.2871,-1.3313,-1.3485,-1.3676,0.0,-1.299,-1.25,-1.2186,-1.2229,-1.2497,-1.2958,-1.3628,-1.469,-1.5859,-1.7139,-1.7977,-1.8639,-1.9292,-1.8847,-1.8594,-1.9265,-2.0079,-2.0815,-2.1253,-2.1665,-2.2036,-3.5234,-3.3917,-3.3305,-3.294,-3.2966,-3.4995,-3.6148,-3.6676,-3.7098,-3.6888,-3.6222,-3.5618,-3.4606,-3.3194,-3.1515,0.0,0.0,0.0,-3.131,-3.101,-3.0458,-2.9681,-2.8724,-2.8215,-2.7494,-2.6547,-2.5365,-2.4052,-2.262,-2.1838,-2.0528,-1.865,0.0,0.0,-1.4225,-1.5339,-1.6159,-1.6646,-1.7896,-1.8826,-1.9403,-1.8737,-1.7945,-1.7051,-1.7733,-1.8169,-1.8256,-1.8459,-1.8807,-1.9436,-1.9596,-1.9162,0.0,0.0,0.0,0.0,0.0,0.0,0.0,0.0,0.0,0.0,0.0,-1.1689,-0.9594,0.0,0.0,0.0,-1.0465,-1.0385,-0.9853,-0.9745,0.0,0.0,0.0,0.0,0.0,0.0,0.0,-1.1501,-1.2276,-1.2778,-1.2772,-1.3214,-1.327,-1.2402,-1.2759,-1.3224,-1.3466,0.0,-1.4384,-1.4445,-1.4468,-1.4235,-1.352,-1.2604,-1.2031,-1.2131,-1.2931,-1.3882,-1.4908,-1.5935,-1.7191,-1.8652,-1.9495,-2.0181,-2.1203,-2.0993,-2.0682,-2.0926,-2.164,-2.2287,-2.2561,-2.2824,-2.3069,-3.9822,-4.0084,-3.6678,-3.5556,-3.611,-3.7631,-3.8465,-3.8828,-3.9719,-3.9851,-3.9443,-3.9388,-3.8708,-3.7403,-3.5307,0.0,-3.3568,-3.3756,-3.4037,-3.434,-3.3203,-3.2247,-3.1401,-3.0093,-2.8841,-2.755,-2.613,-2.4821,-2.3617,-2.279,-2.187,-2.0864,-1.9648,-1.8607,-1.7805,-1.8413,-1.874,-1.8794,-2.0013,-2.0326,-1.9678,-1.9523,-1.8888,-1.7789,-1.8142,-1.8466,-1.8731,-1.8569,-1.9008,-2.0141,-2.0267,-2.0202,-1.9963,0.0,0.0,0.0,0.0,0.0,0.0,0.0,0.0,0.0,0.0,0.0,0.0,0.0,0.0,0.0,-1.3051,0.0,-1.2425,-1.1942,0.0,0.0,0.0,-1.0794,-1.1009,-1.245,-1.3481,-1.3693,0.0,0.0,-1.4727,-1.5176,-1.5079,-1.3858,-1.3977,-1.4307,-1.4661,-1.4949,-1.5143,-1.5101,-1.4687,-1.421,-1.3831,-1.2922,-1.2324,-1.2393,-1.3446,-1.4723,-1.5912,-1.7315,-1.8748,-1.9979,-2.0844,-2.165,-2.2515,-2.2853,-2.2922,-2.2238,-2.27,-2.3289,-2.354,-2.3681,-2.3889,-4.0925,-4.0934,-4.0243,-3.9704,-3.9455,-4.1517,-4.1885,-4.1156,-4.1691,-4.1748,-4.1354,-4.042,-3.9484,-3.8576,-3.7776,-3.7204,-3.6783,-3.6709,-3.6157,-3.5156,-3.4935,-3.4085,-3.2678,-3.2336,-3.1397,-2.9971,-2.9032,-2.771,-2.5998,-2.5654,-2.4793,-2.3476,-2.3539,-2.2324,-1.9818,-2.0499,-2.0934,-2.1078,-2.1177,-2.0863,-2.015,-1.9855,-1.9496,-1.899,-1.936,-1.9949,-2.0759,-2.0258,-2.0598,-2.1953,-2.1474,-2.1194,-2.1313,-2.0405,0.0,0.0,0.0,0.0,0.0,0.0,0.0,0.0,0.0,-1.7105,-1.4775,0.0,-1.7273,0.0,-1.5845,-1.5691,-1.5894,-1.5503,0.0,0.0,-1.5245,-1.5257,-1.5702,-1.5825,-1.5997,-1.6326,-1.6355,-1.6274,-1.6052,-1.5892,-1.5722,-1.5516,-1.5167,-1.5094,-1.5511,-1.5569,-1.5623,-1.5763,-1.5631,-1.5194,-1.435,-1.3607,-1.3234,-1.3495,-1.438,-1.541,-1.6708,-1.7963,-1.9366,-2.0887,-2.1679,-2.2409,-2.3324,-2.3687,-2.3953,-2.4163,-2.4271,-2.4292,-2.4463,-2.4506,-2.4606,-4.2994,-4.3003,-4.3151,-4.295,-4.2599,-4.3483,-4.3688,-4.3451,-4.3828,-4.3492,-4.2624,-4.1462,-4.0433,-3.9613,-3.9604,-3.918,-3.8475,-3.8495,-3.8002,-3.7065,-3.6581,-3.5823,-3.485,-3.4176,-3.3388,-3.2462,-3.1289,-2.9981,-2.8606,-2.8192,-2.7132,-2.5456,-2.6297,-2.5545,-2.3323,-2.3258,-2.3444,-2.3869,-2.3509,-2.2935,-2.218,-2.2024,-2.1637,-2.0922,-2.1246,-2.172,-2.2284,-2.1772,-2.1883,-2.2737,-2.2262,-2.2138,-2.2432,-2.178,-2.1426,0.0,0.0,0.0,0.0,0.0,0.0,0.0,0.0,0.0,0.0,0.0,-1.9669,-1.9023,-1.8963,-1.9035,-1.9278,-1.9021,-1.8856,-1.8833,-1.8552,-1.8471,-1.8778,-1.8474,-1.8424,-1.8782,-1.8333,-1.794,-1.7761,-1.7301,-1.6948,-1.6867,-1.6553,-1.6303,-1.6303,-1.6452,-1.6589,-1.6595,-1.638,-1.5902,-1.4992,-1.4561,-1.4598,-1.5271,-1.5993,-1.6927,-1.8418,-1.9506,-2.0672,-2.2078,-2.2791,-2.326,-2.392,-2.429,-2.462,-2.4836,-2.4662,-2.458,-2.4992,-2.4745,-2.4487,-4.514,-4.5203,-4.5167,-4.5208,-4.5235,-4.4417,-4.451,-4.5241,-4.5645,-4.5025,-4.3629,-4.2644,-4.1678,-4.081,-4.1094,-4.0556,-3.9448,-3.9665,-3.9606,-3.9172,-3.8079,-3.7486,-3.7224,-3.5905,-3.5145,-3.484,-3.3372,-3.2185,-3.1344,-3.0725,-2.9501,-2.7776,-2.8628,-2.8583,-2.7539,-2.6597,-2.6337,-2.6722,-2.6253,-2.5605,-2.4803,-2.4741,-2.4119,-2.3018,-2.3201,-2.3378,-2.3454,-2.307,-2.2996,-2.3248,-2.3013,-2.3084,-2.3501,-2.3207,-2.3275,0.0,-2.2843,0.0,0.0,0.0,0.0,0.0,0.0,0.0,0.0,-2.1295,-2.1556,-2.1499,-2.1918,-2.2196,-2.2281,-2.2134,-2.1866,-2.1417,-2.1108,-2.0913,-2.0961,-2.0758,-2.0704,-2.0945,-2.0381,-1.9875,-1.9598,-1.9032,-1.8521,-1.8274,-1.8104,-1.7874,-1.742,-1.7517,-1.7567,-1.7451,-1.7214,-1.695,-1.6279,-1.604,-1.6321,-1.7183,-1.7761,-1.872,-2.0042,-2.1086,-2.2058,-2.3042,-2.3649,-2.4086,-2.4305,-2.4679,-2.4936,-2.4869,-2.449,-2.4409,-2.4957,-2.4449,-2.3947,-4.5389,-4.5177,-4.4968,-4.5216,-4.5719,-4.5166,-4.4899,-4.4878,-4.6009,-4.6052,-4.5205,-4.4262,-4.3647,-4.3323,-4.2676,-4.1928,-4.1144,-4.0959,-4.0387,-3.9415,-3.9203,-3.8799,-3.8284,-3.7857,-3.7282,-3.6623,-3.6169,-3.539,-3.4288,-3.4005,-3.3319,-3.2331,-3.1956,-3.1656,-3.1391,0.0,0.0,0.0,-2.7731,-2.7016,-2.6804,-2.5435,-2.4542,-2.4175,-2.3803,0.0,-2.4319,-2.3915,-2.4151,-2.5131,-2.4362,0.0,0.0,0.0,0.0,0.0,0.0,0.0,0.0,0.0,0.0,0.0,-2.4018,-2.3685,-2.3076,-2.373,-2.3878,-2.3174,-2.3431,-2.3674,-2.3702,-2.3501,-2.3349,-2.3349,-2.3183,-2.3058,-2.2959,-2.2802,-2.2644,-2.2405,-2.21,-2.1714,-2.125,-2.0759,-2.0348,-2.0129,-1.9906,-1.9737,-1.9713,-1.8672,-1.8201,-1.8783,-1.8953,-1.8993,-1.8778,-1.8431,-1.824,-1.8668,-1.905,-1.9565,-2.0135,-2.1228,-2.2183,-2.2939,-2.3599,-2.42,-2.4492,-2.4806,-2.4829,-2.4395,-2.43,-2.4395,-2.4558,-2.3784,-2.3071,-4.6073,-4.5709,-4.5132,-4.5203,0.0,-4.5467,-4.5312,-4.5267,-4.6447,-4.665,-4.6058,-4.4843,-4.419,-4.3974,-4.3367,-4.2806,-4.2286,-4.1817,-4.1248,-4.0629,-4.012,-3.9781,-3.9523,-3.9286,-3.9007,-3.8659,-3.8259,-3.7621,-3.6856,-3.6637,-3.5819,-3.4449,-3.4442,-3.3885,-3.282,-3.2595,-3.1981,-3.099,-3.0384,-2.9762,-2.9079,-2.7742,-2.6862,-2.6385,-2.5536,0.0,0.0,0.0,0.0,0.0,0.0,0.0,0.0,0.0,0.0,-2.5352,-2.5371,-2.5484,-2.5691,-2.5459,-2.5516,-2.5986,-2.6119,-2.5785,-2.4858,-2.5187,-2.5314,-2.5027,-2.5325,-2.5434,-2.5216,-2.5043,-2.4952,-2.4887,-2.4781,-2.4622,-2.4515,-2.4286,-2.4068,-2.3781,-2.3266,-2.2833,-2.2515,-2.1926,-2.1594,-2.1608,-2.1276,-2.1113,-2.1276,-2.0205,-1.9453,-1.9835,-1.9986,-2.0047,-2.0042,-1.9636,-1.9555,-1.9975,-2.0254,-2.0577,-2.0997,-2.2,-2.2866,-2.3241,-2.3763,-2.4303,-2.4507,-2.4535,-2.4393,-2.4096,-2.3568,-2.3149,-2.3109,-2.2762,-2.2444,-4.6847,-4.6387,-4.5404,-4.5123,-4.5363,-4.5425,-4.5586,-4.5842,-4.6698,0.0,0.0,-4.5235,-4.4516,-4.4161,-4.3969,-4.3633,-4.3193,-4.2519,-4.2039,-4.1778,-4.0802,-4.0412,-4.0468,-4.0271,-4.0196,-4.028,-3.967,-3.9206,-3.8858,-3.8694,-3.7763,-3.6263,-3.6593,-3.5847,-3.3958,-3.3786,-3.351,-3.3006,-3.2924,-3.2373,-3.125,-3.0352,-2.9474,-2.864,-2.7545,-2.7059,-2.7327,-2.7034,-2.6575,-2.5995,-2.5935,-2.5625,-2.501,-2.5683,-2.6255,-2.6594,-2.7115,-2.7495,-2.7636,-2.7262,-2.7132,-2.7441,-2.7493,-2.7159,-2.6325,-2.6234,-2.6283,-2.651,-2.6756,-2.6677,-2.6233,-2.6203,-2.6136,-2.5893,-2.5757,-2.5633,-2.5481,-2.5201,-2.4894,-2.4751,-2.4173,-2.3721,-2.3576,-2.3173,-2.2863,-2.2997,-2.27,-2.2375,-2.2531,-2.1716,-2.0917,-2.081,-2.0892,-2.0861,-2.085,-2.0434,-2.0313,-2.0882,-2.1005,-2.1273,-2.1851,-2.2635,-2.321,-2.3168,-2.3809,-2.4232,-2.4379,-2.4216,-2.393,-2.3811,-2.2791,-2.1785,-2.1575,-2.1744,-2.1874,-4.7319,-4.6943,-4.5583,-4.5032,-4.5059,-4.5069,-4.5468,-4.6158,-4.6458,-4.6537,-4.6432,-4.6333,-4.5858,-4.5205,-4.5269,-4.4863,-4.4096,-4.3302,-4.2563,-4.1778,-4.0957,-4.0524,-4.051,-4.041,-4.0336,-4.0305,-4.0188,-4.0045,-3.991,-3.9851,-3.958,-3.9064,-3.8673,-3.7845,-3.6763,-3.6204,-3.5694,-3.5158,-3.3938,-3.3161,-3.2856,-3.1845,-3.0848,-2.9881,-2.905,-2.8318,-2.766,-2.7534,-2.7434,-2.733,-2.722,-2.71,-2.7,-2.7065,-2.725,-2.745,-2.789,-2.8213,-2.8332,-2.8506,-2.8436,-2.8091,-2.758,-2.7276,-2.7364,-2.7159,-2.6933,-2.6709,-2.656,-2.6236,-2.5852,-2.5893,-2.5907,-2.5757,-2.5729,-2.5633,-2.5494,-2.5188,-2.4892,-2.4649,-2.4832,-2.4767,-2.445,-2.4702,-2.4853,-2.4986,-2.43,-2.3897,-2.339,-2.2939,-2.2407,-2.2143,-2.2184,-2.2177,-2.187,-2.1514,-2.1075,-2.0944,-2.0955,-2.0999,-2.1074,-2.1963,-2.258,-2.2365,-2.3365,-2.394,-2.3881,-2.4063,-2.3723,-2.2956,-2.2403,-2.1837,-2.081,-2.1225,-2.1497,-4.737,-4.6864,-4.5566,-4.5022,-4.5022,-4.523,-4.5477,-4.5775,-4.6002,-4.6158,-4.6172,-4.6109,-4.5827,-4.5464,-4.5698,-4.5302,-4.4361,-4.3633,-4.2871,-4.2096,-4.13,-4.0937,-4.0971,-4.0866,-4.0843,-4.0894,-4.0734,-4.0662,-4.0631,-4.0468,-4.0271,-3.9952,-3.8756,-3.807,-3.7912,-3.6539,-3.5852,-3.5893,-3.4742,-3.3901,-3.3465,-3.2556,-3.1814,-3.1249,-3.0031,-2.9112,-2.8641,-2.8091,-2.761,-2.7189,-2.7115,-2.6926,-2.6572,-2.7003,-2.7321,-2.7394,-2.8054,-2.8598,-2.8904,-2.8904,-2.8732,-2.8308,-2.784,-2.7539,-2.7585,-2.7532,-2.726,-2.6767,-2.6759,-2.6519,-2.5799,-2.5757,-2.5757,-2.5702,-2.5619,-2.5481,-2.5257,-2.5047,-2.4763,-2.4445,-2.4481,-2.4521,-2.4372,-2.4606,-2.4962,-2.5157,-2.494,-2.4469,-2.3629,-2.3352,-2.3114,-2.2774,-2.2524,-2.231,-2.2173,-2.1663,-2.1273,-2.1063,-2.1115,-2.1146,-2.1158,-2.2013,-2.2537,-2.2488,-2.3318,-2.3923,-2.3881,-2.3696,-2.3352,-2.3111,-2.2053,-2.1414,-2.1247,-2.1693,-2.1865,-4.7569,-4.7164,-4.5814,-4.523,-4.522,-4.5477,-4.5572,-4.5511,-4.5623,-4.5757,-4.5869,-4.5735,-4.547,-4.5262,-4.5758,-4.5478,-4.4605,-4.3872,-4.316,-4.2486,-4.174,-4.148,-4.1591,-4.148,-4.1436,-4.1475,-4.1226,-4.1111,-4.1105,-4.0836,-4.0487,-3.998,-3.8393,-3.7927,-3.8606,-3.6587,-3.5847,-3.6255,-3.5281,-3.4448,-3.3832,-3.3166,-3.2663,-3.2216,-3.0901,-2.995,-2.9515,-2.8685,-2.7858,-2.7131,-2.7085,-2.6844,-2.6376,-2.7069,-2.754,-2.7571,-2.8255,-2.8865,-2.9236,-2.8967,-2.8677,-2.842,-2.8029,-2.7725,-2.7619,-2.7676,-2.7435,-2.6869,-2.6807,-2.6537,-2.5854,-2.5661,-2.5619,-2.5564,-2.5467,-2.5313,-2.5005,-2.4863,-2.4649,-2.4287,-2.4275,-2.4364,-2.4321,-2.4426,-2.4687,-2.4949,-2.4931,-2.4499,-2.368,-2.342,-2.3198,-2.2927,-2.2469,-2.213,-2.2049,-2.1537,-2.119,-2.1115,-2.121,-2.121,-2.14,-2.2137,-2.2702,-2.2622,-2.3228,-2.3806,-2.393,-2.3641,-2.3345,-2.3267,-2.2472,-2.1814,-2.2316,-2.2504,-2.2628,-4.8266,-4.8113,-4.668,-4.5963,-4.5709,-4.5632,-4.5675,-4.5724,-4.5409,-4.5421,-4.5672,-4.5753,-4.5303,-4.4715,-4.5572,-4.5596,-4.482,-4.4041,-4.3424,-4.2904,-4.2314,-4.211,-4.2254,-4.2107,-4.1977,-4.1796,-4.1503,-4.138,-4.134,-4.1111,-4.052,-3.946,-3.834,-3.8072,-3.8496,-3.716,-3.6508,-3.6802,-3.5546,-3.4683,-3.4275,-3.3935,-3.3395,-3.2563,-3.2108,-3.1244,-3.0024,-2.9254,-2.8591,-2.7965,-2.7874,-2.7858,-2.7847,-2.8209,-2.8465,-2.8465,-2.8834,-2.9121,-2.9236,-2.8763,-2.8444,-2.8372,-2.8029,-2.775,-2.7625,-2.7725,-2.7471,-2.6829,-2.6207,-2.5923,-2.5716,-2.5592,-2.5425,-2.5216,-2.5202,-2.5118,-2.4892,-2.4806,-2.4734,-2.4563,-2.4773,-2.5064,-2.4882,-2.5136,-2.5301,-2.4896,-2.4633,-2.4222,-2.3534,-2.3,-2.2604,-2.2469,-2.2223,-2.1994,-2.1745,-2.1273,-2.1051,-2.0999,-2.0967,-2.1051,-2.1305,-2.1745,-2.2192,-2.2482,-2.3,-2.3599,-2.3688,-2.3669,-2.3693,-2.3542,-2.3199,-2.308,-2.3311,-2.3283,-2.3181,-4.7743,-4.7702,-4.6684,-4.6109,-4.586,-4.5844,-4.5963,-4.6098,-4.5699,-4.5659,-4.5899,-4.613,-4.5803,-4.5191,-4.5994,-4.5824,-4.49,-4.4354,-4.3744,-4.3105,-4.2652,-4.2478,-4.2555,-4.2277,-4.211,-4.2002,-4.1762,-4.156,-4.1316,-4.074,-4.0043,-3.9296,-3.7976,-3.7608,-3.808,-3.6693,-3.6071,-3.6332,-3.5396,-3.4691,-3.4341,-3.4126,-3.3871,-3.3448,-3.2828,-3.1867,-3.0687,-2.9872,-2.9098,-2.8327,-2.8241,-2.8241,-2.8241,-2.8501,-2.8653,-2.8677,-2.8936,-2.8998,-2.8771,-2.8542,-2.8414,-2.8299,-2.8039,-2.7905,-2.7815,-2.774,-2.7514,-2.7141,-2.6604,-2.6251,-2.6092,-2.573,-2.5439,-2.5313,-2.5188,-2.5005,-2.4835,-2.482,-2.4734,-2.4505,-2.4675,-2.4848,-2.476,-2.4843,-2.4734,-2.4389,-2.4094,-2.3709,-2.3012,-2.2696,-2.2432,-2.208,-2.1956,-2.1851,-2.1588,-2.1474,-2.1348,-2.14,-2.1526,-2.1588,-2.1632,-2.2285,-2.2787,-2.242,-2.315,-2.3658,-2.3734,-2.3865,-2.3949,-2.3835,-2.3866,-2.3826,-2.3553,-2.371,-2.3764,-4.7454,-4.7392,-4.6886,-4.6495,-4.6255,-4.6193,-4.6308,-4.6519,-4.6211,-4.6247,-4.6503,-4.6855,-4.6566,-4.598,-4.6496,-4.6129,-4.4987,-4.4658,-4.4164,-4.3524,-4.3053,-4.2992,-4.3192,-4.2609,-4.2422,-4.2457,-4.1998,-4.1604,-4.1241,-4.02,-3.9496,-3.8945,-3.7485,-3.7155,-3.7746,-3.6586,-3.6131,-3.641,-3.569,-3.5026,-3.4578,-3.4275,-3.4126,-3.4018,-3.3391,-3.2506,-3.1407,-3.0541,-2.9657,-2.8826,-2.8585,-2.8493,-2.8477,-2.87,-2.8803,-2.8803,-2.8928,-2.8873,-2.8517,-2.8414,-2.8301,-2.8162,-2.8069,-2.798,-2.793,-2.784,-2.774,-2.7587,-2.7099,-2.6646,-2.6357,-2.5799,-2.5411,-2.5341,-2.5131,-2.4948,-2.475,-2.4778,-2.475,-2.4507,-2.4605,-2.4649,-2.4578,-2.4474,-2.4242,-2.3992,-2.3713,-2.336,-2.2744,-2.2616,-2.2402,-2.1956,-2.1937,-2.1757,-2.1494,-2.1549,-2.1675,-2.1851,-2.1982,-2.2106,-2.2192,-2.2927,-2.339,-2.2992,-2.3645,-2.4011,-2.4086,-2.4216,-2.4274,-2.4421,-2.4397,-2.4246,-2.3983,-2.4152,-2.4197,-4.7852,-4.7947,-4.7578,-4.7325,-4.7129,-4.6743,-4.6708,-4.698,-4.6986,-4.7164,-4.7449,-4.8003,-4.7563,-4.6445,-4.6978,-4.6413,-4.506,-4.4848,-4.4662,-4.4269,-4.3579,-4.3742,-4.4596,-4.3358,-4.3048,-4.3445,-4.2341,-4.1568,-4.1145,-3.9844,-3.8903,-3.8385,-3.6984,-3.6906,-3.7763,-3.7223,-3.7234,-3.7327,-3.6496,-3.5754,-3.5053,-3.4546,-3.4176,-3.3933,-3.385,-3.3262,-3.2254,-3.1256,-3.0401,-2.9746,-2.9067,-2.8685,-2.8708,-2.8936,-2.9075,-2.9068,-2.892,-2.8818,-2.87,-2.8323,-2.8039,-2.8029,-2.8029,-2.7955,-2.7915,-2.8039,-2.8127,-2.8132,-2.7365,-2.675,-2.6329,-2.5716,-2.5244,-2.5103,-2.5005,-2.4863,-2.458,-2.4821,-2.492,-2.4806,-2.4806,-2.4791,-2.4649,-2.4434,-2.4247,-2.4028,-2.3688,-2.3271,-2.2987,-2.2635,-2.242,-2.2297,-2.2111,-2.18,-2.1526,-2.1675,-2.1882,-2.2137,-2.2402,-2.2525,-2.2786,-2.3088,-2.3297,-2.3518,-2.3809,-2.4115,-2.4447,-2.4591,-2.4649,-2.4692,-2.465,-2.4515,-2.4237,-2.4271,-2.4182,-4.9024,-4.9234,-4.829,-4.7917,-4.7963,-4.7411,-4.7222,-4.7294,-4.7276,-4.7454,-4.785,-4.8267,-4.796,-4.7114,-4.7333,-4.6804,-4.5704,-4.4907,-4.4779,-4.5151,-4.4635,-4.4556,-4.4831,-4.4452,-4.4066,-4.3665,-4.2924,-4.2033,-4.1115,-3.9743,-3.882,-3.8229,-3.6925,-3.6431,-3.6686,-3.6544,-3.6428,-3.6383,-3.587,-3.5449,-3.5121,-3.4739,-3.4382,-3.405,-3.3949,-3.3501,-3.2586,-3.1611,-3.0744,-3.0076,-2.943,-2.9082,-2.9082,-2.9152,-2.9137,-2.892,-2.8842,-2.8723,-2.8556,-2.8284,-2.8162,-2.8226,-2.8177,-2.8198,-2.8177,-2.825,-2.8268,-2.8082,-2.7494,-2.6916,-2.651,-2.5866,-2.5313,-2.5146,-2.5048,-2.4977,-2.4977,-2.4977,-2.5005,-2.5033,-2.5061,-2.5033,-2.4907,-2.4637,-2.435,-2.4073,-2.3599,-2.3108,-2.2744,-2.2543,-2.2482,-2.2451,-2.2439,-2.2384,-2.2211,-2.213,-2.2254,-2.2628,-2.2919,-2.3173,-2.3424,-2.3826,-2.4131,-2.3943,-2.4102,-2.4218,-2.452,-2.4463,-2.4578,-2.4677,-2.4664,-2.4565,-2.4421,-2.4305,-2.3948,-4.9521,-4.9543,-4.8695,-4.8537,-4.8825,-4.7998,-4.7772,-4.7872,-4.7493,-4.7582,-4.807,-4.8439,-4.8216,-4.7632,-4.7436,-4.718,-4.6631,-4.5498,-4.5278,-4.5864,-4.5545,-4.547,-4.5551,-4.5326,-4.4969,-4.4399,-4.3486,-4.2466,-4.1326,-3.9787,-3.8899,-3.8535,-3.6995,-3.6346,-3.6435,-3.6482,-3.6378,-3.6196,-3.5949,-3.5681,-3.5301,-3.493,-3.4594,-3.425,-3.4025,-3.3588,-3.2914,-3.2019,-3.1239,-3.0568,-2.9943,-2.9497,-2.9268,-2.9236,-2.9121,-2.8936,-2.8842,-2.8723,-2.8563,-2.8532,-2.8572,-2.8661,-2.8786,-2.8893,-2.8968,-2.8808,-2.8686,-2.8427,-2.7634,-2.7008,-2.6616,-2.5989,-2.5425,-2.5244,-2.509,-2.5033,-2.5118,-2.5061,-2.5061,-2.509,-2.5146,-2.5188,-2.5146,-2.4765,-2.4436,-2.4189,-2.3603,-2.3047,-2.2714,-2.2592,-2.2622,-2.2622,-2.2641,-2.2763,-2.2732,-2.2684,-2.2732,-2.307,-2.3399,-2.3691,-2.3969,-2.4405,-2.462,-2.4434,-2.4392,-2.4478,-2.445,-2.435,-2.4421,-2.4563,-2.4507,-2.4379,-2.4276,-2.4216,-2.3822,-4.9284,-4.9151,-4.8782,-4.9217,-4.9663,-4.8556,-4.8297,-4.8605,-4.7753,-4.7702,-4.8208,-4.8605,-4.8443,-4.7881,-4.7435,-4.7357,-4.7434,-4.6635,-4.6242,-4.6298,-4.6224,-4.6414,-4.6707,-4.5885,-4.5578,-4.562,-4.397,-4.2665,-4.1793,-4.0118,-3.9124,-3.8686,-3.7249,-3.6693,-3.7404,-3.721,-3.7335,-3.7136,-3.6785,-3.6322,-3.5639,-3.5118,-3.4732,-3.4448,-3.4101,-3.3729,-3.3282,-3.2608,-3.1912,-3.1255,-3.0583,-2.9888,-2.9437,-2.9357,-2.9232,-2.9241,-2.903,-2.8896,-2.8918,-2.9138,-2.9245,-2.9317,-2.9786,-3.0026,-2.9945,-2.9643,-2.9402,-2.9209,-2.8085,-2.7052,-2.6753,-2.603,-2.5397,-2.5202,-2.5061,-2.5005,-2.5033,-2.5005,-2.4977,-2.4963,-2.5005,-2.5174,-2.5076,-2.4723,-2.4408,-2.4176,-2.3734,-2.3283,-2.3047,-2.2884,-2.2884,-2.2927,-2.2805,-2.2775,-2.3017,-2.3241,-2.3335,-2.3458,-2.3796,-2.4102,-2.429,-2.4635,-2.4763,-2.4664,-2.4607,-2.4664,-2.4593,-2.4507,-2.4478,-2.4549,-2.4408,-2.4321,-2.4276,-2.415,-2.3744,-5.0712,-5.1306,-5.0484,-5.0384,-5.0592,-4.9546,-4.905,-4.8818,-4.8022,-4.7927,-4.8287,-4.8605,-4.8803,-4.8805,-4.8276,-4.7815,-4.7565,-4.7473,-4.7378,-4.7177,-4.7071,-4.7039,-4.7075,-4.6961,-4.6542,-4.5606,-4.3975,-4.2935,-4.2291,-4.0775,-3.9656,-3.8842,-3.7763,-3.6978,-3.6697,-3.668,-3.6663,-3.662,-3.6234,-3.5847,-3.5571,-3.5048,-3.4659,-3.4374,-3.4151,-3.3848,-3.3445,-3.2707,-3.2212,-3.1943,-3.1451,-3.1095,-3.0974,-3.0855,-3.0752,-3.0568,-3.0398,-3.0266,-3.0183,-3.0154,-3.0166,-3.0171,-3.032,-3.0319,-3.0334,-3.0191,-3.0079,-2.994,-2.8756,-2.7762,-2.7368,-2.6283,-2.5494,-2.509,-2.502,-2.5033,-2.5061,-2.485,-2.4593,-2.4421,-2.4421,-2.445,-2.445,-2.4263,-2.4234,-2.4147,-2.3704,-2.3343,-2.3138,-2.3035,-2.2957,-2.2969,-2.2818,-2.2818,-2.321,-2.339,-2.3395,-2.3649,-2.4031,-2.4218,-2.445,-2.4692,-2.4806,-2.4863,-2.4848,-2.4806,-2.475,-2.4635,-2.4578,-2.4578,-2.452,-2.4421,-2.4334,-2.4116,-2.3846,-5.1502,-5.2108,-5.1251,-5.0978,-5.1058,-5.0109,-4.9424,-4.8883,-4.8164,-4.7988,-4.8267,-4.8495,-4.8883,-4.9201,-4.8716,-4.844,-4.8357,-4.8339,-4.8222,-4.8017,-4.755,-4.7279,-4.6962,-4.6649,-4.6015,-4.492,-4.3752,-4.3048,-4.2611,-4.1147,-3.9952,-3.9076,-3.8027,-3.7094,-3.637,-3.6284,-3.6284,-3.6259,-3.5937,-3.5711,-3.5532,-3.5118,-3.4756,-3.4521,-3.4349,-3.4075,-3.3713,-3.3211,-3.2774,-3.238,-3.1884,-3.1662,-3.1702,-3.1566,-3.1388,-3.1167,-3.1027,-3.0886,-3.0772,-3.0846,-3.099,-3.0995,-3.1092,-3.1151,-3.1094,-3.0918,-3.0612,-3.0346,-2.9188,-2.8261,-2.7872,-2.7018,-2.6075,-2.5472,-2.5155,-2.5032,-2.4991,-2.4666,-2.4379,-2.4205,-2.4131,-2.4102,-2.4102,-2.4031,-2.4044,-2.4002,-2.3645,-2.3343,-2.3198,-2.3168,-2.306,-2.2939,-2.2744,-2.2969,-2.3463,-2.3539,-2.3467,-2.3809,-2.4205,-2.4292,-2.4421,-2.4679,-2.4863,-2.4892,-2.4863,-2.492,-2.4863,-2.4622,-2.4507,-2.4549,-2.4578,-2.4421,-2.4321,-2.4421,-2.4107,-5.1728,-5.1541,-5.1135,-5.1008,-5.1027,-5.0078,-4.9444,-4.8986,-4.8104,-4.7886,-4.8189,-4.8383,-4.8761,-4.9102,-4.8876,-4.9051,-4.9631,-4.9097,-4.8762,-4.8522,-4.7836,-4.704,-4.6535,-4.5561,-4.4675,-4.3925,-4.3583,-4.3123,-4.2525,-4.1276,-4.0151,-3.9403,-3.8287,-3.7202,-3.6594,-3.6353,-3.6284,-3.6241,-3.6045,-3.5822,-3.556,-3.5205,-3.497,-3.4851,-3.4594,-3.4349,-3.4109,-3.3919,-3.3494,-3.2659,-3.2237,-3.2071,-3.1782,-3.1564,-3.155,-3.1322,-3.1165,-3.1117,-3.099,-3.1419,-3.1672,-3.1692,-3.2014,-3.2398,-3.2097,-3.1463,-3.1013,-3.0719,-2.951,-2.8596,-2.8297,-2.7552,-2.6852,-2.615,-2.5375,-2.4975,-2.475,-2.4436,-2.4134,-2.3972,-2.4015,-2.4015,-2.3927,-2.3813,-2.3884,-2.3868,-2.3526,-2.333,-2.3271,-2.3228,-2.3138,-2.2987,-2.2836,-2.3078,-2.3582,-2.3717,-2.3691,-2.3927,-2.4305,-2.4421,-2.445,-2.4679,-2.4907,-2.492,-2.4948,-2.5005,-2.5005,-2.4806,-2.4622,-2.4593,-2.4536,-2.4379,-2.4321,-2.4376,-2.4136,-5.1728,-5.1526,-5.0788,-5.0464,-5.0289,-4.9378,-4.905,-4.8953,-4.8001,-4.7806,-4.8169,-4.8458,-4.8799,-4.928,-4.9443,-4.9492,-4.9447,-4.9543,-4.921,-4.857,-4.7411,-4.678,-4.6337,-4.5407,-4.4635,-4.42,-4.3661,-4.3393,-4.3102,-4.1884,-4.091,-4.0165,-3.8899,-3.7909,-3.7271,-3.6577,-3.6301,-3.6237,-3.5893,-3.5711,-3.5538,-3.5024,-3.4739,-3.4875,-3.4667,-3.4448,-3.4226,-3.3949,-3.3723,-3.3476,-3.3806,-3.3585,-3.2911,-3.277,-3.2583,-3.2332,-3.2342,-3.2346,-3.2298,-3.2395,-3.245,-3.2358,-3.24,-3.2413,-3.2107,-3.1886,-3.1526,-3.105,-3.003,-2.9218,-2.8842,-2.7636,-2.6434,-2.5472,-2.5155,-2.4821,-2.4379,-2.3972,-2.3636,-2.3288,-2.3168,-2.3198,-2.3318,-2.3437,-2.3582,-2.3595,-2.3463,-2.3351,-2.3419,-2.3228,-2.3095,-2.3168,-2.3138,-2.3348,-2.3586,-2.378,-2.3927,-2.4102,-2.4363,-2.4622,-2.4622,-2.4679,-2.4907,-2.5048,-2.509,-2.5118,-2.5216,-2.5159,-2.4977,-2.4641,-2.4609,-2.4481,-2.4218,-2.4131,-2.3872,-5.1569,-5.1137,-5.0572,-5.0107,-4.9698,-4.9222,-4.8904,-4.8623,-4.8063,-4.7829,-4.813,-4.8267,-4.8604,-4.9067,-4.9442,-4.9614,-4.9536,-4.9917,-4.9721,-4.8926,-4.7323,-4.6004,-4.5068,-4.4241,-4.387,-4.371,-4.3313,-4.3102,-4.2956,-4.2253,-4.1456,-4.0457,-3.9382,-3.8391,-3.7461,-3.6715,-3.6339,-3.6301,-3.5997,-3.5778,-3.5744,-3.5247,-3.5078,-3.5165,-3.5008,-3.4883,-3.4586,-3.4452,-3.4349,-3.421,-3.4191,-3.4043,-3.3847,-3.3628,-3.3435,-3.3158,-3.3232,-3.317,-3.2765,-3.2746,-3.2746,-3.2691,-3.2539,-3.2274,-3.2023,-3.1783,-3.1322,-3.094,-2.9943,-2.936,-2.8851,-2.7463,-2.6266,-2.5666,-2.5196,-2.4791,-2.4234,-2.3914,-2.356,-2.3198,-2.2969,-2.2939,-2.309,-2.3283,-2.353,-2.3661,-2.3487,-2.3558,-2.3647,-2.3336,-2.3168,-2.3288,-2.3437,-2.3645,-2.3897,-2.4118,-2.4334,-2.4478,-2.4565,-2.4806,-2.4778,-2.4778,-2.4977,-2.5146,-2.5174,-2.523,-2.5314,-2.5231,-2.4829,-2.4606,-2.4657,-2.446,-2.4092,-2.3924,-2.3662,-5.1133,-5.0453,-5.024,-4.9742,-4.914,-4.9147,-4.8725,-4.8258,-4.797,-4.7949,-4.801,-4.8012,-4.8326,-4.8694,-4.9129,-4.9512,-4.9929,-5.01,-4.9778,-4.8823,-4.7236,-4.5448,-4.3616,-4.3162,-4.2893,-4.2759,-4.258,-4.2638,-4.2656,-4.2425,-4.1769,-4.0838,-3.981,-3.8729,-3.7867,-3.693,-3.6502,-3.6381,-3.6148,-3.6002,-3.5941,-3.565,-3.5447,-3.5515,-3.5418,-3.5165,-3.4936,-3.4905,-3.4875,-3.4632,-3.3847,-3.3778,-3.4173,-3.3834,-3.3553,-3.3321,-3.3259,-3.3073,-3.2499,-3.2415,-3.2528,-3.2524,-3.2213,-3.201,-3.1881,-3.138,-3.0881,-3.0612,-2.9571,-2.8905,-2.8213,-2.7136,-2.6392,-2.5903,-2.5391,-2.4904,-2.4379,-2.4018,-2.3695,-2.339,-2.318,-2.321,-2.333,-2.3428,-2.3542,-2.3546,-2.3435,-2.3435,-2.3558,-2.3457,-2.3445,-2.3569,-2.3747,-2.3894,-2.4189,-2.4494,-2.4708,-2.4892,-2.4892,-2.4977,-2.492,-2.4948,-2.509,-2.523,-2.5272,-2.5355,-2.5425,-2.5162,-2.4706,-2.4294,-2.4194,-2.3947,-2.37,-2.3702,-2.3517,-4.9815,-4.9594,-4.8835,-4.8411,-4.8207,-4.8019,-4.799,-4.803,-4.7747,-4.7783,-4.7925,-4.8107,-4.8267,-4.8477,-4.8917,-4.937,-4.9754,-4.9917,-4.934,-4.7705,-4.7197,-4.5496,-4.3768,-4.305,-4.2822,-4.2782,-4.2743,-4.2745,-4.2706,-4.2514,-4.22,-4.1685,-4.0553,-3.9582,-3.8699,-3.7758,-3.6955,-3.6464,-3.6195,-3.611,-3.598,-3.5717,-3.5583,-3.5689,-3.5435,-3.5024,-3.4611,-3.4246,-3.3986,-3.3857,-3.3921,-3.3723,-3.3201,-3.2863,-3.2642,-3.2516,-3.244,-3.2219,-3.1753,-3.2078,-3.2179,-3.177,-3.1931,-3.1966,-3.1509,-3.1146,-3.0688,-3.027,-2.954,-2.8448,-2.7296,-2.6817,-2.6285,-2.5798,-2.552,-2.5087,-2.4436,-2.4018,-2.3695,-2.3305,-2.309,-2.306,-2.336,-2.3288,-2.3376,-2.3392,-2.3379,-2.3316,-2.3402,-2.3517,-2.3667,-2.3806,-2.4187,-2.4347,-2.4578,-2.4821,-2.4977,-2.5103,-2.5118,-2.509,-2.5033,-2.509,-2.5258,-2.5328,-2.5369,-2.5411,-2.5425,-2.5175,-2.4759,-2.4252,-2.3722,-2.3599,-2.3519,-2.3482,-2.3565,-4.9374,-4.8988,-4.8469,-4.8228,-4.8208,-4.7992,-4.7972,-4.8072,-4.785,-4.7806,-4.7927,-4.8046,-4.8128,-4.825,-4.8621,-4.9031,-4.9442,-4.9863,-4.915,-4.7719,-4.7092,-4.5902,-4.4212,-4.3562,-4.3303,-4.305,-4.2955,-4.2955,-4.2918,-4.2729,-4.2496,-4.218,-4.1173,-4.0355,-3.9585,-3.8538,-3.769,-3.7148,-3.6627,-3.6367,-3.6212,-3.598,-3.5783,-3.58,-3.5464,-3.5048,-3.4635,-3.4316,-3.394,-3.3754,-3.3784,-3.3738,-3.3156,-3.2778,-3.2494,-3.241,-3.248,-3.2259,-3.202,-3.1999,-3.2066,-3.1405,-3.1655,-3.1438,-3.0979,-3.0528,-3.0043,-2.9514,-2.8664,-2.7498,-2.6343,-2.6176,-2.5897,-2.5688,-2.563,-2.5317,-2.4603,-2.4221,-2.393,-2.3484,-2.3288,-2.342,-2.348,-2.3467,-2.3593,-2.3831,-2.3675,-2.3595,-2.3642,-2.3768,-2.3887,-2.4102,-2.4549,-2.4877,-2.506,-2.5188,-2.5202,-2.5244,-2.5244,-2.5174,-2.5118,-2.5258,-2.5397,-2.5383,-2.5341,-2.5341,-2.5286,-2.5035,-2.4609,-2.3837,-2.3365,-2.335,-2.339,-2.35,-2.3662,-4.9233,-4.8587,-4.8532,-4.8494,-4.8494,-4.8343,-4.8248,-4.8209,-4.8072,-4.7931,-4.797,-4.7904,-4.7988,-4.8072,-4.8365,-4.8728,-4.923,-4.965,-4.915,-4.7928,-4.746,-4.6256,-4.4793,-4.4126,-4.3744,-4.3339,-4.3233,-4.3214,-4.316,-4.3031,-4.2768,-4.2368,-4.168,-4.0946,-4.0296,-3.9256,-3.8274,-3.7766,-3.7103,-3.6632,-3.6444,-3.628,-3.6152,-3.5975,-3.556,-3.5148,-3.4739,-3.4448,-3.4151,-3.3771,-3.3581,-3.3636,-3.3619,-3.3332,-3.2961,-3.2944,-3.2892,-3.2509,-3.1974,-3.1885,-3.1686,-3.1351,-3.1059,-3.0783,-3.0283,-2.9666,-2.9217,-2.8654,-2.7896,-2.6779,-2.5882,-2.5868,-2.5799,-2.573,-2.5862,-2.5558,-2.4958,-2.4725,-2.4622,-2.3763,-2.3509,-2.3539,-2.3763,-2.3865,-2.4069,-2.4189,-2.4016,-2.392,-2.3979,-2.4111,-2.4275,-2.4494,-2.4935,-2.5258,-2.5439,-2.5467,-2.5495,-2.5439,-2.5383,-2.5328,-2.5286,-2.5397,-2.5481,-2.5328,-2.5272,-2.5272,-2.5159,-2.4907,-2.4322,-2.3434,-2.3151,-2.3218,-2.3353,-2.3487,-2.377,-4.877,-4.8587,-4.8532,-4.8494,-4.8476,-4.8344,-4.8209,-4.8072,-4.8032,-4.7891,-4.7804,-4.7927,-4.7947,-4.8026,-4.8342,-4.8803,-4.9233,-4.9627,-4.9345,-4.8307,-4.7764,-4.6663,-4.55,-4.4584,-4.4109,-4.383,-4.3599,-4.3462,-4.334,-4.3214,-4.2975,-4.2673,-4.2271,-4.1685,-4.0828,-3.9805,-3.8853,-3.8076,-3.7326,-3.6768,-3.6444,-3.6322,-3.6237,-3.6084,-3.5583,-3.5131,-3.4754,-3.4284,-3.3949,-3.3848,-3.3617,-3.3566,-3.3535,-3.3204,-3.2944,-3.281,-3.2715,-3.2413,-3.1851,-3.1329,-3.0688,-3.0018,-2.9901,-2.9579,-2.9248,-2.8882,-2.8627,-2.8111,-2.7527,-2.6693,-2.61,-2.6029,-2.6002,-2.6075,-2.6232,-2.621,-2.5677,-2.5652,-2.5453,-2.4243,-2.3844,-2.3658,-2.394,-2.416,-2.4305,-2.4419,-2.4408,-2.435,-2.4363,-2.4562,-2.4817,-2.5048,-2.537,-2.5591,-2.5811,-2.5784,-2.5757,-2.5647,-2.5578,-2.5536,-2.5522,-2.5591,-2.5564,-2.5383,-2.5244,-2.5216,-2.5047,-2.482,-2.4131,-2.3286,-2.3178,-2.3178,-2.343,-2.3719,-2.4163,-4.8853,-4.875,-4.8624,-4.855,-4.8532,-4.8438,-4.8343,-4.8247,-4.8072,-4.7931,-4.7891,-4.7951,-4.7968,-4.7966,-4.803,-4.8421,-4.8897,-4.9431,-4.9211,-4.8558,-4.7859,-4.7067,-4.6013,-4.5051,-4.4528,-4.4196,-4.3952,-4.3682,-4.3464,-4.3269,-4.3105,-4.2955,-4.2727,-4.2297,-4.1544,-4.0505,-3.9534,-3.8599,-3.7617,-3.6788,-3.6377,-3.6318,-3.6276,-3.6041,-3.5583,-3.5091,-3.4761,-3.4292,-3.3975,-3.3899,-3.3822,-3.3848,-3.3781,-3.3636,-3.324,-3.2776,-3.2683,-3.2509,-3.201,-3.1601,-3.1116,-3.0368,-3.0125,-2.969,-2.9094,-2.8721,-2.8277,-2.7451,-2.7096,-2.6627,-2.6326,-2.6272,-2.6177,-2.6155,-2.6372,-2.6214,-2.5886,-2.6183,-2.5576,-2.4742,-2.46,-2.4433,-2.4189,-2.4379,-2.4494,-2.4609,-2.4751,-2.4793,-2.4765,-2.4963,-2.523,-2.5342,-2.5536,-2.5729,-2.5866,-2.5866,-2.5866,-2.5811,-2.5729,-2.5688,-2.5702,-2.5729,-2.5605,-2.5425,-2.5341,-2.53,-2.5075,-2.4878,-2.4025,-2.3299,-2.3285,-2.3361,-2.3668,-2.4016,-2.4359,-4.9092,-4.8926,-4.8732,-4.866,-4.8642,-4.855,-4.8494,-4.8419,-4.8169,-4.801,-4.799,-4.803,-4.8008,-4.7947,-4.7972,-4.8137,-4.8476,-4.9085,-4.9104,-4.8816,-4.7935,-4.7134,-4.6499,-4.5516,-4.4726,-4.4443,-4.426,-4.3923,-4.36,-4.3358,-4.3215,-4.3086,-4.2994,-4.2805,-4.2212,-4.0861,-4.011,-3.9115,-3.8066,-3.7068,-3.6842,-3.6628,-3.6457,-3.6233,-3.5622,-3.5068,-3.4778,-3.4333,-3.4075,-3.4,-3.4025,-3.4142,-3.4242,-3.4267,-3.3755,-3.2926,-3.3007,-3.2926,-3.2636,-3.2047,-3.1498,-3.0907,-3.0936,-3.016,-2.9309,-2.8651,-2.8081,-2.694,-2.6556,-2.6623,-2.6539,-2.6404,-2.6285,-2.6238,-2.626,-2.6283,-2.6087,-2.6154,-2.6204,-2.5679,-2.5499,-2.5215,-2.4886,-2.4736,-2.4878,-2.5118,-2.5258,-2.5231,-2.5244,-2.53,-2.5467,-2.5508,-2.5647,-2.5811,-2.5893,-2.5839,-2.5866,-2.5866,-2.5811,-2.5798,-2.5798,-2.5811,-2.5688,-2.5564,-2.5536,-2.5467,-2.5202,-2.4883,-2.4176,-2.3663,-2.3497,-2.3456,-2.3526,-2.3839,-2.4257,-4.9286,-4.9049,-4.8909,-4.8855,-4.8839,-4.8678,-4.8495,-4.8325,-4.8228,-4.8068,-4.7945,-4.8088,-4.809,-4.805,-4.8151,-4.8345,-4.8586,-4.8813,-4.9105,-4.906,-4.8041,-4.7445,-4.7174,-4.5843,-4.5041,-4.4676,-4.4552,-4.424,-4.3862,-4.3549,-4.3323,-4.3196,-4.3105,-4.288,-4.2393,-4.1079,-3.9857,-3.9156,-3.8389,-3.8042,-3.8083,-3.7616,-3.7153,-3.6638,-3.5807,-3.5062,-3.4804,-3.4439,-3.4189,-3.4156,-3.4124,-3.4133,-3.4126,-3.4126,-3.3949,-3.372,-3.3668,-3.3668,-3.3235,-3.2489,-3.1831,-3.1358,-3.09,-3.0065,-2.9531,-2.8625,-2.804,-2.7935,-2.7219,-2.6852,-2.6825,-2.6606,-2.6447,-2.6402,-2.6412,-2.6483,-2.6412,-2.6344,-2.6356,-2.6243,-2.5904,-2.5697,-2.5452,-2.5369,-2.5314,-2.555,-2.5743,-2.5688,-2.566,-2.566,-2.566,-2.5702,-2.5729,-2.5866,-2.5893,-2.5839,-2.5893,-2.5921,-2.5921,-2.5893,-2.5948,-2.5948,-2.5893,-2.5825,-2.5743,-2.555,-2.5258,-2.4858,-2.4327,-2.3865,-2.3507,-2.3299,-2.3192,-2.3588,-2.3961,-4.8861,-4.8923,-4.8424,-4.8466,-4.8839,-4.8785,-4.8641,-4.8476,-4.8324,-4.8187,-4.8107,-4.8146,-4.811,-4.8072,-4.8209,-4.8268,-4.8345,-4.8586,-4.8934,-4.8937,-4.8017,-4.746,-4.7282,-4.6094,-4.5087,-4.4973,-4.4745,-4.4525,-4.4162,-4.3862,-4.3566,-4.334,-4.3269,-4.3087,-4.2562,-4.1383,-4.0564,-3.9837,-3.9087,-3.859,-3.849,-3.8044,-3.7508,-3.718,-3.5943,-3.5255,-3.4956,-3.4856,-3.4734,-3.4725,-3.4716,-3.4751,-3.4688,-3.4486,-3.4151,-3.4075,-3.4075,-3.3899,-3.3459,-3.2851,-3.2402,-3.209,-3.1628,-3.1332,-3.0521,-2.9365,-2.8521,-2.8722,-2.7805,-2.735,-2.7231,-2.6845,-2.6568,-2.648,-2.6477,-2.6437,-2.6496,-2.6649,-2.6634,-2.6481,-2.6301,-2.6049,-2.5827,-2.5702,-2.5591,-2.5702,-2.5839,-2.5811,-2.5811,-2.5811,-2.5839,-2.5866,-2.5866,-2.5893,-2.5893,-2.5893,-2.5948,-2.6002,-2.6029,-2.6029,-2.6125,-2.6125,-2.6029,-2.5921,-2.5811,-2.5591,-2.5314,-2.508,-2.4765,-2.4134,-2.3449,-2.3213,-2.2986,-2.2851,-2.333,-4.8415,-4.8816,-4.8105,-4.8201,-4.8839,-4.8891,-4.8821,-4.8642,-4.8458,-4.8324,-4.8228,-4.8207,-4.8149,-4.8111,-4.8229,-4.823,-4.8113,-4.8383,-4.8581,-4.8341,-4.7736,-4.7218,-4.6839,-4.5873,-4.5239,-4.5322,-4.503,-4.4751,-4.4511,-4.4221,-4.3844,-4.3533,-4.3534,-4.3233,-4.2664,-4.1763,-4.0869,-4.0334,-3.9591,-3.9306,-3.9309,-3.8737,-3.8138,-3.7364,-3.6372,-3.5379,-3.5141,-3.5152,-3.5172,-3.5163,-3.5396,-3.5406,-3.5166,-3.4818,-3.4403,-3.4248,-3.4151,-3.405,-3.3751,-3.3379,-3.3165,-3.2951,-3.2698,-3.229,-3.1756,-3.0389,-2.9478,-2.9732,-2.861,-2.8092,-2.7759,-2.7215,-2.6876,-2.6599,-2.6395,-2.634,-2.6354,-2.6565,-2.6651,-2.65,-2.6349,-2.6211,-2.603,-2.5921,-2.5893,-2.5893,-2.5893,-2.5893,-2.5921,-2.5921,-2.5921,-2.5921,-2.5893,-2.5921,-2.5921,-2.5948,-2.6002,-2.6084,-2.6111,-2.6179,-2.6233,-2.6179,-2.6098,-2.5975,-2.5879,-2.5729,-2.5508,-2.5384,-2.5163,-2.4253,-2.3456,-2.3043,-2.2765,-2.2547,-2.2615,-4.8183,-4.887,-4.8219,-4.8404,-4.9068,-4.8945,-4.8856,-4.875,-4.8624,-4.8458,-4.8306,-4.8265,-4.8247,-4.8267,-4.8287,-4.8324,-4.8267,-4.8306,-4.8199,-4.7757,-4.7074,-4.6685,-4.6271,-4.5764,-4.5241,-4.5361,-4.5231,-4.5007,-4.4739,-4.4511,-4.4181,-4.3913,-4.3703,-4.3304,-4.2739,-4.1965,-4.1187,-4.0711,-4.0193,-4.0334,-4.0382,-3.9927,-3.9094,-3.7973,-3.6909,-3.5852,-3.4838,-3.5141,-3.5315,-3.5373,-3.5924,-3.5813,-3.5392,-3.5114,-3.4716,-3.418,-3.4084,-3.4075,-3.3969,-3.3836,-3.3818,-3.3649,-3.336,-3.2966,-3.2634,-3.1314,-3.0684,-3.0561,-2.9414,-2.8601,-2.8186,-2.7754,-2.7258,-2.6934,-2.6695,-2.6566,-2.6539,-2.6513,-2.657,-2.65,-2.6379,-2.626,-2.6125,-2.5975,-2.5921,-2.5921,-2.5921,-2.5921,-2.5975,-2.5975,-2.5934,-2.5948,-2.5921,-2.5921,-2.5921,-2.5975,-2.6084,-2.6192,-2.6245,-2.6313,-2.634,-2.6245,-2.5939,-2.6,-2.589,-2.5824,-2.5757,-2.5632,-2.5202,-2.4166,-2.3411,-2.294,-2.232,-2.1892,-2.2033,-4.8184,-4.8833,-4.8151,-4.83,-4.8979,-4.8926,-4.8856,-4.8787,-4.866,-4.8569,-4.8495,-4.8439,-4.842,-4.842,-4.8401,-4.8363,-4.8306,-4.8324,-4.8034,-4.7562,-4.6941,-4.6394,-4.5897,-4.5428,-4.5102,-4.5251,-4.5291,-4.5269,-4.503,-4.4739,-4.4508,-4.4218,-4.3835,-4.341,-4.2832,-4.2329,-4.1744,-4.1372,-4.1135,-4.1275,-4.089,-4.0456,-3.9507,-3.8125,-3.725,-3.5994,-3.5012,-3.5727,-3.5847,-3.6005,-3.6594,-3.6319,-3.576,-3.5467,-3.4817,-3.4111,-3.4074,-3.4126,-3.4201,-3.4084,-3.4,-3.3848,-3.3565,-3.3309,-3.3118,-3.1948,-3.1366,-3.0905,-3.0125,-2.9171,-2.8998,-2.8285,-2.7588,-2.7314,-2.7096,-2.6948,-2.6777,-2.6709,-2.6604,-2.6551,-2.6406,-2.626,-2.6125,-2.5975,-2.5921,-2.5921,-2.5921,-2.5934,-2.6015,-2.6069,-2.6042,-2.6069,-2.6042,-2.6002,-2.6002,-2.6084,-2.615,-2.6215,-2.6281,-2.6306,-2.622,-2.5852,-2.5633,-2.5767,-2.5816,-2.5625,-2.5586,-2.5741,-2.5214,-2.4126,-2.3327,-2.2739,-2.2055,-2.1378,-2.1537,-4.8389,-4.8816,-4.8345,-4.8404,-4.8855,-4.8891,-4.8856,-4.8787,-4.8715,-4.8678,-4.8696,-4.8624,-4.8569,-4.8532,-4.8457,-4.84,-4.8324,-4.8252,-4.7776,-4.7199,-4.6576,-4.5982,-4.5435,-4.504,-4.4838,-4.506,-4.5145,-4.5121,-4.5072,-4.49,-4.4635,-4.4277,-4.3897,-4.3548,-4.3196,-4.2749,-4.2313,-4.2124,-4.1934,-4.1809,-4.1358,-4.0941,-4.0028,-3.871,-3.778,-3.6632,-3.5734,-3.591,-3.6233,-3.6492,-3.6869,-3.7026,-3.6491,-3.5839,-3.5117,-3.4542,-3.418,-3.4233,-3.425,-3.4226,-3.4101,-3.3991,-3.3787,-3.3529,-3.3166,-3.2493,-3.1903,-3.1596,-3.0612,-2.9819,-2.974,-2.8954,-2.8207,-2.7915,-2.7712,-2.7504,-2.7143,-2.6948,-2.6777,-2.6645,-2.6459,-2.6272,-2.6299,-2.6177,-2.6111,-2.6029,-2.5921,-2.5988,-2.6163,-2.619,-2.6217,-2.6217,-2.6244,-2.6177,-2.6125,-2.6136,-2.6105,-2.5802,-2.5907,-2.6031,-2.5902,-2.5509,-2.5346,-2.5497,-2.5491,-2.5328,-2.5416,-2.5599,-2.4951,-2.4048,-2.3226,-2.2335,-2.1937,-2.1325,-2.1245,-4.8872,-4.889,-4.8872,-4.8837,-4.8841,-4.8874,-4.8839,-4.8823,-4.8804,-4.884,-4.8856,-4.8661,-4.8587,-4.8569,-4.8458,-4.8382,-4.8344,-4.827,-4.7721,-4.6725,-4.6369,-4.5496,-4.4807,-4.4463,-4.4538,-4.4812,-4.4891,-4.491,-4.496,-4.4752,-4.4535,-4.4393,-4.4082,-4.3781,-4.3462,-4.29,-4.2591,-4.253,-4.2249,-4.2023,-4.1778,-4.1495,-4.06,-3.9416,-3.8419,-3.7259,-3.6245,-3.5943,-3.6181,-3.6385,-3.7081,-3.7171,-3.6745,-3.6468,-3.5782,-3.4846,-3.4507,-3.4389,-3.4341,-3.43,-3.4136,-3.4059,-3.3899,-3.372,-3.3487,-3.2917,-3.2189,-3.1847,-3.1111,-3.0367,-3.0061,-2.9681,-2.9006,-2.8515,-2.8296,-2.7902,-2.7484,-2.7119,-2.6922,-2.675,-2.6513,-2.6326,-2.6392,-2.6404,-2.6312,-2.6177,-2.5975,-2.6069,-2.6351,-2.6404,-2.6404,-2.6484,-2.6496,-2.614,-2.606,-2.6158,-2.6056,-2.5683,-2.5509,-2.5647,-2.5521,-2.5132,-2.5083,-2.5244,-2.5123,-2.4894,-2.5149,-2.5458,-2.4691,-2.3904,-2.271,-2.1877,-2.1523,-2.1481,-2.1584,-4.9081,-4.9032,-4.9032,-4.8927,-4.8804,-4.8732,-4.8732,-4.8822,-4.8928,-4.9016,-4.9015,-4.8911,-4.884,-4.875,-4.8605,-4.8476,-4.8476,-4.842,-4.7758,-4.7001,-4.6464,-4.568,-4.4918,-4.4333,-4.4269,-4.4438,-4.4533,-4.4599,-4.4649,-4.4538,-4.4522,-4.4426,-4.4252,-4.3974,-4.3599,-4.316,-4.2957,-4.2767,-4.2474,-4.219,-4.1903,-4.1644,-4.0969,-3.964,-3.8826,-3.7704,-3.636,-3.6148,-3.6067,-3.6095,-3.6744,-3.6813,-3.643,-3.6131,-3.5844,-3.4984,-3.4576,-3.4939,-3.453,-3.4178,-3.3811,-3.3956,-3.3935,-3.3732,-3.3513,-3.2926,-3.2422,-3.1949,-3.1379,-3.0808,-3.069,-3.0205,-2.9572,-2.902,-2.8667,-2.8092,-2.7665,-2.7321,-2.7052,-2.687,-2.6659,-2.6445,-2.6431,-2.6657,-2.663,-2.659,-2.6472,-2.6578,-2.6867,-2.6736,-2.6683,-2.6788,-2.673,-2.6263,-2.5991,-2.5926,-2.56,-2.5126,-2.5109,-2.528,-2.5058,-2.4631,-2.4833,-2.502,-2.4747,-2.4514,-2.4745,-2.4892,-2.4531,-2.3771,-2.2817,-2.2339,-2.2352,-2.2338,-2.2322,-4.8968,-4.9101,-4.9101,-4.898,-4.8804,-4.8715,-4.8732,-4.8822,-4.8998,-4.9118,-4.9116,-4.91,-4.8995,-4.889,-4.8767,-4.8605,-4.8587,-4.855,-4.8108,-4.7386,-4.659,-4.5774,-4.5029,-4.4374,-4.4123,-4.4166,-4.4221,-4.4265,-4.4365,-4.4346,-4.4369,-4.4383,-4.4358,-4.4116,-4.3781,-4.3461,-4.3214,-4.2994,-4.2689,-4.2313,-4.2068,-4.1717,-4.1181,-4.0222,-3.9273,-3.8224,-3.7033,-3.6386,-3.6073,-3.5951,-3.6007,-3.6303,-3.5983,-3.5801,-3.5687,-3.5089,-3.4782,-3.5046,-3.4626,-3.4226,-3.4072,-3.421,-3.3831,-3.3316,-3.3071,-3.2701,-3.2376,-3.1964,-3.1394,-3.1146,-3.0896,-3.0411,-3.0056,-2.9476,-2.9044,-2.8483,-2.7793,-2.7435,-2.7207,-2.7041,-2.6832,-2.6618,-2.6551,-2.6788,-2.6945,-2.6971,-2.6982,-2.7152,-2.7269,-2.7115,-2.6904,-2.6941,-2.6737,-2.6155,-2.5739,-2.5517,-2.5157,-2.4608,-2.4658,-2.485,-2.439,-2.3992,-2.4388,-2.4643,-2.4199,-2.3997,-2.4275,-2.4315,-2.4036,-2.3809,-2.3364,-2.3124,-2.3192,-2.3164,-2.3052,-4.8553,-4.9025,-4.9101,-4.9016,-4.8822,-4.8822,-4.8823,-4.8822,-4.9033,-4.9133,-4.9179,-4.9077,-4.9025,-4.8974,-4.8874,-4.8768,-4.8678,-4.866,-4.8217,-4.7551,-4.6919,-4.6032,-4.5186,-4.4428,-4.4138,-4.4,-4.3942,-4.3905,-4.4064,-4.4121,-4.417,-4.4266,-4.4296,-4.4131,-4.3878,-4.3632,-4.3445,-4.3196,-4.2768,-4.2474,-4.2274,-4.1959,-4.1477,-4.0774,-4.002,-3.8923,-3.7821,-3.6963,-3.6372,-3.6072,-3.5943,-3.6207,-3.6238,-3.609,-3.5751,-3.5389,-3.4997,-3.4815,-3.4618,-3.4309,-3.373,-3.3492,-3.3037,-3.2419,-3.2389,-3.2607,-3.2372,-3.1921,-3.1379,-3.1117,-3.0807,-3.0588,-3.0338,-2.9904,-2.9488,-2.8793,-2.7989,-2.7603,-2.7416,-2.7196,-2.6937,-2.6806,-2.687,-2.7052,-2.7218,-2.7397,-2.7448,-2.7509,-2.76,-2.7437,-2.724,-2.6972,-2.6652,-2.5948,-2.559,-2.5349,-2.4707,-2.4187,-2.4248,-2.4314,-2.3801,-2.348,-2.3858,-2.3956,-2.3537,-2.3421,-2.3592,-2.3677,-2.3652,-2.3442,-2.3353,-2.3778,-2.3822,-2.3818,-2.3713,-4.8415,-4.8442,-4.8957,-4.9116,-4.9033,-4.8998,-4.8963,-4.8909,-4.9081,-4.9195,-4.9276,-4.9225,-4.9193,-4.9193,-4.9027,-4.9012,-4.896,-4.889,-4.8745,-4.8172,-4.7488,-4.6731,-4.5867,-4.4969,-4.4413,-4.3867,-4.3615,-4.3512,-4.3681,-4.3777,-4.3923,-4.4023,-4.4128,-4.402,-4.3846,-4.3666,-4.3566,-4.3322,-4.2863,-4.2634,-4.2416,-4.2107,-4.1723,-4.1265,-4.041,-3.9313,-3.8259,-3.718,-3.6434,-3.5656,-3.5542,-3.563,-3.5485,-3.5753,-3.5844,-3.5663,-3.5185,-3.4739,-3.4431,-3.3941,-3.3283,-3.2426,-3.1845,-3.2463,-3.2562,-3.2612,-3.2317,-3.1821,-3.1321,-3.1029,-3.0925,-3.0778,-3.0528,-3.0168,-2.9724,-2.9139,-2.8351,-2.787,-2.7669,-2.7386,-2.7144,-2.7055,-2.7133,-2.7258,-2.7448,-2.7715,-2.784,-2.781,-2.777,-2.757,-2.7448,-2.7155,-2.6725,-2.6079,-2.5549,-2.5239,-2.4469,-2.3857,-2.4039,-2.3936,-2.3307,-2.3152,-2.342,-2.3459,-2.3334,-2.3027,-2.2791,-2.2905,-2.3078,-2.3286,-2.3322,-2.3941,-2.4396,-2.4317,-2.4303,-4.8285,-4.8384,-4.8671,-4.8741,-4.8671,-4.8986,-4.9098,-4.9077,-4.9176,-4.9257,-4.9308,-4.9358,-4.934,-4.9292,-4.9176,-4.9127,-4.9164,-4.9047,-4.8942,-4.8703,-4.8057,-4.7115,-4.6252,-4.5357,-4.4441,-4.3825,-4.3375,-4.3268,-4.3356,-4.351,-4.366,-4.3749,-4.3857,-4.3777,-4.3631,-4.3548,-4.3496,-4.3268,-4.3013,-4.2768,-4.2516,-4.2254,-4.2002,-4.1481,-4.0538,-3.9477,-3.8362,-3.7279,-3.6262,-3.5408,-3.5261,-3.5261,-3.5178,-3.5459,-3.5666,-3.5446,-3.5101,-3.4659,-3.4309,-3.3843,-3.2668,-3.1779,-3.1526,-3.2003,-3.2107,-3.1994,-3.1857,-3.1562,-3.1219,-3.0955,-3.0984,-3.0984,-3.0673,-3.0343,-2.9899,-2.9429,-2.8845,-2.8233,-2.7906,-2.7619,-2.7437,-2.7325,-2.735,-2.7488,-2.76,-2.779,-2.77,-2.741,-2.7415,-2.74,-2.7338,-2.7188,-2.6773,-2.6287,-2.5756,-2.5268,-2.4755,-2.4297,-2.4219,-2.3946,-2.3097,-2.2795,-2.3027,-2.3226,-2.3355,-2.3022,-2.2681,-2.2493,-2.2571,-2.2829,-2.3105,-2.3435,-2.4024,-2.4486,-2.4572,-4.8044,-4.8434,-4.8301,-4.8123,-4.801,-4.8765,-4.9166,-4.9305,-4.934,-4.9321,-4.9355,-4.9456,-4.9437,-4.9371,-4.934,-4.9276,-4.9262,-4.9166,-4.9133,-4.9062,-4.8142,-4.722,-4.632,-4.5425,-4.4477,-4.3684,-4.3214,-4.3105,-4.3087,-4.3302,-4.3579,-4.3531,-4.3662,-4.3629,-4.3443,-4.3375,-4.3268,-4.3087,-4.292,-4.2767,-4.2634,-4.2476,-4.218,-4.1545,-4.0578,-3.9505,-3.826,-3.7193,-3.6185,-3.5559,-3.5245,-3.5291,-3.5238,-3.5248,-3.5328,-3.5164,-3.4908,-3.4489,-3.4095,-3.3634,-3.2797,-3.2305,-3.24,-3.1845,-3.1409,-3.1658,-3.165,-3.142,-3.1058,-3.0955,-3.0955,-3.1102,-3.0952,-3.0645,-3.0253,-2.9841,-2.9412,-2.8647,-2.7881,-2.7625,-2.7488,-2.7401,-2.7539,-2.765,-2.769,-2.788,-2.7805,-2.7395,-2.6912,-2.6986,-2.6817,-2.6783,-2.6337,-2.5912,-2.5923,-2.5477,-2.5218,-2.4898,-2.4658,-2.4112,-2.3397,-2.2951,-2.2606,-2.2867,-2.3096,-2.2987,-2.2728,-2.2555,-2.2456,-2.2588,-2.2809,-2.2908,-2.345,-2.4216,-2.4578,-4.743,-4.6927,-4.7352,-4.7801,-4.825,-4.8431,-4.8938,-4.951,-4.9529,-4.9529,-4.9544,-4.9589,-4.9589,-4.9529,-4.942,-4.9374,-4.9409,-4.9311,-4.9279,-4.8989,-4.8294,-4.7411,-4.6473,-4.5601,-4.4564,-4.3788,-4.3286,-4.3013,-4.3105,-4.3355,-4.3629,-4.3647,-4.3679,-4.3545,-4.3267,-4.3214,-4.3013,-4.2845,-4.2786,-4.267,-4.2591,-4.2289,-4.1937,-4.1028,-4.0008,-3.9114,-3.8053,-3.7138,-3.6356,-3.5723,-3.5543,-3.5509,-3.547,-3.5487,-3.5304,-3.5041,-3.4787,-3.4276,-3.3664,-3.3147,-3.2317,-3.1327,-3.0922,-3.0582,-3.0608,-3.1296,-3.157,-3.1261,-3.1087,-3.0999,-3.0999,-3.1189,-3.1258,-3.093,-3.0531,-3.019,-2.9858,-2.889,-2.7901,-2.7665,-2.7499,-2.759,-2.7765,-2.779,-2.7855,-2.7905,-2.7955,-2.7549,-2.6545,-2.6174,-2.5707,-2.559,-2.5418,-2.5207,-2.5491,-2.5713,-2.5463,-2.5211,-2.4941,-2.4335,-2.3631,-2.3277,-2.2945,-2.2778,-2.277,-2.2798,-2.2775,-2.2664,-2.2598,-2.2638,-2.2766,-2.2942,-2.3236,-2.3917,-2.4199,-4.7602,-4.7163,-4.74,-4.7675,-4.798,-4.8301,-4.8928,-4.9622,-4.9707,-4.9678,-4.9583,-4.9372,-4.93,-4.9426,-4.9276,-4.9374,-4.9465,-4.9483,-4.9452,-4.9165,-4.8658,-4.7724,-4.681,-4.5918,-4.4798,-4.3931,-4.3287,-4.3014,-4.3178,-4.3372,-4.356,-4.3679,-4.3646,-4.3458,-4.3195,-4.2976,-4.2787,-4.2595,-4.2571,-4.251,-4.245,-4.2223,-4.2011,-4.1106,-3.9966,-3.8955,-3.8006,-3.7108,-3.6118,-3.5718,-3.5571,-3.5644,-3.5644,-3.5667,-3.5441,-3.5078,-3.4673,-3.4071,-3.3221,-3.2455,-3.1791,-3.0908,-3.0683,-3.0838,-3.1071,-3.1692,-3.1842,-3.1625,-3.1682,-3.1625,-3.1444,-3.1554,-3.148,-3.1216,-3.0389,-2.971,-2.9254,-2.8593,-2.8063,-2.7949,-2.7875,-2.7965,-2.8014,-2.78,-2.7875,-2.8073,-2.8097,-2.7218,-2.6262,-2.576,-2.5149,-2.4754,-2.4789,-2.5082,-2.5604,-2.5778,-2.5723,-2.5441,-2.5292,-2.4361,-2.3643,-2.3484,-2.3291,-2.2993,-2.2834,-2.2849,-2.2812,-2.2729,-2.2692,-2.27,-2.2859,-2.3053,-2.337,-2.3646,-2.3931,-4.8077,-4.8058,-4.7633,-4.7518,-4.7566,-4.8137,-4.8988,-4.9784,-4.9816,-4.9807,-4.9631,-4.8758,-4.8867,-4.9027,-4.8905,-4.915,-4.9363,-4.9589,-4.9655,-4.9577,-4.9217,-4.8258,-4.733,-4.6427,-4.5057,-4.4036,-4.3393,-4.3303,-4.339,-4.3595,-4.3744,-4.3728,-4.356,-4.3354,-4.3123,-4.2883,-4.271,-4.2474,-4.2351,-4.2249,-4.2231,-4.216,-4.1819,-4.1075,-4.0034,-3.8825,-3.7816,-3.6853,-3.5678,-3.5639,-3.5667,-3.5795,-3.5861,-3.5844,-3.5453,-3.5091,-3.4642,-3.3826,-3.2886,-3.2175,-3.155,-3.1094,-3.133,-3.1504,-3.1665,-3.1898,-3.2053,-3.2135,-3.2206,-3.2074,-3.1918,-3.1695,-3.1597,-3.1367,-3.0349,-2.9372,-2.8848,-2.8387,-2.8299,-2.821,-2.8235,-2.8275,-2.8171,-2.7934,-2.7902,-2.8137,-2.764,-2.6657,-2.589,-2.5741,-2.5402,-2.5017,-2.4862,-2.5236,-2.5666,-2.5944,-2.5969,-2.6172,-2.5903,-2.4624,-2.3722,-2.3754,-2.357,-2.3094,-2.2978,-2.2933,-2.2902,-2.2834,-2.2806,-2.2844,-2.3068,-2.329,-2.3458,-2.3711,-2.3797,-4.8096,-4.7981,-4.657,-4.6616,-4.7597,-4.7798,-4.8631,-4.9813,-4.9857,-4.9816,-4.9476,-4.8479,-4.8137,-4.8809,-4.8761,-4.8838,-4.8869,-4.9426,-4.991,-4.994,-4.9305,-4.8589,-4.7584,-4.6255,-4.4931,-4.4112,-4.3662,-4.3728,-4.3695,-4.3923,-4.4131,-4.4131,-4.3974,-4.3712,-4.3407,-4.3069,-4.2634,-4.2394,-4.2061,-4.1892,-4.1909,-4.1584,-4.0781,-3.9944,-3.8933,-3.7612,-3.653,-3.587,-3.5701,-3.5756,-3.5949,-3.6058,-3.6101,-3.6041,-3.5655,-3.5098,-3.4633,-3.3907,-3.3039,-3.2321,-3.1757,-3.1633,-3.1779,-3.1736,-3.1995,-3.2422,-3.254,-3.2621,-3.2594,-3.2296,-3.2081,-3.1709,-3.1512,-3.1324,-3.0651,-2.9664,-2.8887,-2.8572,-2.8372,-2.8323,-2.8299,-2.8365,-2.8391,-2.8102,-2.7708,-2.7711,-2.7269,-2.6391,-2.6232,-2.5927,-2.5736,-2.5484,-2.5206,-2.5179,-2.5499,-2.615,-2.6352,-2.6629,-2.6535,-2.5414,-2.4627,-2.4264,-2.3961,-2.3407,-2.309,-2.2978,-2.297,-2.3112,-2.3135,-2.3216,-2.3377,-2.3551,-2.3696,-2.3797,-2.3903]},{"header":{"parameterUnit":"m.s-1","parameterCategory":1,"la1":31.0,"la2":29.5877,"lo1":-88.7671,"lo2":-86.6584,"dy":0.0162,"dx":0.0185,"nx":115,"ny":88,"refTime":"2025-05-25T00:00:00:Z","depth":0,"parameterNumber":3,"parameterNumberName":"V-component_of_WINDS"},"data":[0.0,0.0,0.0,0.0,0.0,0.0,0.0,0.0,0.0,0.0,0.0,0.0,0.0,0.0,0.0,0.0,0.0,0.0,0.0,0.0,0.0,0.0,0.0,0.0,0.0,0.0,0.0,0.0,0.0,0.0,0.0,0.0,0.0,0.0,0.0,0.0,0.0,0.0,0.0,0.0,0.0,0.0,0.0,0.0,0.0,0.0,0.0,0.0,0.0,0.0,0.0,0.0,0.0,0.0,0.0,0.0,0.0,0.0,0.0,0.0,0.0,0.0,0.0,0.0,0.0,0.0,0.0,0.0,0.0,0.0,0.0,0.0,0.0,0.0,0.0,0.0,0.0,0.0,0.0,0.0,0.0,0.0,0.0,0.0,0.0,0.0,0.0,0.0,0.0,0.0,0.0,0.0,0.0,0.0,0.0,0.0,0.0,0.0,0.0,0.0,0.0,0.0,0.0,0.0,0.0,0.0,0.0,0.0,0.0,0.0,0.0,0.0,0.0,0.0,0.0,0.0,0.0,0.0,0.0,0.0,0.0,0.0,0.0,0.0,0.0,0.0,0.0,0.0,0.0,0.0,0.0,0.0,0.0,0.0,0.0,0.0,0.0,0.0,0.0,0.0,0.0,0.0,0.0,0.0,0.0,0.0,0.0,0.0,0.0,0.0,0.0,0.0,0.0,0.0,0.0,0.0,0.0,0.0,0.0,0.0,0.0,0.0,0.0,0.0,0.0,0.0,0.0,0.0,0.0,0.0,0.0,0.0,0.0,0.0,0.0,0.0,0.0,0.0,0.0,0.0,0.0,0.0,0.0,0.0,0.0,0.0,0.0,0.0,0.0,0.0,0.0,0.0,0.0,0.0,0.0,0.0,0.0,0.0,0.0,0.0,0.0,0.0,0.0,0.0,0.0,0.0,0.0,0.0,0.0,0.0,0.0,0.0,0.0,0.0,0.0,0.0,0.0,0.0,0.0,0.0,0.0,0.0,0.0,0.0,0.0,0.0,0.0,0.0,0.0,0.0,0.0,0.0,0.0,0.0,0.0,0.0,0.0,0.0,0.0,0.0,0.0,0.0,0.0,0.0,0.0,0.0,0.0,0.0,0.0,0.0,0.0,0.0,0.0,0.0,0.0,0.0,0.0,0.0,0.0,0.0,0.0,0.0,0.0,0.0,0.0,0.0,0.0,0.0,0.0,0.0,0.0,0.0,0.0,0.0,0.0,0.0,0.0,0.0,0.0,0.0,0.0,0.0,0.0,0.0,0.0,0.0,0.0,0.0,0.0,0.0,0.0,0.0,0.0,0.0,0.0,0.0,0.0,0.0,0.0,0.0,0.0,0.0,0.0,0.0,0.0,0.0,0.0,0.0,0.0,0.0,0.0,0.0,0.0,0.0,0.0,0.0,0.0,0.0,0.0,0.0,0.0,0.0,0.0,0.0,0.0,0.0,0.0,0.0,0.0,0.0,0.0,0.0,0.0,0.0,0.0,0.0,0.0,0.0,0.0,0.0,0.0,0.0,0.0,0.0,0.0,0.0,0.0,0.0,0.0,0.0,0.0,0.0,0.0,0.0,0.0,0.0,0.0,0.0,0.0,0.0,0.0,0.0,0.0,0.0,0.0,0.0,0.0,0.0,0.0,0.0,0.0,0.0,0.0,0.0,0.0,0.0,0.0,0.0,0.0,0.0,0.0,0.0,0.0,0.0,0.0,0.0,0.0,0.0,0.0,0.0,0.0,0.0,0.0,0.0,0.0,0.0,0.0,0.0,0.0,0.0,0.0,0.0,0.0,0.0,0.0,0.0,0.0,0.0,0.0,0.0,0.0,0.0,0.0,0.0,0.0,0.0,0.0,0.0,0.0,0.0,0.0,0.0,0.0,0.0,0.0,0.0,0.0,0.0,0.0,0.0,0.0,0.0,0.0,0.0,0.0,0.0,0.0,0.0,0.0,0.0,0.0,0.0,0.0,0.0,0.0,0.0,0.0,0.0,0.0,0.0,0.0,0.0,0.0,0.0,0.0,0.0,0.0,0.0,0.0,0.0,0.0,0.0,0.0,0.0,0.0,0.0,0.0,0.0,0.0,0.0,0.0,0.0,0.0,0.0,0.0,0.0,0.0,0.0,0.0,0.0,0.0,0.0,0.0,0.0,0.0,0.0,0.0,0.0,0.0,0.0,0.0,0.0,0.0,0.0,0.0,0.0,0.0,0.0,0.0,0.0,0.0,0.0,0.0,0.0,0.0,0.0,0.0,0.0,0.0,0.0,0.0,0.0,0.0,0.0,0.0,0.0,0.0,0.0,0.0,0.0,0.0,0.0,0.0,0.0,0.0,0.0,0.0,0.0,0.0,0.0,0.0,0.0,0.0,0.0,0.0,0.0,0.0,0.0,0.0,0.0,0.0,0.0,0.0,0.0,0.0,0.0,0.0,0.0,0.0,0.0,0.0,0.0,0.0,0.0,0.0,0.0,0.0,0.0,0.0,0.0,0.0,0.0,0.0,0.0,0.0,0.0,0.0,0.0,0.0,0.0,0.0,0.0,0.0,0.0,0.0,0.0,0.0,0.0,0.0,0.0,0.0,0.0,0.0,0.0,0.0,0.0,0.0,0.0,0.0,0.0,0.0,0.0,0.0,0.0,0.0,0.0,0.0,0.0,0.0,0.0,0.0,0.0,0.0,0.0,0.0,0.0,0.0,0.0,0.0,0.0,0.0,0.0,0.0,0.0,0.0,0.0,0.0,0.0,0.0,0.0,0.0,0.0,0.0,0.0,0.0,0.0,0.0,0.0,0.0,0.0,0.0,0.0,0.0,0.0,0.0,0.0,0.0,0.0,0.0,0.0,0.0,0.0,0.0,0.0,0.0,0.0,0.0,0.0,0.0,0.0,0.0,0.0,0.0,0.0,0.0,0.0,0.0,0.0,0.0,0.0,0.0,0.0,0.0,0.0,0.0,0.0,0.0,0.0,0.0,0.0,0.0,0.0,0.0,0.0,0.0,0.0,0.0,0.0,0.0,0.0,0.0,0.0,0.0,0.0,0.0,0.0,0.0,0.0,0.0,0.0,0.0,0.0,0.0,0.0,0.0,0.0,0.0,0.0,0.0,0.0,0.0,0.0,0.0,0.0,0.0,0.0,0.0,0.0,0.0,0.0,0.0,0.0,0.0,0.0,0.0,0.0,0.0,0.0,0.0,0.0,0.0,0.0,0.0,0.0,0.0,0.0,0.0,0.0,0.0,0.0,0.0,0.0,0.0,0.0,0.0,0.0,0.0,0.0,0.0,0.0,0.0,0.0,0.0,0.0,0.0,0.0,0.0,0.0,0.0,0.0,0.0,0.0,0.0,0.0,0.0,0.0,0.0,0.0,0.0,0.0,0.0,0.0,0.0,0.0,0.0,0.0,0.0,0.0,0.0,0.0,0.0,0.0,0.0,0.0,0.0,0.0,0.0,0.0,0.0,0.0,0.0,0.0,0.0,0.0,0.0,0.0,0.0,0.0,0.0,0.0,0.0,0.0,0.0,0.0,0.0,0.0,0.0,0.0,0.0,0.0,0.0,0.0,0.0,0.0,0.0,0.0,0.0,0.0,0.0,0.0,0.0,0.0,0.0,0.0,0.0,0.0,0.0,0.0,0.0,0.0,0.0,0.0,0.0,0.0,0.0,0.0,0.0,0.0,0.0,0.0,0.0,0.0,0.0,0.0,0.0,0.0,0.0,0.0,0.0,0.0,0.0,0.0,0.0,0.0,0.0,0.0,0.0,0.0,0.0,0.0,0.0,0.0,0.0,0.0,0.0,0.0,0.0,0.0,0.0,0.0,0.0,0.0,0.0,0.0,0.0,0.0,0.0,0.0,0.0,0.0,0.0,0.0,0.0,0.0,0.0,0.0,0.0,0.0,0.0,0.0,0.0,0.0,0.0,0.0,0.0,0.0,0.0,0.0,0.0,0.0,0.0,0.0,0.0,0.0,0.0,0.0,0.0,0.0,0.0,0.0,0.0,0.0,0.0,0.0,0.0,0.0,0.0,0.0,0.0,0.0,0.0,0.0,0.0,0.0,0.0,0.0,0.0,0.0,0.0,0.0,0.0,0.0,0.0,0.0,0.0,0.0,0.0,0.0,0.0,0.0,0.0,0.0,0.0,0.0,0.0,0.0,0.0,0.0,0.0,0.0,0.0,0.0,0.0,0.0,0.0,0.0,0.0,0.0,0.0,0.0,0.0,0.0,0.0,0.0,0.0,0.0,0.0,0.0,0.0,0.0,0.0,0.0,0.0,0.0,0.0,0.0,-0.4521,0.0,0.0,0.0,0.0,0.0,0.0,0.0,0.0,0.0,0.0,0.0,0.0,0.0,0.0,0.0,0.0,0.0,0.0,0.0,0.0,0.0,0.0,0.0,0.0,0.0,0.0,0.0,0.0,0.0,0.0,0.0,0.0,0.0,0.0,0.0,0.0,0.0,0.0,0.0,0.0,0.0,0.0,0.0,0.0,0.0,0.0,0.0,0.0,0.0,0.0,0.0,0.0,0.0,0.0,0.0,0.0,0.0,0.0,0.0,0.0,0.0,0.0,0.0,0.0,0.0,0.0,0.0,0.0,0.0,0.0,0.0,0.0,0.0,0.0,0.0,0.0,0.0,0.0,0.0,0.0,0.0,0.0,0.0,0.0,0.0,0.0,0.0,0.0,0.0,0.0,0.0,0.0,0.0,0.0,0.0,0.0,0.0,0.0,0.0,0.0,0.0,0.0,0.0,0.0,0.0,0.0,0.0,0.0,0.0,0.0,-0.6079,-0.618,-0.5461,-0.4953,-0.4639,0.0,0.0,0.0,0.0,0.0,0.0,0.0,0.0,0.0,0.0,0.0,0.0,0.0,0.0,0.0,0.0,0.0,0.0,0.0,0.0,0.0,0.0,0.0,0.0,0.0,0.0,0.0,0.0,0.0,0.0,0.0,0.0,0.0,0.0,0.0,0.0,0.0,0.0,0.0,0.0,0.0,0.0,0.0,0.0,0.0,0.0,0.0,0.0,0.0,0.0,0.0,0.0,0.0,0.0,0.0,0.0,0.0,0.0,0.0,0.0,0.0,0.0,0.0,0.0,0.0,0.0,0.0,0.0,0.0,0.0,0.0,0.0,0.0,0.0,0.0,0.0,0.0,0.0,0.0,0.0,0.0,0.0,0.0,0.0,0.0,0.0,0.0,0.0,0.0,0.0,0.0,0.0,0.0,0.0,0.0,0.0,0.0,0.0,0.0,0.0,0.0,0.0,0.0,0.0,0.0,0.0,0.0,0.0,0.0,0.0,0.0,0.0,-0.5711,-0.5042,-0.4442,0.0,0.0,0.0,0.0,0.0,0.0,0.0,0.0,0.0,0.0,0.0,0.0,0.0,0.0,0.0,0.0,0.0,0.0,0.0,0.0,0.0,0.0,0.0,0.0,0.0,0.0,0.0,0.0,0.0,0.0,0.0,0.0,0.0,0.0,0.0,0.0,0.0,0.0,0.0,0.0,0.0,0.0,0.0,0.0,0.0,0.0,0.0,0.0,0.0,0.0,0.0,0.0,0.0,0.0,0.0,0.0,0.0,0.0,0.0,0.0,0.0,0.0,0.0,0.0,0.0,0.0,0.0,0.0,0.0,0.0,0.0,0.0,0.0,0.0,0.0,0.0,0.0,0.0,0.0,0.0,0.0,0.0,0.0,0.0,0.0,0.0,0.0,0.0,0.0,0.0,0.0,0.0,0.0,0.0,0.0,0.0,0.0,0.0,0.0,0.0,0.0,0.0,0.0,0.0,0.0,0.0,0.0,0.0,0.0,0.0,-0.636,-0.7238,-0.6056,0.0,-0.3773,0.0,0.0,0.0,0.0,0.0,0.0,0.0,0.0,0.0,0.0,0.0,0.0,0.0,0.0,0.0,0.0,0.0,0.0,0.0,0.0,0.0,0.0,0.0,0.0,0.0,0.0,0.0,0.0,0.0,0.0,0.0,0.0,0.0,0.0,0.0,0.0,0.0,0.0,0.0,0.0,0.0,0.0,0.0,0.0,0.0,0.0,0.0,0.0,0.0,0.0,0.0,0.0,0.0,0.0,0.0,0.0,0.0,0.0,0.0,0.0,0.0,0.0,0.0,0.0,0.0,0.0,0.0,0.0,0.0,0.0,0.0,0.0,0.0,0.0,0.0,0.0,0.0,0.0,0.0,0.0,0.0,0.0,0.0,0.0,0.0,0.0,0.0,0.0,0.0,0.0,0.0,0.0,0.0,0.0,0.0,0.0,0.0,0.0,0.0,0.0,0.0,0.0,0.0,0.0,0.0,0.0,0.0,0.0,0.0,0.0,-0.6697,-0.7032,-0.5943,-0.4897,0.0,0.0,0.0,0.0,0.0,0.0,0.0,0.0,0.0,0.0,0.0,0.0,0.0,0.0,0.0,0.0,0.0,0.0,0.0,0.0,0.0,0.0,0.0,0.0,0.0,0.0,0.0,0.0,0.0,0.0,0.0,0.0,0.0,0.0,0.0,0.0,0.0,0.0,0.0,0.0,0.0,0.0,0.0,0.0,0.0,0.0,0.0,0.0,0.0,0.0,0.0,0.0,0.0,0.0,0.0,0.0,0.0,0.0,0.0,0.0,0.0,0.0,0.0,0.0,0.0,0.0,0.0,0.0,0.0,0.0,0.0,0.0,0.0,0.0,0.0,0.0,0.0,0.0,0.0,0.0,0.0,0.0,0.0,0.0,0.0,0.0,0.0,0.0,0.0,0.0,0.0,0.0,0.0,0.0,0.0,0.0,0.0,0.0,0.0,0.0,0.0,0.0,0.0,0.0,0.0,0.0,0.0,0.0,0.0,0.0,-0.7096,-0.6771,-0.6424,-0.5724,-0.4946,-0.4049,0.0,0.0,0.0,0.0,0.0,0.0,0.0,0.0,0.0,0.0,0.0,0.0,0.0,0.0,0.0,0.0,0.0,0.0,0.0,0.0,0.0,0.0,0.0,0.0,0.0,0.0,0.0,0.0,0.0,0.0,0.0,0.0,0.0,0.0,0.0,0.0,0.0,0.0,0.0,0.0,0.0,0.0,0.0,0.0,0.0,0.0,0.0,0.0,0.0,0.0,0.0,0.0,0.0,0.0,0.0,0.0,0.0,0.0,0.0,0.0,0.0,0.0,0.0,0.0,0.0,0.0,0.0,0.0,0.0,0.0,0.0,0.0,0.0,0.0,0.0,0.0,0.0,0.0,0.0,0.0,0.0,0.0,0.0,0.0,0.0,0.0,0.0,0.0,0.0,0.0,0.0,0.0,0.0,0.0,0.0,0.0,0.0,0.0,0.0,0.0,0.0,0.0,0.0,0.0,0.0,0.0,0.0,0.0,0.0,-0.7272,-0.6335,-0.5609,-0.5516,-0.4901,0.0,0.0,0.0,0.0,0.0,0.0,0.0,0.0,0.0,0.0,0.0,0.0,0.0,0.0,0.0,0.0,0.0,0.0,0.0,0.0,0.0,0.0,0.0,0.0,0.0,0.0,0.0,0.0,0.0,0.0,0.0,0.0,0.0,0.0,0.0,0.0,0.0,0.0,0.0,0.0,0.0,0.0,0.0,0.0,0.0,0.0,0.0,0.0,0.0,0.0,0.0,0.0,0.0,0.0,0.0,0.0,0.0,0.0,0.0,0.0,0.0,0.0,0.0,0.0,0.0,0.0,0.0,0.0,0.0,0.0,0.0,0.0,0.0,0.0,0.0,0.0,0.0,0.0,0.0,0.0,0.0,0.0,0.0,0.0,0.0,0.0,0.0,0.0,0.0,0.0,0.0,0.0,0.0,0.0,0.0,0.0,0.0,0.0,0.0,0.0,0.0,0.0,0.0,0.0,0.0,0.0,0.0,0.0,0.0,-0.6712,-0.6054,-0.5708,-0.5792,-0.5031,-0.4477,0.0,0.0,0.0,0.0,0.0,0.0,0.0,0.0,0.0,0.0,0.0,0.0,0.0,0.0,0.0,0.0,0.0,0.0,0.0,0.0,0.0,0.0,0.0,0.0,0.0,0.0,0.0,0.0,0.0,0.0,0.0,0.0,0.0,0.0,0.0,0.0,0.0,0.0,0.0,0.0,0.0,0.0,0.0,0.0,0.0,0.0,0.0,0.0,0.0,0.0,0.0,0.0,0.0,0.0,0.0,0.0,0.0,0.0,0.0,0.0,0.0,0.0,0.0,0.0,0.0,0.0,0.0,0.0,0.0,0.0,0.0,0.0,0.0,0.0,0.0,0.0,0.0,0.0,0.0,0.0,0.0,0.0,0.0,0.0,0.0,0.0,0.0,0.0,0.0,0.0,0.0,0.0,0.0,0.0,0.0,0.0,0.0,0.0,0.0,0.0,0.0,0.0,0.0,0.0,0.0,0.0,0.0,0.0,0.0,-0.5996,0.0,-0.5551,0.0,-0.4773,-0.4256,0.0,0.0,0.0,0.0,0.0,0.0,0.0,0.0,0.0,0.0,0.0,0.0,0.0,0.0,0.0,0.0,0.0,0.0,0.0,0.0,0.0,0.0,0.0,0.0,0.0,0.0,0.0,0.0,0.0,0.0,0.0,0.0,0.0,0.0,0.0,0.0,0.0,0.0,0.0,0.0,0.0,0.0,0.0,0.0,0.0,0.0,0.0,0.0,0.0,0.0,0.0,0.0,0.0,0.0,0.0,0.0,0.0,0.0,0.0,0.0,0.0,0.0,0.0,0.0,0.0,0.0,0.0,0.0,0.0,0.0,0.0,0.0,0.0,0.0,0.0,0.0,0.0,0.0,0.0,0.0,0.0,0.0,0.0,0.0,0.0,0.0,0.0,0.0,0.0,0.0,0.0,0.0,0.0,0.0,0.0,0.0,0.0,0.0,0.0,0.0,0.0,0.0,0.0,0.0,0.0,0.0,0.0,0.0,-0.6297,-0.6457,-0.6454,-0.5887,-0.4681,-0.4786,-0.4213,0.0,0.0,0.0,0.0,0.0,0.0,0.0,0.0,0.0,0.0,0.0,0.0,0.0,0.0,0.0,0.0,0.0,0.0,0.0,0.0,0.0,0.0,0.0,0.0,0.0,0.0,0.0,0.0,0.0,0.0,0.0,0.0,0.0,0.0,0.0,0.0,0.0,0.0,0.0,0.0,0.0,0.0,0.0,0.0,0.0,0.0,0.0,0.0,0.0,0.0,0.0,0.0,0.0,0.0,0.0,0.0,0.0,0.0,0.0,0.0,0.0,0.0,0.0,0.0,0.0,0.0,0.0,0.0,0.0,0.0,0.0,0.0,0.0,0.0,0.0,0.0,0.0,0.0,0.0,0.0,0.0,0.0,0.0,0.0,0.0,0.0,0.0,0.0,0.0,0.0,0.0,0.0,0.0,0.0,0.0,0.0,0.0,0.0,0.0,0.0,0.0,0.0,0.0,0.0,0.0,0.0,0.0,0.0,0.0,-0.5766,-0.6023,-0.6022,-0.5749,-0.4663,-0.4048,0.0,0.0,0.0,0.0,0.0,0.0,0.0,0.0,0.0,0.0,0.0,0.0,0.0,0.0,0.0,0.0,0.0,0.0,0.0,0.0,0.0,0.0,0.0,0.0,0.0,0.0,0.0,0.0,0.0,0.0,0.0,0.0,0.0,0.0,0.0,0.0,0.0,0.0,0.0,0.0,0.0,0.0,0.0,0.0,0.0,0.0,0.0,0.0,0.0,0.0,0.0,0.0,0.0,0.0,0.0,0.0,0.0,0.0,0.0,0.0,0.0,0.0,0.0,0.0,0.0,0.0,0.0,0.0,0.0,0.0,0.0,0.0,0.0,0.0,0.0,0.0,0.0,0.0,0.0,0.0,0.0,0.0,0.0,0.0,0.0,0.0,0.0,0.0,0.0,0.0,0.0,0.0,0.0,0.0,0.0,0.0,0.0,0.0,0.0,0.0,0.0,0.0,0.0,0.0,0.0,0.0,0.0,0.0,0.0,-0.6687,-0.6719,-0.6611,-0.6308,-0.4966,-0.4164,-0.3942,0.0,0.0,0.0,0.0,0.0,0.0,0.0,0.0,0.0,0.0,0.0,0.0,0.0,0.0,0.0,0.0,0.0,0.0,0.0,0.0,0.0,0.0,0.0,0.0,0.0,0.0,0.0,0.0,0.0,0.0,0.0,0.0,0.0,0.0,0.0,0.0,0.0,0.0,0.0,0.0,0.0,0.0,0.0,0.0,0.0,0.0,0.0,0.0,0.0,0.0,0.0,0.0,0.0,0.0,0.0,0.0,0.0,0.0,0.0,0.0,0.0,0.0,0.0,0.0,0.0,0.0,0.0,0.0,0.0,0.0,0.0,0.0,0.0,0.0,0.0,0.0,0.0,0.0,0.0,0.0,0.0,0.0,0.0,0.0,0.0,0.0,0.0,0.0,0.0,0.0,0.0,0.0,0.0,0.0,0.0,0.0,0.0,0.0,0.0,0.0,0.0,0.0,0.0,0.0,0.0,0.0,0.0,0.0,-0.8867,-0.8468,-0.7712,-0.652,-0.5669,-0.4573,0.0,0.0,0.0,0.0,0.0,0.0,0.0,0.0,0.0,0.0,0.0,0.0,0.0,0.0,0.0,0.0,0.0,0.0,0.0,0.0,0.0,0.0,0.0,0.0,0.0,0.0,0.0,0.0,0.0,0.0,0.0,0.0,0.0,0.0,0.0,0.0,0.0,0.0,0.0,0.0,0.0,0.0,0.0,0.0,0.0,0.0,0.0,0.0,0.0,0.0,0.0,0.0,0.0,0.0,0.0,0.0,0.0,0.0,0.0,0.0,0.0,0.0,0.0,0.0,0.0,0.0,0.0,0.0,0.0,0.0,0.0,0.0,0.0,0.0,0.0,0.0,0.0,0.0,0.0,0.0,0.0,0.0,0.0,0.0,0.0,0.0,0.0,0.0,0.0,0.0,0.0,0.0,0.0,0.0,0.0,0.0,0.0,0.0,0.0,0.0,0.0,0.0,0.0,0.0,0.0,0.0,0.0,0.0,0.0,-0.9827,-1.0763,-1.0352,-0.8488,-0.6725,-0.5472,0.0,0.0,0.0,0.0,0.0,0.0,0.0,0.0,0.0,0.0,0.0,0.0,0.0,0.0,0.0,0.0,0.0,0.0,0.0,0.0,0.0,0.0,0.0,0.0,0.0,0.0,0.0,0.0,0.0,0.0,0.0,0.0,0.0,0.0,0.0,0.0,0.0,0.0,0.0,0.0,0.0,0.0,0.0,0.0,0.0,0.0,0.0,0.0,0.0,0.0,0.0,0.0,0.0,0.0,0.0,0.0,0.0,0.0,0.0,0.0,0.0,0.0,0.0,0.0,0.0,0.0,0.0,0.0,0.0,0.0,0.0,0.0,0.0,0.0,0.0,0.0,0.0,0.0,0.0,0.0,0.0,0.0,0.0,0.0,0.0,0.0,0.0,0.0,0.0,0.0,0.0,0.0,0.0,0.0,0.0,0.0,0.0,0.0,0.0,0.0,0.0,0.0,0.0,0.0,0.0,0.0,0.0,0.0,-1.0587,-1.1427,-1.2518,-1.2196,-1.0238,-0.8259,-0.6501,0.0,0.0,0.0,0.0,0.0,0.0,0.0,0.0,0.0,0.0,0.0,0.0,0.0,0.0,0.0,0.0,0.0,0.0,0.0,0.0,0.0,0.0,0.0,0.0,0.0,0.0,0.0,0.0,0.0,0.0,0.0,0.0,0.0,0.0,0.0,0.0,0.0,0.0,0.0,0.0,0.0,0.0,0.0,0.0,0.0,0.0,0.0,0.0,0.0,0.0,0.0,0.0,0.0,0.0,0.0,0.0,0.0,0.0,0.0,0.0,0.0,0.0,0.0,0.0,0.0,0.0,0.0,0.0,0.0,0.0,0.0,0.0,0.0,0.0,0.0,0.0,0.0,0.0,0.0,0.0,0.0,0.0,0.0,0.0,0.0,0.0,0.0,0.0,0.0,0.0,0.0,0.0,0.0,0.0,0.0,0.0,0.0,0.0,0.0,0.0,0.0,0.0,0.0,0.0,0.0,0.0,0.0,0.0,-1.1971,-1.3175,-1.3939,-1.3467,-1.1706,-0.9906,-0.7591,0.0,0.0,0.0,0.0,0.0,0.0,0.0,0.0,0.0,0.0,0.0,0.0,0.0,0.0,0.0,0.0,0.0,0.0,0.0,0.0,0.0,0.0,0.0,0.0,0.0,0.0,0.0,0.0,0.0,0.0,0.0,0.0,0.0,0.0,0.0,0.0,0.0,0.0,0.0,0.0,0.0,0.0,0.0,0.0,0.0,0.0,0.0,0.0,0.0,0.0,0.0,0.0,0.0,0.0,0.0,0.0,0.0,0.0,0.0,0.0,0.0,0.0,0.0,0.0,0.0,0.0,0.0,0.0,0.0,0.0,0.0,0.0,0.0,0.0,0.0,0.0,0.0,0.0,0.0,0.0,0.0,0.0,0.0,0.0,0.0,0.0,0.0,0.0,0.0,0.0,0.0,0.0,0.0,0.0,0.0,0.0,0.0,0.0,0.0,0.0,0.0,0.0,0.0,0.0,0.0,0.0,0.0,0.0,-1.3695,-1.3974,-1.5076,-1.4529,-1.2122,-1.0196,-0.827,0.0,0.0,0.0,0.0,0.0,0.0,0.0,0.0,0.0,0.0,0.0,0.0,0.0,0.0,0.0,0.0,0.0,0.0,0.0,0.0,0.0,0.0,0.0,0.0,0.0,0.0,0.0,0.0,0.0,0.0,0.0,0.0,0.0,0.0,0.0,0.0,0.0,0.0,0.0,0.0,0.0,0.0,0.0,0.0,0.0,0.0,0.0,0.0,-1.0249,0.0,0.0,0.0,0.0,0.0,0.0,0.0,0.0,0.0,0.0,0.0,0.0,0.0,0.0,0.0,0.0,0.0,0.0,0.0,0.0,0.0,0.0,0.0,0.0,0.0,0.0,0.0,0.0,0.0,0.0,0.0,0.0,0.0,0.0,0.0,0.0,0.0,0.0,0.0,0.0,0.0,0.0,0.0,0.0,0.0,0.0,0.0,0.0,0.0,0.0,0.0,0.0,0.0,0.0,0.0,0.0,0.0,0.0,0.0,-1.4678,-1.5017,-1.594,-1.5202,-1.2734,-1.1528,-0.9557,0.0,0.0,0.0,0.0,0.0,0.0,0.0,0.0,0.0,0.0,0.0,0.0,0.0,0.0,0.0,0.0,0.0,0.0,0.0,0.0,0.0,0.0,0.0,0.0,0.0,0.0,0.0,0.0,0.0,0.0,0.0,0.0,0.0,0.0,0.0,0.0,0.0,0.0,0.0,0.0,0.0,0.0,0.0,0.0,0.0,0.0,0.0,0.0,0.0,0.0,0.0,0.0,0.0,0.0,0.0,0.0,0.0,0.0,0.0,0.0,0.0,0.0,0.0,0.0,0.0,0.0,0.0,0.0,0.0,0.0,0.0,0.0,0.0,0.0,0.0,0.0,0.0,0.0,0.0,0.0,0.0,0.0,0.0,0.0,0.0,0.0,0.0,0.0,0.0,0.0,0.0,0.0,0.0,0.0,0.0,0.0,0.0,0.0,0.0,0.0,0.0,0.0,0.0,0.0,0.0,0.0,0.0,-1.387,-1.5281,-1.6226,-1.6749,-1.5822,-1.3415,-1.3297,-1.1143,-0.6681,0.0,0.0,0.0,0.0,0.0,0.0,0.0,0.0,0.0,0.0,0.0,0.0,0.0,0.0,0.0,0.0,0.0,0.0,0.0,0.0,0.0,0.0,0.0,0.0,0.0,0.0,0.0,0.0,0.0,0.0,0.0,0.0,0.0,0.0,0.0,0.0,0.0,0.0,-0.997,-1.1354,0.0,0.0,0.0,0.0,0.0,0.0,0.0,0.0,-0.9779,0.0,0.0,0.0,0.0,0.0,0.0,0.0,0.0,0.0,0.0,0.0,0.0,0.0,0.0,0.0,0.0,0.0,0.0,0.0,0.0,0.0,0.0,0.0,0.0,0.0,0.0,0.0,0.0,0.0,0.0,0.0,0.0,0.0,0.0,0.0,0.0,0.0,0.0,0.0,0.0,0.0,0.0,0.0,0.0,0.0,0.0,0.0,0.0,0.0,0.0,0.0,0.0,0.0,0.0,0.0,0.0,-1.3101,-1.4235,-1.5781,-1.7761,-1.7908,-1.6773,-1.4328,-1.499,-1.284,-0.7623,0.0,0.0,0.0,0.0,0.0,0.0,0.0,0.0,0.0,0.0,0.0,0.0,0.0,0.0,0.0,0.0,0.0,0.0,0.0,0.0,0.0,0.0,0.0,0.0,0.0,0.0,0.0,0.0,0.0,0.0,0.0,0.0,0.0,0.0,0.0,0.0,0.0,0.0,0.0,-1.1465,-1.2495,0.0,0.0,0.0,0.0,0.0,0.0,0.0,0.0,-1.0211,0.0,0.0,0.0,0.0,0.0,0.0,0.0,0.0,0.0,0.0,0.0,0.0,0.0,0.0,0.0,0.0,0.0,0.0,0.0,0.0,0.0,0.0,0.0,0.0,0.0,0.0,0.0,0.0,0.0,0.0,0.0,0.0,0.0,0.0,0.0,0.0,0.0,0.0,0.0,0.0,0.0,0.0,0.0,0.0,0.0,0.0,0.0,0.0,0.0,0.0,0.0,0.0,0.0,0.0,0.0,-1.3576,-1.5529,-1.7096,-1.8279,-1.8889,-1.84,-1.6756,-1.4865,-1.2871,0.0,0.0,0.0,0.0,0.0,0.0,0.0,0.0,0.0,0.0,0.0,0.0,0.0,0.0,0.0,0.0,0.0,0.0,0.0,0.0,0.0,0.0,0.0,0.0,0.0,0.0,0.0,0.0,0.0,0.0,0.0,0.0,0.0,0.0,0.0,0.0,0.0,0.0,0.0,0.0,-1.1023,-1.1848,-1.2372,0.0,0.0,0.0,0.0,0.0,0.0,-1.1509,-1.1017,0.0,0.0,0.0,0.0,0.0,0.0,0.0,0.0,0.0,0.0,0.0,0.0,0.0,0.0,0.0,0.0,0.0,0.0,0.0,0.0,0.0,0.0,0.0,0.0,0.0,0.0,0.0,0.0,0.0,0.0,0.0,0.0,0.0,0.0,0.0,0.0,0.0,0.0,0.0,0.0,0.0,0.0,0.0,0.0,0.0,0.0,0.0,0.0,0.0,0.0,0.0,0.0,0.0,0.0,0.0,-1.4329,-1.6802,-1.8454,-1.9222,-2.0135,-2.024,-1.9464,-1.6066,-1.3956,0.0,0.0,0.0,0.0,0.0,0.0,0.0,0.0,0.0,0.0,0.0,0.0,0.0,0.0,0.0,0.0,0.0,0.0,0.0,0.0,0.0,0.0,0.0,0.0,0.0,0.0,0.0,0.0,0.0,0.0,0.0,0.0,0.0,0.0,0.0,0.0,0.0,0.0,0.0,0.0,0.0,-1.1652,-1.2295,-1.1387,0.0,0.0,0.0,0.0,-1.2699,-1.2396,0.0,0.0,0.0,0.0,0.0,0.0,0.0,0.0,0.0,0.0,0.0,0.0,0.0,0.0,0.0,0.0,0.0,0.0,0.0,0.0,0.0,0.0,0.0,0.0,0.0,0.0,0.0,0.0,0.0,0.0,0.0,0.0,0.0,0.0,0.0,0.0,0.0,0.0,0.0,0.0,0.0,0.0,0.0,0.0,0.0,0.0,0.0,0.0,0.0,0.0,0.0,0.0,0.0,0.0,0.0,0.0,-1.5741,-1.7278,-1.9318,-2.1878,-2.2204,-2.2053,-2.1504,-2.1843,-1.8772,0.0,0.0,0.0,0.0,0.0,0.0,0.0,0.0,0.0,0.0,0.0,0.0,0.0,0.0,0.0,0.0,0.0,0.0,0.0,0.0,0.0,0.0,0.0,0.0,0.0,0.0,0.0,0.0,0.0,0.0,0.0,0.0,0.0,0.0,0.0,0.0,0.0,0.0,0.0,0.0,0.0,-1.3072,-1.278,-1.2548,-1.2261,0.0,0.0,-1.2625,-1.2935,-1.3521,0.0,0.0,0.0,0.0,0.0,0.0,0.0,0.0,0.0,0.0,0.0,0.0,0.0,0.0,0.0,0.0,0.0,0.0,0.0,0.0,0.0,0.0,0.0,0.0,0.0,0.0,0.0,0.0,0.0,0.0,0.0,0.0,0.0,0.0,0.0,0.0,0.0,0.0,0.0,0.0,0.0,0.0,0.0,0.0,0.0,0.0,0.0,0.0,0.0,0.0,0.0,0.0,0.0,0.0,0.0,-1.4161,-1.7071,-1.9455,-2.1592,-2.3431,-2.3737,-2.3999,-2.4355,-2.1488,-1.821,0.0,0.0,0.0,0.0,0.0,0.0,0.0,0.0,0.0,0.0,0.0,0.0,0.0,0.0,0.0,0.0,0.0,0.0,0.0,0.0,0.0,0.0,0.0,0.0,0.0,0.0,0.0,0.0,0.0,0.0,0.0,0.0,0.0,0.0,0.0,0.0,0.0,0.0,0.0,0.0,0.0,0.0,-1.3615,-1.3246,0.0,0.0,0.0,-1.343,-1.4731,0.0,0.0,0.0,0.0,0.0,0.0,0.0,0.0,0.0,0.0,0.0,0.0,0.0,0.0,0.0,0.0,0.0,0.0,0.0,0.0,0.0,0.0,0.0,0.0,0.0,0.0,0.0,0.0,0.0,0.0,0.0,0.0,0.0,0.0,0.0,0.0,0.0,0.0,0.0,0.0,0.0,0.0,0.0,0.0,0.0,0.0,0.0,0.0,0.0,0.0,0.0,0.0,0.0,0.0,0.0,0.0,0.0,-1.8578,-2.1643,-2.3811,-2.4963,-2.5252,-2.5867,-2.6725,-2.2031,0.0,0.0,0.0,0.0,0.0,0.0,0.0,0.0,0.0,0.0,0.0,0.0,0.0,0.0,0.0,0.0,0.0,0.0,0.0,0.0,0.0,0.0,0.0,0.0,0.0,0.0,0.0,-0.7112,0.0,0.0,0.0,0.0,0.0,0.0,0.0,0.0,0.0,0.0,0.0,0.0,0.0,0.0,-1.3584,-1.4301,-1.4177,-1.4422,0.0,0.0,-1.466,-1.6464,-1.6237,-1.574,0.0,0.0,0.0,0.0,0.0,0.0,0.0,0.0,0.0,0.0,0.0,0.0,0.0,0.0,0.0,0.0,0.0,0.0,0.0,0.0,0.0,0.0,0.0,0.0,0.0,0.0,0.0,0.0,0.0,0.0,0.0,0.0,0.0,0.0,0.0,0.0,0.0,0.0,0.0,0.0,0.0,0.0,0.0,0.0,0.0,0.0,0.0,0.0,0.0,0.0,0.0,0.0,0.0,0.0,0.0,-2.0401,-2.3211,-2.541,-2.693,-2.7031,-2.7451,-2.8283,-2.6236,-2.3175,0.0,0.0,0.0,0.0,0.0,0.0,0.0,0.0,0.0,0.0,0.0,0.0,0.0,0.0,0.0,0.0,0.0,0.0,0.0,0.0,0.0,0.0,0.0,0.0,0.0,0.0,0.0,0.0,0.0,0.0,0.0,0.0,0.0,0.0,0.0,0.0,0.0,0.0,0.0,0.0,0.0,-1.4324,-1.4624,-1.5687,-1.6282,0.0,-1.6193,-1.6821,-1.7569,-1.7339,-1.6927,-1.6398,0.0,0.0,0.0,0.0,0.0,0.0,0.0,0.0,0.0,0.0,0.0,0.0,0.0,0.0,0.0,0.0,0.0,0.0,0.0,0.0,0.0,0.0,0.0,0.0,0.0,0.0,0.0,0.0,0.0,0.0,0.0,0.0,0.0,0.0,0.0,0.0,0.0,0.0,0.0,0.0,0.0,0.0,0.0,0.0,0.0,0.0,0.0,0.0,0.0,0.0,0.0,0.0,0.0,-1.8789,-2.2065,-2.436,-2.6218,-2.7549,-2.7391,-2.7522,-2.8069,-2.6225,-2.3303,0.0,0.0,0.0,0.0,0.0,0.0,0.0,0.0,0.0,0.0,0.0,0.0,0.0,0.0,0.0,0.0,0.0,0.0,0.0,0.0,0.0,0.0,0.0,0.0,0.0,0.0,0.0,0.0,-0.7173,-0.7418,-0.7447,0.0,0.0,0.0,0.0,0.0,0.0,0.0,0.0,0.0,0.0,-1.5661,-1.6165,-1.6615,0.0,0.0,-1.6901,-1.689,-1.746,-1.7062,-1.6435,-1.5714,-1.4913,0.0,0.0,0.0,0.0,0.0,0.0,0.0,0.0,0.0,0.0,0.0,0.0,0.0,0.0,0.0,0.0,0.0,0.0,0.0,0.0,0.0,0.0,0.0,0.0,0.0,0.0,0.0,0.0,0.0,0.0,0.0,0.0,0.0,0.0,0.0,0.0,0.0,0.0,0.0,0.0,0.0,0.0,0.0,0.0,0.0,0.0,0.0,0.0,0.0,0.0,0.0,0.0,-1.9727,-2.2859,-2.5048,-2.6681,-2.7681,-2.7417,-2.7389,-2.7622,-2.6048,-2.3871,0.0,0.0,0.0,0.0,0.0,0.0,0.0,0.0,0.0,0.0,0.0,0.0,0.0,0.0,0.0,0.0,0.0,0.0,0.0,0.0,0.0,0.0,0.0,0.0,0.0,0.0,0.0,0.0,-0.745,-0.7595,-0.825,0.0,0.0,0.0,0.0,0.0,0.0,0.0,0.0,0.0,0.0,-1.6782,-1.7516,-1.7696,-1.7917,-1.8426,-1.762,-1.7166,-1.7719,-1.7321,-1.6654,-1.5822,0.0,0.0,0.0,0.0,0.0,0.0,0.0,0.0,0.0,0.0,0.0,0.0,0.0,0.0,0.0,0.0,0.0,0.0,0.0,0.0,0.0,0.0,0.0,0.0,0.0,0.0,0.0,-0.5368,0.0,0.0,-0.2749,0.0,0.0,0.0,0.0,0.0,0.0,0.0,0.0,0.0,0.0,0.0,0.0,0.0,0.0,0.0,0.0,0.0,0.0,0.0,0.0,0.0,0.0,-2.0192,-2.2598,-2.5194,-2.6795,-2.7267,-2.723,-2.7228,-2.7357,-2.6409,-2.5648,-2.5123,0.0,0.0,0.0,0.0,0.0,0.0,0.0,0.0,0.0,0.0,0.0,0.0,0.0,0.0,0.0,0.0,0.0,0.0,0.0,0.0,0.0,0.0,0.0,0.0,0.0,0.0,-0.8846,-0.6887,-0.6261,0.0,0.0,0.0,0.0,0.0,0.0,0.0,0.0,0.0,0.0,-1.5809,-1.759,-1.8446,-1.9063,-1.9389,-1.9369,-1.8449,-1.8002,-1.8656,-1.8401,-1.7877,0.0,0.0,0.0,0.0,0.0,0.0,0.0,0.0,0.0,0.0,0.0,0.0,0.0,0.0,0.0,0.0,0.0,0.0,0.0,0.0,0.0,0.0,0.0,0.0,0.0,0.0,0.0,-0.8118,-0.7089,0.0,0.0,0.0,0.0,0.0,0.0,0.0,0.0,0.0,0.0,0.0,-1.3886,-1.4527,0.0,0.0,0.0,0.0,0.0,0.0,0.0,0.0,0.0,0.0,0.0,0.0,-2.1251,-2.3012,-2.4979,-2.6101,-2.637,-2.6438,-2.6506,-2.6605,-2.5501,-2.4328,-2.3085,0.0,0.0,0.0,0.0,0.0,0.0,0.0,0.0,0.0,0.0,0.0,0.0,0.0,0.0,0.0,0.0,0.0,0.0,0.0,0.0,0.0,0.0,0.0,0.0,0.0,-1.0889,0.0,0.0,0.0,0.0,0.0,0.0,0.0,0.0,0.0,0.0,0.0,-1.3994,-1.5072,-1.6875,-1.8338,-1.9052,-1.9567,-1.9857,0.0,0.0,0.0,0.0,0.0,0.0,0.0,0.0,0.0,0.0,0.0,0.0,0.0,0.0,-1.9155,-1.7024,-1.6836,-1.7214,-1.7855,0.0,0.0,0.0,0.0,0.0,0.0,0.0,0.0,0.0,0.0,0.0,0.0,0.0,0.0,-0.9851,-0.9106,-0.8821,0.0,0.0,0.0,0.0,0.0,0.0,0.0,0.0,-1.4585,-1.5463,-1.5811,-1.5682,-1.5023,0.0,-1.3601,-1.1958,0.0,0.0,0.0,0.0,0.0,0.0,0.0,0.0,-2.2183,-2.3393,-2.4992,-2.5763,-2.5677,-2.5781,-2.589,-2.5932,-2.518,-2.4057,-2.2576,-2.1371,-1.9704,0.0,0.0,0.0,0.0,0.0,0.0,0.0,0.0,0.0,0.0,0.0,0.0,0.0,0.0,0.0,0.0,0.0,0.0,0.0,0.0,0.0,0.0,0.0,-1.2587,0.0,0.0,0.0,0.0,0.0,0.0,0.0,0.0,0.0,-1.3205,-1.4487,-1.5871,-1.6935,-1.8489,-1.9678,-2.0114,0.0,0.0,0.0,0.0,0.0,0.0,0.0,-1.863,-1.8844,-1.8818,-1.8768,-1.8768,-1.9479,-2.0035,-2.0034,0.0,0.0,-1.9184,-1.8993,-1.9294,-1.9861,-2.003,-2.0368,-2.1193,-2.0993,-2.0695,0.0,0.0,0.0,0.0,0.0,0.0,0.0,0.0,-1.1718,-1.1537,0.0,-1.0734,0.0,0.0,0.0,0.0,-1.0778,-1.2273,0.0,0.0,-1.7212,-1.7822,-1.7123,-1.6963,-1.651,-1.5773,-1.509,-1.4966,-1.5222,-1.3994,0.0,0.0,0.0,0.0,0.0,0.0,-2.2972,-2.385,-2.5246,-2.574,-2.5259,-2.5339,-2.5422,-2.5473,-2.5389,-2.483,-2.3718,-2.2529,-2.1109,-1.9321,-1.7534,0.0,0.0,0.0,0.0,0.0,0.0,0.0,0.0,0.0,0.0,0.0,0.0,0.0,0.0,0.0,0.0,0.0,0.0,0.0,0.0,-1.4411,0.0,0.0,0.0,0.0,0.0,0.0,0.0,0.0,0.0,0.0,-1.4999,-1.6106,-1.7596,-1.9091,0.0,0.0,0.0,0.0,-2.1481,-2.13,-2.0542,-1.9961,-1.9814,-2.0309,-2.045,-1.982,0.0,0.0,-2.0049,-2.0371,-2.0792,-2.0938,-2.1829,-2.254,-2.2823,-2.2157,-2.19,-2.2542,-2.2186,-2.2224,-2.3368,-2.3318,-2.317,-1.8723,0.0,0.0,0.0,0.0,-1.5539,-1.5165,-1.4356,-1.4044,-1.3807,-1.367,-1.3544,0.0,0.0,0.0,0.0,0.0,0.0,-1.6623,-1.7915,-1.8707,-1.8995,-1.8899,-1.881,-1.8412,-1.7864,-1.8478,-1.8984,-1.9345,-1.9638,-1.8838,-1.7037,0.0,0.0,0.0,0.0,-2.4105,-2.4739,-2.5384,-2.5677,-2.5575,-2.5401,-2.5118,-2.4719,-2.4936,-2.4518,-2.3459,-2.286,-2.1868,-2.0402,-1.8935,0.0,0.0,0.0,0.0,0.0,0.0,0.0,0.0,0.0,0.0,0.0,0.0,0.0,0.0,0.0,0.0,0.0,0.0,0.0,-1.5244,-1.5269,-1.5059,0.0,0.0,0.0,0.0,0.0,0.0,0.0,0.0,0.0,-1.8442,-1.9278,-1.9891,0.0,0.0,-2.2186,-2.2098,-2.2406,-2.2601,-2.2499,-2.2154,0.0,-2.1406,-2.1221,-2.1268,-2.167,-2.181,-2.1835,-2.1862,-2.1778,-2.2131,-2.3374,-2.3748,-2.4127,-2.5029,-2.4287,-2.3692,-2.4057,-2.425,-2.4372,-2.4665,-2.4487,-2.4259,-2.1223,-1.973,-1.9423,-1.8165,-1.6436,-1.6505,-1.5953,-1.4958,-1.4801,-1.4904,-1.5189,-1.5211,-1.5092,-1.4953,-1.567,0.0,0.0,0.0,-1.9517,-2.0525,-2.0787,-2.0879,-2.0774,-2.0312,-1.9975,-1.9779,-2.0131,-2.0678,-2.1419,-2.1886,-2.1257,-1.9567,0.0,0.0,-2.2062,-2.362,-2.4764,-2.545,-2.5737,-2.5794,-2.5633,-2.5496,-2.4985,-2.4183,-2.4632,-2.4386,-2.3262,-2.3051,-2.2413,-2.1211,-2.0337,-1.8954,0.0,0.0,0.0,0.0,0.0,0.0,0.0,0.0,0.0,0.0,0.0,-1.0948,-1.0679,0.0,0.0,0.0,-1.5156,-1.638,-1.7067,-1.6836,0.0,0.0,0.0,0.0,0.0,0.0,0.0,-1.8676,-1.9598,-2.0251,-2.0439,-2.1406,-2.1922,-2.1481,-2.2155,-2.2789,-2.3032,0.0,-2.3415,-2.34,-2.3041,-2.2726,-2.2501,-2.2109,-2.2159,-2.3058,-2.309,-2.3103,-2.3457,-2.3294,-2.3554,-2.4584,-2.4896,-2.5201,-2.6183,-2.5523,-2.4867,-2.4994,-2.5337,-2.5526,-2.5389,-2.5127,-2.4902,-2.3751,-2.2678,-2.0646,-1.8955,-1.7612,-1.6607,-1.559,-1.4662,-1.4506,-1.5048,-1.6036,-1.5964,-1.6431,-1.7441,-1.8038,0.0,-1.9823,-2.1093,-2.1999,-2.2783,-2.3034,-2.3001,-2.2605,-2.1714,-2.1342,-2.1524,-2.0738,-2.092,-2.1927,-2.1864,-2.2158,-2.2869,-2.2954,-2.3183,-2.3682,-2.4324,-2.5153,-2.6107,-2.62,-2.5958,-2.5472,-2.5443,-2.4896,-2.3768,-2.4406,-2.4284,-2.3234,-2.3188,-2.2753,-2.1836,-2.1639,-2.0648,-1.8657,0.0,0.0,0.0,0.0,0.0,0.0,0.0,0.0,0.0,0.0,0.0,0.0,0.0,0.0,0.0,-1.6894,0.0,-1.9178,-1.87,0.0,0.0,0.0,-1.8009,-1.8925,-1.9972,-2.0611,-2.0542,0.0,0.0,-2.1328,-2.2605,-2.3556,-2.3526,-2.3319,-2.3462,-2.4161,-2.4099,-2.4001,-2.405,-2.3503,-2.3132,-2.3248,-2.3073,-2.3177,-2.3935,-2.4257,-2.4443,-2.4738,-2.4785,-2.4879,-2.5286,-2.5569,-2.5916,-2.6362,-2.6173,-2.5852,-2.5413,-2.5658,-2.5865,-2.5689,-2.5506,-2.5284,-2.3569,-2.3396,-2.2595,-2.1055,-1.9084,-1.8106,-1.7029,-1.5901,-1.4969,-1.5041,-1.5822,-1.6433,-1.7631,-1.9234,-1.977,-2.0464,-2.129,-2.184,-2.2484,-2.3214,-2.3123,-2.3371,-2.3905,-2.371,-2.3339,-2.2894,-2.3301,-2.2944,-2.2009,-2.2998,-2.3272,-2.2869,-2.3334,-2.3835,-2.4364,-2.4867,-2.5621,-2.6558,-2.5977,-2.5478,-2.505,-2.4409,-2.4022,-2.3927,-2.3855,-2.3774,-2.3619,-2.3305,-2.2926,-2.2486,-2.2189,-2.1287,-1.9701,-1.8494,0.0,0.0,0.0,0.0,0.0,0.0,0.0,0.0,0.0,-1.4101,-1.3188,0.0,-1.6499,0.0,-1.8187,-1.9034,-1.9069,-1.9187,0.0,0.0,-1.8994,-1.9309,-2.0052,-2.0624,-2.1181,-2.1715,-2.2254,-2.2554,-2.2401,-2.3015,-2.3696,-2.4296,-2.463,-2.4813,-2.4762,-2.4795,-2.4761,-2.4625,-2.4477,-2.4315,-2.412,-2.4234,-2.4373,-2.4408,-2.4782,-2.5146,-2.5362,-2.5476,-2.5758,-2.6436,-2.6475,-2.6529,-2.6773,-2.6714,-2.637,-2.5912,-2.5971,-2.6165,-2.6005,-2.5937,-2.5816,-2.4078,-2.4021,-2.3796,-2.2478,-2.0433,-1.8626,-1.6989,-1.544,-1.4399,-1.4605,-1.5831,-1.744,-1.88,-1.9912,-2.0616,-2.1328,-2.199,-2.2619,-2.3288,-2.3898,-2.3926,-2.422,-2.4801,-2.4434,-2.4091,-2.3802,-2.4064,-2.3582,-2.2551,-2.3708,-2.3952,-2.3275,-2.3626,-2.3926,-2.4205,-2.4402,-2.514,-2.6393,-2.6166,-2.5867,-2.5516,-2.5003,-2.4564,-2.4228,-2.4387,-2.4281,-2.3845,-2.376,-2.3364,-2.2589,-2.2457,-2.1945,-2.0964,-1.9827,-1.9082,0.0,0.0,0.0,0.0,0.0,0.0,0.0,0.0,0.0,0.0,0.0,-1.8142,-1.8734,-1.9809,-2.0412,-2.0182,-2.0398,-2.0577,-2.0598,-2.0878,-2.139,-2.2181,-2.2561,-2.2854,-2.3142,-2.3151,-2.3013,-2.2682,-2.3011,-2.3489,-2.4145,-2.4832,-2.5346,-2.5346,-2.5273,-2.5183,-2.5132,-2.4924,-2.4722,-2.4646,-2.522,-2.5671,-2.5732,-2.6163,-2.657,-2.6611,-2.6482,-2.6579,-2.7082,-2.6922,-2.6699,-2.6742,-2.6566,-2.6286,-2.6001,-2.5762,-2.5733,-2.5824,-2.5737,-2.5579,-2.4637,-2.448,-2.4587,-2.3471,-2.1576,-1.9026,-1.6642,-1.4536,-1.3629,-1.425,-1.6096,-1.8598,-1.9824,-2.0181,-2.1221,-2.1906,-2.2375,-2.3365,-2.4034,-2.4478,-2.4847,-2.5107,-2.5286,-2.4619,-2.4381,-2.4509,-2.408,-2.3653,-2.3246,-2.4059,-2.4211,-2.3776,-2.3704,-2.3667,-2.3572,-2.3377,-2.4134,-2.5862,-2.631,-2.64,-2.6194,-2.5957,-2.5416,-2.4576,-2.5099,-2.4961,-2.4024,-2.4204,-2.3761,-2.2598,-2.2615,-2.2487,-2.2108,-2.1219,-2.0911,0.0,-1.9296,0.0,0.0,0.0,0.0,0.0,0.0,0.0,0.0,-1.8758,-1.9666,-2.0671,-2.1445,-2.1859,-2.18,-2.1894,-2.2106,-2.2569,-2.2885,-2.3431,-2.4272,-2.4574,-2.4619,-2.4415,-2.4075,-2.353,-2.2997,-2.319,-2.36,-2.4087,-2.4918,-2.5586,-2.5826,-2.5548,-2.5323,-2.557,-2.5164,-2.513,-2.5431,-2.6111,-2.6764,-2.7102,-2.7613,-2.8082,-2.7904,-2.7542,-2.73,-2.74,-2.7086,-2.675,-2.6525,-2.6177,-2.5878,-2.5753,-2.5305,-2.5057,-2.5285,-2.5208,-2.4906,-2.4134,-2.4529,-2.499,-2.4168,-2.2546,-2.0942,-1.8483,-1.5562,-1.4507,-1.5075,-1.6902,-1.9188,-2.0411,-2.0955,-2.2453,-2.3062,-2.2865,-2.347,-2.3909,-2.4272,-2.4318,-2.4777,-2.546,-2.5535,-2.5444,-2.5229,-2.5267,-2.478,-2.3731,-2.4033,-2.3986,-2.3652,-2.3271,-2.3052,-2.3017,0.0,0.0,0.0,-2.5244,-2.547,-2.5381,-2.4832,-2.4542,-2.4493,-2.4064,0.0,-2.4266,-2.3759,-2.3323,-2.3079,-2.3017,0.0,0.0,0.0,0.0,0.0,0.0,0.0,0.0,0.0,0.0,0.0,-1.9624,-1.9568,-1.9535,-2.0811,-2.1642,-2.1657,-2.2381,-2.2861,-2.2888,-2.3094,-2.3248,-2.3248,-2.3386,-2.3618,-2.3931,-2.4081,-2.423,-2.4451,-2.4544,-2.4652,-2.4771,-2.5183,-2.5467,-2.5591,-2.606,-2.6311,-2.6279,-2.5641,-2.5282,-2.5559,-2.5967,-2.6444,-2.6693,-2.7005,-2.7299,-2.7482,-2.7978,-2.8335,-2.8293,-2.8171,-2.795,-2.7765,-2.7207,-2.67,-2.6379,-2.6084,-2.5711,-2.5206,-2.489,-2.477,-2.4828,-2.4683,-2.4526,-2.4176,-2.4818,-2.5017,-2.448,0.0,-2.2484,-2.0531,-1.7831,-1.6106,-1.6177,-1.7738,-1.9615,-2.0724,-2.127,-2.2395,-2.3,-2.3139,-2.306,-2.3159,-2.3457,-2.3515,-2.3667,-2.3983,-2.437,-2.4374,-2.4157,-2.4786,-2.4548,-2.3537,-2.448,-2.4503,-2.3566,-2.3506,-2.318,-2.2557,-2.2089,-2.2498,-2.378,-2.455,-2.5028,-2.5167,-2.4706,-2.44,-2.4284,-2.4021,0.0,0.0,0.0,0.0,0.0,0.0,0.0,0.0,0.0,0.0,-2.1652,-2.1054,-2.0545,-2.0254,-1.998,-2.016,-2.0856,-2.1436,-2.1685,-2.1419,-2.2728,-2.34,-2.3135,-2.3875,-2.4242,-2.3877,-2.3973,-2.4096,-2.4191,-2.4299,-2.4461,-2.4623,-2.4822,-2.5033,-2.5225,-2.5225,-2.5303,-2.556,-2.5503,-2.5734,-2.6154,-2.6098,-2.613,-2.6274,-2.5978,-2.5815,-2.5967,-2.6343,-2.6908,-2.7397,-2.7785,-2.8057,-2.8263,-2.8592,-2.8649,-2.844,-2.8095,-2.78,-2.7514,-2.7037,-2.658,-2.6338,-2.5911,-2.5425,-2.4952,-2.4512,-2.4182,-2.414,-2.4039,-2.3963,-2.4128,-2.4794,-2.4845,-2.4627,-2.4183,-2.3773,-2.2419,-2.035,-1.7867,0.0,0.0,-2.0081,-2.0995,-2.142,-2.2162,-2.2774,-2.3269,-2.2667,-2.2529,-2.2684,-2.2675,-2.2574,-2.2432,-2.2784,-2.2916,-2.2847,-2.3777,-2.3791,-2.3118,-2.4651,-2.4759,-2.3662,-2.3764,-2.3335,-2.237,-2.2098,-2.2338,-2.3111,-2.4031,-2.4673,-2.4969,-2.4744,-2.4459,-2.4086,-2.4103,-2.3887,-2.3339,-2.3708,-2.3254,-2.186,-2.181,-2.1693,-2.1361,-2.1503,-2.1884,-2.2513,-2.2007,-2.153,-2.1254,-2.0778,-2.0819,-2.1536,-2.2563,-2.3145,-2.3035,-2.3986,-2.4509,-2.4292,-2.5005,-2.526,-2.4677,-2.4595,-2.4694,-2.5005,-2.5146,-2.5244,-2.5481,-2.5757,-2.5892,-2.6082,-2.6036,-2.6,-2.6184,-2.6021,-2.5956,-2.6514,-2.6461,-2.5967,-2.6322,-2.6344,-2.6237,-2.6397,-2.668,-2.7125,-2.7795,-2.8319,-2.8742,-2.9007,-2.9111,-2.9013,-2.8605,-2.8014,-2.7539,-2.7549,-2.6971,-2.6618,-2.6431,-2.5969,-2.5327,-2.4982,-2.4333,-2.3774,-2.3596,-2.3574,-2.356,-2.3143,-2.3725,-2.4557,-2.4833,-2.4784,-2.4726,-2.3732,-2.1954,-1.9363,-1.839,-1.876,-2.0689,-2.1445,-2.132,-2.288,-2.3541,-2.3446,-2.3024,-2.275,-2.2684,-2.2354,-2.229,-2.2397,-2.2457,-2.2589,-2.2803,-2.2969,-2.3062,-2.31,-2.3357,-2.3547,-2.3647,-2.3237,-2.2908,-2.2694,-2.2186,-2.2304,-2.3105,-2.3653,-2.4038,-2.4257,-2.427,-2.4155,-2.3928,-2.3682,-2.3344,-2.3005,-2.3155,-2.3122,-2.2882,-2.3043,-2.3094,-2.306,-2.3014,-2.3069,-2.2982,-2.2384,-2.1944,-2.1789,-2.1432,-2.1525,-2.2195,-2.304,-2.3399,-2.3114,-2.3505,-2.3881,-2.4102,-2.4498,-2.4788,-2.502,-2.5005,-2.4963,-2.5146,-2.5174,-2.53,-2.5494,-2.5743,-2.6002,-2.626,-2.6863,-2.7267,-2.7394,-2.7798,-2.8029,-2.8303,-2.7709,-2.7491,-2.7026,-2.6564,-2.6351,-2.6624,-2.7273,-2.788,-2.8245,-2.8615,-2.894,-2.9227,-2.9243,-2.9236,-2.9206,-2.8494,-2.8008,-2.818,-2.7357,-2.6881,-2.6933,-2.6666,-2.5946,-2.5218,-2.4718,-2.436,-2.3782,-2.3676,-2.3667,-2.304,-2.375,-2.4548,-2.4892,-2.4892,-2.443,-2.3926,-2.3135,-2.0662,-1.9474,-1.954,-2.071,-2.1187,-2.1321,-2.2722,-2.3332,-2.3278,-2.2774,-2.2377,-2.2089,-2.1671,-2.1481,-2.1499,-2.1615,-2.1659,-2.1687,-2.1945,-2.2078,-2.2176,-2.2432,-2.2784,-2.3183,-2.2829,-2.2762,-2.2949,-2.2009,-2.1863,-2.2538,-2.2778,-2.3191,-2.3815,-2.3708,-2.3595,-2.3601,-2.32,-2.295,-2.2884,-2.285,-2.276,-2.2563,-2.2652,-2.2543,-2.2297,-2.2359,-2.2372,-2.2283,-2.2116,-2.1796,-2.1388,-2.1388,-2.1651,-2.2266,-2.2848,-2.321,-2.3095,-2.388,-2.4278,-2.4154,-2.4628,-2.5056,-2.5187,-2.5146,-2.5146,-2.5202,-2.5286,-2.5481,-2.5702,-2.588,-2.6152,-2.6502,-2.6893,-2.7173,-2.7307,-2.7569,-2.7906,-2.8125,-2.8004,-2.7718,-2.7362,-2.6982,-2.6825,-2.7141,-2.7752,-2.8174,-2.8381,-2.8748,-2.9013,-2.919,-2.9129,-2.9106,-2.9121,-2.8431,-2.8018,-2.8082,-2.7423,-2.6922,-2.6933,-2.6549,-2.5992,-2.5499,-2.4926,-2.4526,-2.4334,-2.4305,-2.423,-2.2626,-2.3195,-2.404,-2.443,-2.4489,-2.3926,-2.3786,-2.3692,-2.1578,-2.0492,-2.0242,-2.0542,-2.0842,-2.1106,-2.2379,-2.2985,-2.285,-2.2354,-2.1814,-2.1241,-2.0811,-2.0456,-2.0229,-2.0456,-2.0546,-2.051,-2.1006,-2.123,-2.1284,-2.1713,-2.2155,-2.2505,-2.2446,-2.262,-2.3082,-2.193,-2.1645,-2.2326,-2.2153,-2.2478,-2.3361,-2.3223,-2.3191,-2.3245,-2.3023,-2.2826,-2.275,-2.2766,-2.261,-2.2266,-2.2228,-2.203,-2.1646,-2.1628,-2.1662,-2.1687,-2.173,-2.1506,-2.0999,-2.1336,-2.1757,-2.2154,-2.2647,-2.2957,-2.3175,-2.3952,-2.4433,-2.4246,-2.4835,-2.5293,-2.5241,-2.5272,-2.5286,-2.5342,-2.5467,-2.5647,-2.5893,-2.6029,-2.626,-2.6621,-2.6842,-2.6999,-2.7012,-2.7128,-2.7418,-2.7708,-2.775,-2.7691,-2.7421,-2.7361,-2.7524,-2.775,-2.8122,-2.8389,-2.8477,-2.8842,-2.9098,-2.9129,-2.9059,-2.9059,-2.892,-2.8334,-2.791,-2.7999,-2.7499,-2.7026,-2.6811,-2.6546,-2.6156,-2.5727,-2.5233,-2.4928,-2.5058,-2.5048,-2.4856,-2.1049,-2.1107,-2.2265,-2.2979,-2.3479,-2.3628,-2.3587,-2.3235,-2.2025,-2.118,-2.0634,-2.055,-2.0408,-2.0614,-2.2227,-2.2795,-2.2469,-2.2018,-2.1238,-2.0292,-1.9619,-1.908,-1.8758,-1.9134,-1.9463,-1.9712,-2.0411,-2.0744,-2.0781,-2.123,-2.1601,-2.1873,-2.1913,-2.2259,-2.2732,-2.1998,-2.2099,-2.3221,-2.232,-2.2149,-2.274,-2.3106,-2.3167,-2.296,-2.3328,-2.3119,-2.2369,-2.2959,-2.3101,-2.2696,-2.2622,-2.261,-2.25,-2.2139,-2.1842,-2.1842,-2.1482,-2.1158,-2.0999,-2.1675,-2.2123,-2.2216,-2.2647,-2.2927,-2.3078,-2.311,-2.3411,-2.3998,-2.4761,-2.5143,-2.5216,-2.5369,-2.5536,-2.5716,-2.5702,-2.5784,-2.6002,-2.6084,-2.6179,-2.634,-2.6917,-2.7472,-2.7453,-2.7855,-2.81,-2.765,-2.7781,-2.7803,-2.7494,-2.7715,-2.8039,-2.8122,-2.8317,-2.847,-2.8661,-2.9013,-2.9175,-2.9236,-2.9259,-2.9175,-2.899,-2.8661,-2.8341,-2.8137,-2.7715,-2.7207,-2.713,-2.699,-2.6604,-2.6031,-2.5709,-2.5633,-2.5607,-2.5633,-2.5409,-2.0389,-2.0433,-2.1707,-2.2551,-2.3053,-2.317,-2.2979,-2.2484,-2.1371,-2.0568,-2.0077,-1.964,-1.9856,-2.0654,-2.1753,-2.2288,-2.2264,-2.1334,-2.0573,-1.9815,-1.8823,-1.8195,-1.8064,-1.8657,-1.908,-1.9363,-1.992,-2.0382,-2.0656,-2.0927,-2.1291,-2.1726,-2.1486,-2.1658,-2.2207,-2.156,-2.1727,-2.2758,-2.2118,-2.2101,-2.2676,-2.2964,-2.3062,-2.2988,-2.3093,-2.2994,-2.2656,-2.2767,-2.2683,-2.2431,-2.2414,-2.2414,-2.2414,-2.2018,-2.1788,-2.1757,-2.1411,-2.136,-2.1632,-2.1901,-2.2099,-2.2309,-2.2604,-2.28,-2.2878,-2.2969,-2.3241,-2.3645,-2.4218,-2.4857,-2.5696,-2.5674,-2.555,-2.5647,-2.5743,-2.5893,-2.6056,-2.6098,-2.6179,-2.6394,-2.6635,-2.6822,-2.6903,-2.7171,-2.735,-2.7266,-2.7474,-2.7576,-2.773,-2.7965,-2.8201,-2.8453,-2.8549,-2.8605,-2.8779,-2.8889,-2.8982,-2.892,-2.8826,-2.8779,-2.8771,-2.8268,-2.789,-2.8186,-2.759,-2.7155,-2.7063,-2.6974,-2.6715,-2.624,-2.6159,-2.6116,-2.5704,-2.5931,-2.5934,-1.9717,-1.9813,-2.0936,-2.1743,-2.2249,-2.2467,-2.2274,-2.1692,-2.0817,-2.0109,-1.956,-1.8753,-1.9051,-2.0232,-2.0945,-2.1327,-2.1277,-2.0411,-1.9605,-1.8925,-1.7888,-1.7315,-1.7287,-1.8087,-1.8666,-1.907,-1.9696,-2.0292,-2.0674,-2.0483,-2.078,-2.1311,-2.0885,-2.0914,-2.1574,-2.1123,-2.1283,-2.2148,-2.1978,-2.2046,-2.2348,-2.274,-2.2964,-2.3054,-2.3002,-2.2973,-2.3029,-2.2754,-2.2501,-2.2269,-2.2133,-2.2061,-2.2049,-2.1726,-2.1557,-2.1557,-2.1454,-2.1561,-2.203,-2.2099,-2.2211,-2.2451,-2.2629,-2.2708,-2.2769,-2.2848,-2.3122,-2.3666,-2.387,-2.4577,-2.5564,-2.5687,-2.5578,-2.5619,-2.5798,-2.5948,-2.6138,-2.6111,-2.6138,-2.6338,-2.6328,-2.626,-2.6299,-2.6476,-2.6688,-2.694,-2.7159,-2.7412,-2.79,-2.8054,-2.8226,-2.8549,-2.8589,-2.8677,-2.885,-2.8858,-2.8763,-2.8605,-2.8455,-2.8359,-2.8341,-2.775,-2.7386,-2.7645,-2.7141,-2.6843,-2.675,-2.6659,-2.6606,-2.6418,-2.6334,-2.6287,-2.5945,-2.6242,-2.6465,-1.8729,-1.8646,-1.9465,-2.0271,-2.0676,-2.1487,-2.1471,-2.0917,-2.0613,-2.0202,-1.9472,-1.8007,-1.7901,-1.8883,-1.9639,-1.9821,-1.9359,-1.921,-1.8443,-1.7327,-1.6838,-1.6409,-1.6067,-1.7188,-1.8052,-1.8665,-1.9744,-2.0499,-2.0908,-1.9974,-1.9929,-2.0787,-2.0133,-2.0195,-2.0986,-2.0793,-2.1012,-2.1714,-2.1929,-2.191,-2.1745,-2.2327,-2.2889,-2.3213,-2.3265,-2.329,-2.3326,-2.3234,-2.2909,-2.2415,-2.1953,-2.1714,-2.1683,-2.1411,-2.1221,-2.1265,-2.1498,-2.1667,-2.1824,-2.2278,-2.2604,-2.2647,-2.2647,-2.2739,-2.2757,-2.2604,-2.293,-2.4081,-2.3893,-2.4086,-2.466,-2.5326,-2.5688,-2.5825,-2.5893,-2.6029,-2.6244,-2.6042,-2.5975,-2.6084,-2.6084,-2.6125,-2.626,-2.6433,-2.6578,-2.6803,-2.713,-2.7488,-2.77,-2.8014,-2.8186,-2.8284,-2.8429,-2.8668,-2.8826,-2.8763,-2.8581,-2.8334,-2.81,-2.8002,-2.7765,-2.7515,-2.7338,-2.7174,-2.6971,-2.6724,-2.6447,-2.6313,-2.626,-2.6192,-2.6204,-2.6117,-2.6162,-2.6371,-2.6505,-1.9003,-1.9642,-2.0498,-2.0773,-2.0668,-2.1857,-2.152,-2.0197,-2.0189,-1.9717,-1.8788,-1.7687,-1.7101,-1.6974,-1.7286,-1.8084,-1.899,-1.8258,-1.747,-1.6825,-1.6191,-1.5833,-1.5875,-1.7287,-1.8197,-1.8647,-1.9788,-2.0615,-2.0836,-2.0087,-2.0047,-2.0541,-1.9997,-1.9883,-2.0231,-2.0205,-2.0453,-2.1006,-2.134,-2.1511,-2.1522,-2.2025,-2.2542,-2.3075,-2.3224,-2.3186,-2.3029,-2.2914,-2.2645,-2.2103,-2.153,-2.1178,-2.1178,-2.1083,-2.1169,-2.1498,-2.1635,-2.1792,-2.2011,-2.2297,-2.2451,-2.2402,-2.2463,-2.253,-2.2463,-2.2371,-2.2536,-2.3046,-2.3534,-2.3813,-2.4292,-2.5033,-2.5647,-2.5757,-2.5825,-2.5921,-2.5921,-2.5921,-2.5893,-2.5866,-2.5839,-2.5866,-2.5961,-2.619,-2.6457,-2.6736,-2.7207,-2.76,-2.79,-2.8088,-2.8137,-2.8162,-2.8146,-2.814,-2.8301,-2.8389,-2.8293,-2.7944,-2.768,-2.7494,-2.7306,-2.693,-2.6683,-2.6826,-2.6709,-2.6604,-2.6353,-2.6406,-2.6299,-2.6233,-2.6218,-2.6285,-2.6418,-2.6525,-2.648,-1.9071,-2.0079,-2.0795,-2.0916,-2.0788,-2.1937,-2.1394,-1.9829,-1.9976,-1.9406,-1.8272,-1.7213,-1.6367,-1.5649,-1.5241,-1.6015,-1.7551,-1.6955,-1.6648,-1.6467,-1.5905,-1.5823,-1.6355,-1.7626,-1.8569,-1.9018,-1.9875,-2.0483,-2.0548,-2.0,-1.9981,-2.0382,-1.9826,-1.9631,-1.9834,-1.9912,-2.0061,-2.0427,-2.086,-2.1123,-2.1264,-2.1721,-2.2252,-2.2777,-2.3113,-2.3301,-2.3208,-2.305,-2.2696,-2.2158,-2.1556,-2.1138,-2.1022,-2.0999,-2.1158,-2.1509,-2.1635,-2.1792,-2.2066,-2.2392,-2.2625,-2.2544,-2.2795,-2.288,-2.2785,-2.2609,-2.2513,-2.2713,-2.3188,-2.3738,-2.4176,-2.4934,-2.5536,-2.5688,-2.5811,-2.5866,-2.5784,-2.5839,-2.5839,-2.5811,-2.5757,-2.5688,-2.5757,-2.6096,-2.6377,-2.663,-2.7152,-2.765,-2.7925,-2.8024,-2.7999,-2.7999,-2.7959,-2.786,-2.7885,-2.7949,-2.7885,-2.7555,-2.7276,-2.7074,-2.6855,-2.6459,-2.6286,-2.6433,-2.6445,-2.6365,-2.6392,-2.6457,-2.6418,-2.634,-2.6338,-2.6431,-2.6551,-2.6659,-2.6515,-1.898,-1.9796,-2.0082,-2.0512,-2.0762,-2.1555,-2.1125,-1.9947,-1.9963,-1.9212,-1.7905,-1.6617,-1.5682,-1.4868,-1.4051,-1.3972,-1.4729,-1.5491,-1.5922,-1.5998,-1.5973,-1.6436,-1.7347,-1.8074,-1.8937,-1.9836,-2.0038,-2.0065,-1.999,-1.973,-1.9667,-1.9711,-1.9598,-1.9562,-1.9888,-1.9837,-1.9852,-2.0058,-2.0495,-2.076,-2.0732,-2.1415,-2.2073,-2.2478,-2.3001,-2.3508,-2.407,-2.3637,-2.3132,-2.2708,-2.2169,-2.1665,-2.1289,-2.1232,-2.1238,-2.1391,-2.1579,-2.1725,-2.1891,-2.2663,-2.3159,-2.3163,-2.364,-2.3777,-2.366,-2.3317,-2.3023,-2.3079,-2.341,-2.3776,-2.4141,-2.4919,-2.5564,-2.5702,-2.5839,-2.5893,-2.5866,-2.5893,-2.5921,-2.5907,-2.5893,-2.5729,-2.5797,-2.6109,-2.6404,-2.6616,-2.7063,-2.7503,-2.765,-2.776,-2.776,-2.775,-2.785,-2.7875,-2.7675,-2.7514,-2.7382,-2.7225,-2.6956,-2.6709,-2.6566,-2.6245,-2.6152,-2.6218,-2.6272,-2.6218,-2.6258,-2.6338,-2.6365,-2.6326,-2.6404,-2.6484,-2.6551,-2.6587,-2.6428,-1.9403,-2.0404,-2.0976,-2.1063,-2.1021,-2.1287,-2.0757,-1.9786,-1.9463,-1.8698,-1.7635,-1.6617,-1.5388,-1.4168,-1.3388,-1.2924,-1.2801,-1.4062,-1.5166,-1.5842,-1.6093,-1.6484,-1.725,-1.838,-1.9517,-2.0305,-2.0214,-2.0135,-2.0172,-1.9942,-1.9826,-1.9791,-1.9711,-1.961,-1.9512,-1.9503,-1.9494,-1.9574,-2.024,-2.0644,-2.0693,-2.153,-2.2187,-2.259,-2.2927,-2.3372,-2.3911,-2.36,-2.335,-2.3155,-2.2434,-2.1925,-2.1688,-2.1756,-2.1935,-2.2158,-2.2391,-2.2601,-2.2744,-2.3138,-2.341,-2.3466,-2.3688,-2.3848,-2.386,-2.3694,-2.3553,-2.3603,-2.3916,-2.424,-2.448,-2.5051,-2.5605,-2.5811,-2.5852,-2.5866,-2.5839,-2.6015,-2.6258,-2.6418,-2.6418,-2.6392,-2.6392,-2.6537,-2.6563,-2.6642,-2.7089,-2.7452,-2.7575,-2.7635,-2.7725,-2.774,-2.7865,-2.7865,-2.7539,-2.7386,-2.7331,-2.7086,-2.6747,-2.6604,-2.6392,-2.6192,-2.6084,-2.6029,-2.6071,-2.6084,-2.6138,-2.6245,-2.6299,-2.6299,-2.6353,-2.6418,-2.6498,-2.6433,-2.6309,-1.9577,-2.0395,-2.1164,-2.1312,-2.1018,-2.1012,-2.0472,-1.9626,-1.9215,-1.8541,-1.7687,-1.6935,-1.5589,-1.3992,-1.311,-1.2471,-1.2001,-1.3009,-1.4284,-1.5602,-1.6141,-1.6684,-1.7558,-1.8847,-1.971,-2.0117,-1.9997,-1.9845,-1.9813,-1.9847,-1.9756,-1.9589,-1.9796,-1.9723,-1.9338,-1.9292,-1.9292,-1.9381,-1.9971,-2.0411,-2.0722,-2.1415,-2.2035,-2.2365,-2.2628,-2.3038,-2.3497,-2.3363,-2.327,-2.315,-2.2533,-2.2067,-2.1941,-2.2103,-2.2389,-2.2696,-2.2854,-2.3011,-2.3293,-2.3615,-2.378,-2.3837,-2.4128,-2.4338,-2.4348,-2.4319,-2.4296,-2.441,-2.4709,-2.5003,-2.5262,-2.5751,-2.6075,-2.6148,-2.5992,-2.5921,-2.5879,-2.6163,-2.6431,-2.659,-2.6683,-2.6709,-2.6709,-2.6747,-2.6762,-2.6774,-2.7141,-2.7452,-2.7524,-2.7549,-2.7665,-2.7765,-2.79,-2.774,-2.735,-2.7258,-2.7295,-2.6971,-2.659,-2.651,-2.6418,-2.6177,-2.6029,-2.6002,-2.6029,-2.5975,-2.6029,-2.6231,-2.6338,-2.6326,-2.6299,-2.6418,-2.6484,-2.6418,-2.6309,-1.9533,-1.9914,-2.0725,-2.0933,-2.0681,-2.0679,-2.0165,-1.942,-1.9313,-1.8803,-1.7957,-1.7252,-1.5902,-1.4196,-1.3039,-1.2287,-1.1973,-1.2184,-1.3237,-1.4777,-1.5716,-1.6773,-1.8448,-1.9281,-1.9657,-1.9614,-1.9518,-1.9256,-1.9156,-1.9577,-1.9529,-1.9325,-1.9719,-1.9729,-1.9457,-1.9329,-1.9292,-1.9371,-1.9775,-2.0216,-2.0634,-2.131,-2.1693,-2.1883,-2.2252,-2.2628,-2.2953,-2.3095,-2.3128,-2.3028,-2.2677,-2.2404,-2.2306,-2.2411,-2.2765,-2.3177,-2.3061,-2.3289,-2.3619,-2.4055,-2.4303,-2.4373,-2.4788,-2.5312,-2.5189,-2.5139,-2.517,-2.5436,-2.5653,-2.5918,-2.6272,-2.6549,-2.6677,-2.6495,-2.6106,-2.5976,-2.6138,-2.6377,-2.6628,-2.68,-2.6788,-2.6788,-2.6867,-2.6916,-2.6878,-2.6919,-2.7244,-2.7437,-2.7488,-2.7499,-2.7575,-2.77,-2.7825,-2.7625,-2.7248,-2.7104,-2.7074,-2.6867,-2.6525,-2.6418,-2.6392,-2.6177,-2.5961,-2.5975,-2.5948,-2.5893,-2.5893,-2.6084,-2.6231,-2.6258,-2.6312,-2.6431,-2.6484,-2.6486,-2.6282,-1.9533,-1.9843,-2.007,-2.0197,-2.0318,-2.0327,-1.9942,-1.9345,-1.9515,-1.8952,-1.801,-1.716,-1.5914,-1.4073,-1.296,-1.1882,-1.1302,-1.1666,-1.2212,-1.3128,-1.4269,-1.6279,-1.8311,-1.9041,-1.9408,-1.9621,-1.9439,-1.932,-1.9303,-1.9754,-1.9843,-1.959,-1.9981,-2.0104,-1.9765,-1.9448,-1.9301,-1.942,-2.005,-2.0411,-2.0673,-2.1568,-2.2025,-2.1845,-2.2138,-2.2478,-2.2815,-2.3224,-2.3449,-2.3495,-2.3671,-2.368,-2.3583,-2.3645,-2.3836,-2.4143,-2.4261,-2.4319,-2.4449,-2.4578,-2.4732,-2.4885,-2.5087,-2.5324,-2.5711,-2.5706,-2.593,-2.6227,-2.6394,-2.6482,-2.6661,-2.663,-2.6434,-2.6148,-2.5992,-2.6042,-2.6431,-2.68,-2.7071,-2.7448,-2.7549,-2.7524,-2.7423,-2.7321,-2.7248,-2.7262,-2.735,-2.7522,-2.7542,-2.7499,-2.7585,-2.7549,-2.7575,-2.7397,-2.7192,-2.6997,-2.6867,-2.6709,-2.6472,-2.6231,-2.6231,-2.6177,-2.5961,-2.5825,-2.5811,-2.5784,-2.5716,-2.5771,-2.5921,-2.6079,-2.6217,-2.631,-2.6604,-2.6683,-2.6338,-1.9345,-1.9438,-1.9603,-1.9612,-1.9639,-1.9513,-1.9202,-1.8848,-1.8993,-1.884,-1.8115,-1.7687,-1.6499,-1.5001,-1.3712,-1.237,-1.1266,-1.1352,-1.1765,-1.2539,-1.4018,-1.5953,-1.7696,-1.8438,-1.8962,-1.9233,-1.9115,-1.8965,-1.8957,-1.9423,-1.9607,-1.9569,-1.985,-1.9985,-1.9866,-1.9522,-1.9271,-1.9301,-1.9902,-2.0294,-2.0274,-2.1126,-2.1443,-2.1339,-2.1558,-2.1797,-2.23,-2.3074,-2.3608,-2.3843,-2.4108,-2.4283,-2.4422,-2.4657,-2.4853,-2.5157,-2.5156,-2.5109,-2.5028,-2.4957,-2.4957,-2.5028,-2.5194,-2.55,-2.5816,-2.6141,-2.6692,-2.6955,-2.6961,-2.7022,-2.7081,-2.6753,-2.638,-2.6232,-2.6034,-2.6125,-2.6563,-2.6852,-2.7163,-2.7524,-2.774,-2.7765,-2.764,-2.7503,-2.755,-2.7643,-2.7561,-2.7705,-2.7809,-2.7688,-2.7549,-2.7448,-2.7321,-2.7141,-2.6893,-2.6669,-2.6498,-2.6365,-2.6285,-2.6084,-2.6111,-2.6111,-2.5921,-2.5757,-2.5729,-2.5674,-2.5591,-2.5563,-2.5656,-2.5816,-2.5983,-2.6115,-2.6349,-2.6396,-2.6107,-1.9118,-1.8927,-1.916,-1.9094,-1.8863,-1.8682,-1.8582,-1.8163,-1.8534,-1.8586,-1.8429,-1.837,-1.7411,-1.6293,-1.4728,-1.3383,-1.1987,-1.1337,-1.1607,-1.2627,-1.4104,-1.5649,-1.6797,-1.7878,-1.8318,-1.8481,-1.8404,-1.8319,-1.8326,-1.8612,-1.898,-1.9315,-1.947,-1.9627,-1.9765,-1.9533,-1.9255,-1.9192,-1.9627,-1.9854,-1.9923,-2.0479,-2.0828,-2.0712,-2.0915,-2.1339,-2.2043,-2.2885,-2.3634,-2.4194,-2.4255,-2.4485,-2.4771,-2.5265,-2.5572,-2.5683,-2.5636,-2.5493,-2.5277,-2.5098,-2.5016,-2.4957,-2.5452,-2.5863,-2.599,-2.6624,-2.7201,-2.7503,-2.7455,-2.731,-2.7186,-2.6724,-2.6392,-2.6245,-2.6008,-2.6072,-2.6431,-2.6733,-2.7019,-2.7386,-2.7564,-2.7539,-2.7437,-2.7431,-2.7565,-2.769,-2.7682,-2.7682,-2.7705,-2.7586,-2.7391,-2.7233,-2.7078,-2.6948,-2.663,-2.6324,-2.615,-2.6002,-2.6002,-2.5921,-2.5975,-2.5948,-2.5811,-2.5674,-2.5661,-2.5578,-2.5481,-2.5494,-2.5584,-2.5601,-2.5775,-2.5792,-2.5808,-2.5753,-2.5552,-1.8625,-1.8604,-1.8624,-1.8583,-1.8626,-1.9157,-1.8964,-1.8377,-1.9049,-1.9063,-1.8757,-1.8286,-1.7687,-1.6869,-1.5482,-1.404,-1.2694,-1.1869,-1.1846,-1.2504,-1.3255,-1.4509,-1.5714,-1.6904,-1.7628,-1.7776,-1.7869,-1.7815,-1.7908,-1.821,-1.8734,-1.9162,-1.9506,-1.9843,-1.9771,-1.9551,-1.9443,-1.9286,-1.9499,-1.9657,-1.9893,-2.0362,-2.0595,-2.045,-2.0925,-2.1568,-2.2262,-2.3099,-2.3687,-2.4039,-2.442,-2.4726,-2.5132,-2.5445,-2.5791,-2.5981,-2.592,-2.5571,-2.5089,-2.5118,-2.5084,-2.4878,-2.5399,-2.5886,-2.644,-2.6778,-2.733,-2.7677,-2.7546,-2.6996,-2.6533,-2.6296,-2.6057,-2.5854,-2.58,-2.5922,-2.6377,-2.6733,-2.7019,-2.7408,-2.764,-2.7665,-2.7412,-2.7448,-2.7552,-2.7693,-2.7678,-2.7603,-2.7582,-2.7535,-2.7225,-2.7026,-2.6686,-2.6513,-2.6299,-2.6042,-2.5921,-2.5825,-2.5784,-2.5811,-2.5866,-2.5811,-2.5647,-2.5605,-2.5592,-2.5522,-2.5481,-2.5618,-2.5751,-2.5668,-2.5495,-2.5529,-2.5443,-2.5292,-2.516,-1.7788,-1.7649,-1.7761,-1.7852,-1.7905,-1.8422,-1.8475,-1.8213,-1.8788,-1.8952,-1.8698,-1.8443,-1.8174,-1.7621,-1.6387,-1.5049,-1.3712,-1.2259,-1.163,-1.1898,-1.2453,-1.3379,-1.4419,-1.548,-1.6244,-1.7012,-1.7301,-1.7301,-1.734,-1.7699,-1.8203,-1.878,-1.9199,-1.9465,-1.9575,-1.9267,-1.8997,-1.903,-1.9016,-1.9134,-1.9508,-1.9893,-2.0245,-2.0255,-2.0838,-2.153,-2.2225,-2.2713,-2.3272,-2.3745,-2.4209,-2.4738,-2.5384,-2.584,-2.6196,-2.6362,-2.6244,-2.5833,-2.5413,-2.5282,-2.5165,-2.4647,-2.5463,-2.5915,-2.6342,-2.6655,-2.723,-2.7402,-2.7024,-2.6323,-2.5775,-2.5667,-2.556,-2.5688,-2.5911,-2.6217,-2.6383,-2.6549,-2.6811,-2.7255,-2.7448,-2.7361,-2.731,-2.7295,-2.7624,-2.778,-2.7296,-2.7262,-2.7865,-2.7706,-2.7059,-2.6709,-2.6326,-2.6043,-2.5894,-2.5743,-2.5702,-2.5688,-2.5688,-2.5729,-2.5784,-2.5647,-2.5508,-2.555,-2.5619,-2.5619,-2.5619,-2.5755,-2.5651,-2.5119,-2.4946,-2.5094,-2.5137,-2.4927,-2.4881,-1.6892,-1.673,-1.7067,-1.7232,-1.7232,-1.7536,-1.774,-1.7845,-1.8213,-1.8579,-1.8534,-1.881,-1.8541,-1.8213,-1.7246,-1.6068,-1.4524,-1.2783,-1.163,-1.1617,-1.1723,-1.2557,-1.3481,-1.4178,-1.4956,-1.6204,-1.6541,-1.6588,-1.673,-1.7005,-1.7606,-1.8203,-1.8557,-1.9039,-1.9274,-1.8777,-1.8564,-1.8933,-1.86,-1.8665,-1.9073,-1.9341,-1.9578,-1.9942,-2.0634,-2.1328,-2.2025,-2.2478,-2.2927,-2.3482,-2.3787,-2.4382,-2.5162,-2.5925,-2.6395,-2.6322,-2.6105,-2.5801,-2.5376,-2.5363,-2.5204,-2.4494,-2.5546,-2.6059,-2.5864,-2.6304,-2.6831,-2.6778,-2.6415,-2.5747,-2.5213,-2.5199,-2.5242,-2.5451,-2.6203,-2.6581,-2.6531,-2.6456,-2.687,-2.7037,-2.7284,-2.7258,-2.7037,-2.6974,-2.7445,-2.7703,-2.7205,-2.6977,-2.7524,-2.7615,-2.6842,-2.6324,-2.5934,-2.5647,-2.5495,-2.5467,-2.5439,-2.5495,-2.555,-2.5605,-2.5619,-2.5508,-2.5425,-2.5605,-2.5661,-2.5661,-2.5771,-2.5961,-2.5574,-2.4694,-2.445,-2.4736,-2.4717,-2.4589,-2.4561,-1.6555,-1.673,-1.7067,-1.7232,-1.7226,-1.7477,-1.7845,-1.8213,-1.8318,-1.8684,-1.9011,-1.8698,-1.8646,-1.8496,-1.7655,-1.6152,-1.4583,-1.295,-1.2075,-1.1877,-1.1633,-1.1851,-1.2725,-1.3154,-1.3908,-1.4825,-1.5493,-1.5872,-1.6258,-1.6588,-1.7145,-1.7785,-1.838,-1.8833,-1.8876,-1.8667,-1.8532,-1.888,-1.8458,-1.8482,-1.9073,-1.9262,-1.942,-1.9745,-2.0595,-2.1318,-2.1928,-2.2692,-2.3224,-2.3372,-2.3703,-2.3943,-2.4253,-2.4738,-2.5051,-2.529,-2.5445,-2.5324,-2.4997,-2.5088,-2.5073,-2.4966,-2.5257,-2.5543,-2.5537,-2.5892,-2.6232,-2.6214,-2.5952,-2.5441,-2.4931,-2.4863,-2.4892,-2.5126,-2.5666,-2.6325,-2.6764,-2.7031,-2.7058,-2.6924,-2.707,-2.7155,-2.6881,-2.6657,-2.6816,-2.7002,-2.6695,-2.6457,-2.6763,-2.6687,-2.6209,-2.5825,-2.5536,-2.5314,-2.509,-2.5118,-2.5146,-2.5258,-2.5355,-2.5425,-2.5411,-2.5314,-2.5342,-2.555,-2.5688,-2.5716,-2.588,-2.6098,-2.554,-2.4699,-2.4532,-2.4425,-2.4156,-2.3927,-2.3953,-1.5873,-1.6311,-1.6743,-1.6955,-1.7008,-1.7272,-1.7536,-1.7799,-1.8213,-1.8579,-1.8684,-1.8527,-1.8593,-1.8653,-1.8377,-1.7087,-1.5417,-1.3825,-1.2842,-1.2163,-1.149,-1.1191,-1.1793,-1.2071,-1.2716,-1.3565,-1.4334,-1.5255,-1.5981,-1.6447,-1.6871,-1.7301,-1.7807,-1.8172,-1.8334,-1.7981,-1.8278,-1.8566,-1.8398,-1.8442,-1.924,-1.9311,-1.939,-1.9824,-2.0595,-2.1346,-2.188,-2.2644,-2.3187,-2.3298,-2.3409,-2.3372,-2.3434,-2.3607,-2.4095,-2.4755,-2.4909,-2.4945,-2.4729,-2.4745,-2.4256,-2.4101,-2.4559,-2.4748,-2.4849,-2.5132,-2.5572,-2.5375,-2.5212,-2.4885,-2.4549,-2.4607,-2.4679,-2.4929,-2.5578,-2.61,-2.6399,-2.6819,-2.6834,-2.6707,-2.7023,-2.7016,-2.663,-2.6431,-2.6324,-2.6217,-2.6082,-2.6069,-2.6096,-2.5907,-2.5674,-2.5564,-2.537,-2.5174,-2.5033,-2.5033,-2.5033,-2.509,-2.5174,-2.5244,-2.5257,-2.5174,-2.5328,-2.5536,-2.5619,-2.5633,-2.5853,-2.5988,-2.5317,-2.4714,-2.4377,-2.4033,-2.3565,-2.3294,-2.3472,-1.5185,-1.5838,-1.6365,-1.6518,-1.663,-1.6955,-1.7173,-1.7384,-1.801,-1.8429,-1.8482,-1.8377,-1.8489,-1.8646,-1.8475,-1.7759,-1.6573,-1.5007,-1.3618,-1.2341,-1.1508,-1.099,-1.0789,-1.0875,-1.1619,-1.2587,-1.3216,-1.4484,-1.5547,-1.6211,-1.6643,-1.6972,-1.7153,-1.7567,-1.7972,-1.7555,-1.7858,-1.8344,-1.8412,-1.8582,-1.9281,-1.9476,-1.9589,-1.9878,-2.0722,-2.1385,-2.189,-2.2617,-2.3038,-2.315,-2.3113,-2.2975,-2.2826,-2.2788,-2.3471,-2.4587,-2.4479,-2.4587,-2.4649,-2.4424,-2.3952,-2.3823,-2.4169,-2.4206,-2.4322,-2.4796,-2.5118,-2.4632,-2.4387,-2.4342,-2.4319,-2.4408,-2.4565,-2.4899,-2.5581,-2.6225,-2.6144,-2.6326,-2.6607,-2.6708,-2.6988,-2.6746,-2.6224,-2.6123,-2.5988,-2.5729,-2.5591,-2.5619,-2.5633,-2.5578,-2.5411,-2.5397,-2.5258,-2.509,-2.5005,-2.5061,-2.5033,-2.5033,-2.509,-2.5131,-2.5131,-2.509,-2.5244,-2.5397,-2.5425,-2.5467,-2.5702,-2.5767,-2.5254,-2.4718,-2.4173,-2.361,-2.3069,-2.3223,-2.3578,-1.4541,-1.5583,-1.5891,-1.5992,-1.6105,-1.6524,-1.7054,-1.7529,-1.7852,-1.8331,-1.8705,-1.8279,-1.822,-1.8325,-1.8003,-1.7358,-1.6611,-1.5743,-1.4604,-1.326,-1.1978,-1.1117,-1.0729,-1.0058,-1.0761,-1.1658,-1.2198,-1.342,-1.4729,-1.5689,-1.6359,-1.6636,-1.6925,-1.7434,-1.7995,-1.7543,-1.785,-1.8939,-1.8775,-1.9123,-1.9983,-1.9948,-2.0068,-2.0518,-2.0987,-2.1433,-2.1959,-2.2633,-2.3115,-2.3093,-2.3071,-2.3023,-2.2964,-2.2964,-2.3224,-2.3556,-2.3629,-2.3629,-2.4036,-2.3931,-2.3932,-2.3845,-2.4088,-2.4292,-2.4452,-2.4556,-2.4753,-2.4606,-2.4294,-2.4178,-2.4207,-2.4274,-2.4447,-2.4782,-2.5339,-2.5855,-2.5955,-2.5663,-2.5957,-2.6072,-2.6189,-2.6036,-2.5675,-2.5647,-2.5591,-2.5328,-2.5132,-2.5188,-2.5216,-2.5216,-2.5216,-2.5202,-2.5174,-2.5033,-2.5005,-2.5061,-2.5005,-2.4977,-2.4977,-2.5005,-2.4948,-2.4948,-2.5005,-2.5103,-2.5188,-2.5383,-2.5647,-2.5573,-2.5191,-2.4659,-2.4026,-2.3299,-2.2544,-2.2978,-2.3546,-1.4531,-1.5719,-1.5676,-1.5864,-1.6105,-1.6205,-1.6571,-1.7107,-1.7589,-1.8016,-1.8286,-1.8181,-1.8167,-1.8213,-1.7845,-1.7628,-1.7417,-1.6611,-1.5429,-1.4206,-1.2698,-1.1394,-1.0428,-1.0008,-1.0306,-1.0538,-1.1468,-1.2296,-1.3607,-1.4729,-1.5642,-1.6312,-1.6501,-1.6918,-1.7848,-1.7726,-1.8326,-1.9055,-1.9435,-1.9769,-2.009,-2.0016,-1.9943,-2.0345,-2.0909,-2.1341,-2.179,-2.2853,-2.3319,-2.3367,-2.3416,-2.3329,-2.3178,-2.2988,-2.2927,-2.3038,-2.3038,-2.3298,-2.3756,-2.3432,-2.3488,-2.3583,-2.3617,-2.3718,-2.4223,-2.4315,-2.4467,-2.4803,-2.4012,-2.388,-2.4252,-2.4331,-2.4345,-2.4585,-2.5016,-2.5143,-2.5364,-2.5289,-2.522,-2.5295,-2.5398,-2.5321,-2.5269,-2.5313,-2.5314,-2.5202,-2.5061,-2.509,-2.509,-2.509,-2.5061,-2.5033,-2.5033,-2.5005,-2.5005,-2.5005,-2.4948,-2.4892,-2.4863,-2.4863,-2.4791,-2.4791,-2.4863,-2.4977,-2.509,-2.5314,-2.5591,-2.5466,-2.5146,-2.4506,-2.381,-2.3163,-2.2588,-2.2752,-2.3432,-1.486,-1.5861,-1.5456,-1.5603,-1.6105,-1.5945,-1.6158,-1.663,-1.716,-1.7589,-1.7852,-1.7964,-1.8062,-1.8108,-1.7793,-1.7733,-1.8048,-1.7312,-1.6137,-1.4837,-1.3575,-1.2047,-1.0706,-1.0012,-0.9616,-0.9118,-1.0293,-1.1365,-1.2344,-1.3414,-1.4723,-1.5791,-1.5845,-1.6541,-1.7292,-1.7781,-1.841,-1.9509,-1.9955,-2.0298,-2.0463,-2.0165,-2.0172,-2.0498,-2.0947,-2.1363,-2.164,-2.2828,-2.3613,-2.3662,-2.3875,-2.3825,-2.3552,-2.3264,-2.3042,-2.2992,-2.2927,-2.3075,-2.3305,-2.3156,-2.2847,-2.3019,-2.3377,-2.3839,-2.4257,-2.4011,-2.4085,-2.5003,-2.4544,-2.4367,-2.4451,-2.4504,-2.4413,-2.4427,-2.456,-2.4563,-2.4576,-2.4664,-2.4744,-2.482,-2.4895,-2.4928,-2.4919,-2.4977,-2.5005,-2.5005,-2.5005,-2.5005,-2.4977,-2.4977,-2.4977,-2.4977,-2.5005,-2.4977,-2.4977,-2.4948,-2.4892,-2.4806,-2.4778,-2.4734,-2.4677,-2.4734,-2.482,-2.492,-2.4991,-2.5174,-2.5397,-2.5273,-2.5108,-2.4306,-2.361,-2.3195,-2.2865,-2.2944,-2.3368,-1.5597,-1.582,-1.503,-1.503,-1.5589,-1.5844,-1.6051,-1.6371,-1.6683,-1.71,-1.7582,-1.7806,-1.7799,-1.7687,-1.7635,-1.7589,-1.7687,-1.7582,-1.6596,-1.5517,-1.4504,-1.2837,-1.1323,-1.0146,-0.9513,-0.9023,-0.9562,-1.0391,-1.1414,-1.2344,-1.3613,-1.464,-1.5315,-1.6298,-1.7159,-1.7705,-1.8607,-1.9582,-2.0149,-2.0607,-2.0854,-2.084,-2.0787,-2.1212,-2.1579,-2.1863,-2.2088,-2.3094,-2.382,-2.3804,-2.4174,-2.427,-2.3985,-2.3629,-2.3416,-2.3163,-2.299,-2.3038,-2.3021,-2.3147,-2.3243,-2.3452,-2.3795,-2.4172,-2.4424,-2.5076,-2.5294,-2.5136,-2.4956,-2.4972,-2.4882,-2.4663,-2.4543,-2.4465,-2.4408,-2.429,-2.4319,-2.4347,-2.44,-2.439,-2.4492,-2.4649,-2.4791,-2.492,-2.4977,-2.4977,-2.4977,-2.4977,-2.492,-2.492,-2.4935,-2.4948,-2.4977,-2.4977,-2.4977,-2.492,-2.4806,-2.4692,-2.4635,-2.4591,-2.4563,-2.4635,-2.4562,-2.4781,-2.4839,-2.4992,-2.5146,-2.5134,-2.4874,-2.4061,-2.3462,-2.3242,-2.3164,-2.3221,-2.3679,-1.5656,-1.5808,-1.5182,-1.5229,-1.5737,-1.5838,-1.6051,-1.6324,-1.6577,-1.6783,-1.7054,-1.7153,-1.7265,-1.7325,-1.7378,-1.7483,-1.7582,-1.7589,-1.6715,-1.5799,-1.48,-1.3577,-1.2084,-1.0906,-1.0154,-0.9464,-0.9369,-0.9571,-1.0551,-1.157,-1.25,-1.3624,-1.4933,-1.6069,-1.6926,-1.7696,-1.875,-1.9512,-2.0007,-2.0298,-2.0891,-2.0669,-2.0675,-2.146,-2.1182,-2.1628,-2.2251,-2.309,-2.3727,-2.4229,-2.4509,-2.4497,-2.4348,-2.3979,-2.365,-2.3334,-2.3146,-2.2964,-2.2852,-2.299,-2.315,-2.3372,-2.3776,-2.42,-2.4394,-2.4681,-2.523,-2.5363,-2.5446,-2.5358,-2.5939,-2.53,-2.4732,-2.454,-2.4344,-2.4158,-2.4057,-2.4102,-2.4218,-2.4276,-2.4463,-2.4649,-2.4791,-2.492,-2.4977,-2.4977,-2.4977,-2.4935,-2.485,-2.4793,-2.4821,-2.4793,-2.4821,-2.4892,-2.4892,-2.4806,-2.4708,-2.4553,-2.4454,-2.437,-2.429,-2.4055,-2.406,-2.4345,-2.4606,-2.4692,-2.4817,-2.5021,-2.4723,-2.4073,-2.3738,-2.3547,-2.3497,-2.3432,-2.371,-1.5722,-1.5861,-1.5475,-1.5611,-1.5992,-1.5945,-1.6051,-1.6324,-1.6477,-1.6524,-1.6471,-1.6683,-1.6902,-1.7067,-1.7279,-1.7437,-1.7589,-1.7503,-1.6801,-1.6079,-1.5358,-1.4333,-1.3028,-1.1963,-1.1179,-1.0248,-0.9957,-1.0158,-1.0458,-1.1091,-1.2116,-1.3431,-1.4688,-1.5635,-1.6581,-1.7652,-1.8673,-1.9142,-1.9554,-1.9774,-2.0395,-2.0357,-2.0561,-2.1292,-2.1158,-2.1471,-2.2167,-2.2877,-2.353,-2.4097,-2.4519,-2.474,-2.4556,-2.4231,-2.3799,-2.3464,-2.3163,-2.2874,-2.2777,-2.2815,-2.3001,-2.3198,-2.3494,-2.3861,-2.4097,-2.4319,-2.5151,-2.5815,-2.5686,-2.5864,-2.672,-2.5899,-2.5065,-2.4806,-2.4356,-2.412,-2.3909,-2.3894,-2.4057,-2.4203,-2.4405,-2.4607,-2.4578,-2.4679,-2.4778,-2.4863,-2.4977,-2.4878,-2.4666,-2.4637,-2.4609,-2.4609,-2.458,-2.4679,-2.4791,-2.4694,-2.4557,-2.4166,-2.4053,-2.4063,-2.3944,-2.3736,-2.3739,-2.4091,-2.4296,-2.4353,-2.4544,-2.4775,-2.4573,-2.4206,-2.3946,-2.3743,-2.3474,-2.3374,-2.3236,-1.5879,-1.5885,-1.5879,-1.5986,-1.6223,-1.5998,-1.6105,-1.6277,-1.6271,-1.6164,-1.6051,-1.6696,-1.6849,-1.6842,-1.716,-1.7371,-1.7477,-1.7509,-1.7016,-1.6317,-1.5853,-1.4892,-1.3967,-1.3012,-1.2247,-1.1121,-1.0881,-1.0886,-1.0846,-1.1521,-1.2403,-1.3044,-1.4058,-1.4968,-1.5872,-1.7333,-1.8079,-1.8272,-1.8866,-1.9317,-1.9704,-2.007,-2.0687,-2.1179,-2.1132,-2.1403,-2.2156,-2.2459,-2.3106,-2.3798,-2.4196,-2.4487,-2.4668,-2.431,-2.3965,-2.3781,-2.3166,-2.2816,-2.2676,-2.2703,-2.2809,-2.3027,-2.3298,-2.3556,-2.3886,-2.4469,-2.5262,-2.5847,-2.6337,-2.669,-2.6713,-2.6317,-2.5606,-2.4952,-2.4489,-2.3989,-2.3786,-2.373,-2.3923,-2.4086,-2.4347,-2.4549,-2.445,-2.4408,-2.4536,-2.4679,-2.492,-2.4793,-2.4465,-2.4408,-2.4408,-2.4321,-2.4279,-2.4376,-2.4461,-2.45,-2.4351,-2.395,-2.3736,-2.3759,-2.3694,-2.3538,-2.3647,-2.3903,-2.3946,-2.3987,-2.4286,-2.4584,-2.453,-2.4485,-2.4141,-2.3875,-2.3591,-2.3391,-2.3349,-1.5416,-1.5636,-1.5636,-1.5897,-1.6271,-1.6424,-1.6365,-1.6217,-1.5957,-1.5749,-1.569,-1.601,-1.6164,-1.6311,-1.6736,-1.7047,-1.7047,-1.7265,-1.6912,-1.6356,-1.6056,-1.5451,-1.4649,-1.3978,-1.3323,-1.2533,-1.2193,-1.195,-1.1912,-1.2247,-1.2452,-1.3001,-1.3582,-1.4394,-1.5493,-1.6622,-1.7192,-1.766,-1.8303,-1.895,-1.9484,-2.0031,-2.065,-2.1299,-2.1081,-2.1332,-2.2118,-2.2314,-2.2702,-2.3384,-2.3748,-2.3964,-2.4227,-2.3971,-2.3837,-2.3542,-2.2994,-2.2798,-2.2424,-2.2248,-2.2485,-2.2796,-2.3106,-2.3401,-2.3849,-2.4587,-2.5217,-2.5814,-2.6564,-2.6899,-2.6855,-2.6431,-2.582,-2.5116,-2.4538,-2.3887,-2.3576,-2.3646,-2.3776,-2.3982,-2.4216,-2.4392,-2.4379,-2.416,-2.4189,-2.4205,-2.4363,-2.4247,-2.3927,-2.4073,-2.4131,-2.4015,-2.3962,-2.4013,-2.4078,-2.4176,-2.3924,-2.343,-2.3363,-2.3523,-2.3418,-2.3272,-2.3514,-2.3743,-2.369,-2.3621,-2.4001,-2.4354,-2.48,-2.4831,-2.4309,-2.4167,-2.4128,-2.3902,-2.3729,-1.4854,-1.5482,-1.5482,-1.5797,-1.6271,-1.6477,-1.6424,-1.6217,-1.5743,-1.5428,-1.5369,-1.5422,-1.5624,-1.5885,-1.6258,-1.6677,-1.673,-1.6895,-1.6859,-1.6258,-1.5929,-1.5538,-1.5121,-1.474,-1.4124,-1.3661,-1.3414,-1.327,-1.2931,-1.2926,-1.2985,-1.3147,-1.3298,-1.4016,-1.4968,-1.5818,-1.6534,-1.7099,-1.7846,-1.8673,-1.9171,-1.9786,-2.0532,-2.0994,-2.1157,-2.1243,-2.1868,-2.2188,-2.2323,-2.2848,-2.316,-2.3351,-2.3592,-2.3584,-2.3509,-2.328,-2.2858,-2.2596,-2.2166,-2.2174,-2.2445,-2.2697,-2.2981,-2.3383,-2.3862,-2.453,-2.5181,-2.5826,-2.6577,-2.6897,-2.6976,-2.6552,-2.6127,-2.5454,-2.4697,-2.406,-2.3424,-2.3484,-2.3599,-2.3819,-2.4054,-2.4232,-2.4276,-2.4015,-2.3839,-2.3809,-2.3767,-2.3603,-2.3497,-2.3675,-2.3855,-2.3783,-2.3603,-2.355,-2.3689,-2.3899,-2.3511,-2.2897,-2.3044,-2.3325,-2.3044,-2.2868,-2.3245,-2.3487,-2.3216,-2.3173,-2.37,-2.4104,-2.43,-2.4387,-2.4247,-2.4261,-2.4546,-2.4303,-2.3923,-1.4267,-1.5399,-1.5482,-1.5749,-1.6217,-1.6217,-1.6277,-1.6217,-1.5696,-1.5315,-1.5035,-1.5298,-1.5399,-1.5559,-1.5998,-1.6318,-1.6524,-1.6577,-1.6485,-1.6199,-1.5813,-1.557,-1.5449,-1.519,-1.4768,-1.4562,-1.449,-1.4478,-1.4052,-1.3806,-1.3715,-1.3534,-1.3437,-1.3968,-1.4682,-1.5397,-1.5974,-1.6581,-1.7606,-1.8303,-1.8711,-1.9455,-2.0286,-2.0775,-2.1,-2.1188,-2.1562,-2.1718,-2.1909,-2.2213,-2.2459,-2.2956,-2.3198,-2.3103,-2.3161,-2.3037,-2.2565,-2.2233,-2.2214,-2.2334,-2.2537,-2.275,-2.2759,-2.3231,-2.3803,-2.446,-2.5122,-2.5849,-2.6564,-2.693,-2.7136,-2.6884,-2.6606,-2.5824,-2.5019,-2.4268,-2.3434,-2.3316,-2.3416,-2.3641,-2.3936,-2.4083,-2.3982,-2.3776,-2.3556,-2.3348,-2.3288,-2.3185,-2.3108,-2.333,-2.3471,-2.3601,-2.3373,-2.3108,-2.3244,-2.3535,-2.3192,-2.2604,-2.291,-2.3124,-2.2785,-2.2527,-2.2839,-2.2933,-2.2581,-2.2617,-2.2833,-2.3166,-2.3497,-2.3596,-2.3712,-2.4144,-2.4347,-2.4132,-2.3713,-1.3541,-1.4637,-1.5026,-1.5369,-1.5696,-1.5743,-1.585,-1.5891,-1.5416,-1.4982,-1.4713,-1.4815,-1.4922,-1.4922,-1.5458,-1.5571,-1.5731,-1.5885,-1.6015,-1.5943,-1.5774,-1.5636,-1.557,-1.5539,-1.5293,-1.5319,-1.5445,-1.5676,-1.5201,-1.486,-1.4484,-1.4304,-1.3913,-1.425,-1.4777,-1.5302,-1.5642,-1.6251,-1.7372,-1.7878,-1.8388,-1.9134,-1.9957,-2.0406,-2.0757,-2.0958,-2.1099,-2.1304,-2.1461,-2.1583,-2.1621,-2.1888,-2.2012,-2.2395,-2.2726,-2.2829,-2.2415,-2.2025,-2.236,-2.2253,-2.2397,-2.2917,-2.2925,-2.3102,-2.3766,-2.4519,-2.5192,-2.5941,-2.6633,-2.7032,-2.718,-2.6992,-2.6596,-2.5937,-2.5163,-2.4342,-2.3579,-2.318,-2.3268,-2.339,-2.37,-2.3832,-2.3743,-2.3539,-2.3288,-2.3,-2.2848,-2.2823,-2.2841,-2.3083,-2.3288,-2.345,-2.3438,-2.3225,-2.3055,-2.328,-2.2818,-2.2442,-2.2762,-2.2814,-2.2312,-2.2163,-2.242,-2.2408,-2.2143,-2.1899,-2.1722,-2.2167,-2.2828,-2.3034,-2.322,-2.3733,-2.4079,-2.374,-2.3418,-1.2207,-1.3361,-1.4071,-1.4728,-1.5288,-1.5328,-1.5363,-1.5298,-1.4976,-1.4708,-1.4606,-1.4504,-1.4498,-1.4659,-1.4976,-1.5137,-1.5148,-1.5523,-1.5725,-1.5766,-1.5731,-1.5593,-1.5588,-1.5673,-1.5628,-1.5789,-1.6109,-1.6393,-1.6103,-1.5568,-1.514,-1.5064,-1.4621,-1.486,-1.5343,-1.5635,-1.5778,-1.6339,-1.6998,-1.7606,-1.8156,-1.8758,-1.9363,-2.0008,-2.0377,-2.0605,-2.0829,-2.1091,-2.1253,-2.1275,-2.1292,-2.1292,-2.1504,-2.1943,-2.2017,-2.2149,-2.2147,-2.2187,-2.2547,-2.272,-2.2981,-2.3248,-2.3328,-2.3735,-2.4085,-2.4717,-2.5397,-2.6133,-2.6722,-2.7146,-2.7113,-2.6994,-2.6488,-2.5973,-2.5199,-2.4421,-2.3778,-2.317,-2.3106,-2.3175,-2.333,-2.3492,-2.3463,-2.3271,-2.3108,-2.2909,-2.2834,-2.2847,-2.2902,-2.3042,-2.3297,-2.3531,-2.3531,-2.3462,-2.3293,-2.3103,-2.2883,-2.2658,-2.2684,-2.2576,-2.1966,-2.1632,-2.1757,-2.1801,-2.1779,-2.1562,-2.1383,-2.1722,-2.2229,-2.2385,-2.241,-2.2631,-2.2948,-2.3085,-2.2764,-1.0596,-1.1852,-1.2773,-1.3856,-1.485,-1.4851,-1.4739,-1.4546,-1.4498,-1.4493,-1.4444,-1.424,-1.4234,-1.439,-1.4498,-1.4713,-1.4826,-1.5208,-1.5315,-1.541,-1.5468,-1.54,-1.5386,-1.5475,-1.5586,-1.6062,-1.648,-1.6817,-1.681,-1.6136,-1.5432,-1.5683,-1.5194,-1.5289,-1.5866,-1.6109,-1.6339,-1.681,-1.7232,-1.766,-1.7878,-1.8249,-1.878,-1.9649,-2.0121,-2.051,-2.0936,-2.1204,-2.1421,-2.1366,-2.1282,-2.1205,-2.1331,-2.1389,-2.1332,-2.1602,-2.1866,-2.2451,-2.2835,-2.3062,-2.334,-2.3687,-2.4084,-2.427,-2.4484,-2.4957,-2.5687,-2.6364,-2.6998,-2.7146,-2.7146,-2.6918,-2.6494,-2.5829,-2.5049,-2.4381,-2.3764,-2.325,-2.2983,-2.3078,-2.3271,-2.3403,-2.321,-2.3047,-2.303,-2.283,-2.2768,-2.2835,-2.2833,-2.2896,-2.3005,-2.3282,-2.3199,-2.3178,-2.3341,-2.3193,-2.3159,-2.3016,-2.2844,-2.2485,-2.1962,-2.1496,-2.1035,-2.1184,-2.1397,-2.1342,-2.1334,-2.1545,-2.1591,-2.1482,-2.1504,-2.1456,-2.1676,-2.1996,-2.2033,-1.0298,-1.1104,-1.1916,-1.2752,-1.3551,-1.3773,-1.3917,-1.3905,-1.391,-1.391,-1.3856,-1.3694,-1.3694,-1.391,-1.3938,-1.4099,-1.4401,-1.4665,-1.4773,-1.4919,-1.5053,-1.5062,-1.5044,-1.5258,-1.5454,-1.5775,-1.6346,-1.6998,-1.6709,-1.5994,-1.5289,-1.5296,-1.5146,-1.5527,-1.6285,-1.648,-1.6998,-1.7365,-1.7613,-1.7893,-1.8079,-1.8388,-1.8891,-1.9734,-2.0385,-2.0415,-2.0661,-2.0745,-2.0779,-2.0781,-2.078,-2.076,-2.0789,-2.0799,-2.1108,-2.1578,-2.1949,-2.2633,-2.3191,-2.3318,-2.3372,-2.366,-2.3996,-2.4271,-2.4676,-2.5286,-2.5908,-2.6582,-2.6964,-2.7066,-2.7007,-2.6697,-2.6345,-2.561,-2.4834,-2.423,-2.3644,-2.3291,-2.2898,-2.306,-2.3228,-2.315,-2.2939,-2.2909,-2.286,-2.28,-2.2739,-2.271,-2.2571,-2.2553,-2.2347,-2.2541,-2.2587,-2.2647,-2.3003,-2.3253,-2.318,-2.3051,-2.2854,-2.2445,-2.194,-2.1517,-2.1071,-2.0964,-2.1002,-2.1029,-2.1053,-2.1088,-2.1073,-2.0972,-2.0861,-2.093,-2.0603,-2.0745,-2.0897,-0.9469,-0.9864,-1.0617,-1.1501,-1.2297,-1.2773,-1.2996,-1.3122,-1.3261,-1.3369,-1.3344,-1.3229,-1.3268,-1.3475,-1.3434,-1.3519,-1.3776,-1.4072,-1.418,-1.433,-1.4529,-1.4648,-1.4759,-1.492,-1.5316,-1.5665,-1.6508,-1.6943,-1.6466,-1.5947,-1.5425,-1.5146,-1.5242,-1.571,-1.6419,-1.7037,-1.7559,-1.7971,-1.8125,-1.8319,-1.8458,-1.8634,-1.887,-1.9662,-2.0035,-2.0171,-2.0421,-2.0517,-2.0643,-2.0674,-2.0693,-2.0527,-2.0527,-2.0489,-2.0876,-2.1443,-2.1983,-2.2658,-2.3315,-2.358,-2.3364,-2.3663,-2.408,-2.442,-2.444,-2.504,-2.5728,-2.6302,-2.6233,-2.6302,-2.6152,-2.5896,-2.5492,-2.4886,-2.4011,-2.3264,-2.2959,-2.2693,-2.2574,-2.2684,-2.2775,-2.2696,-2.2635,-2.2866,-2.2775,-2.2531,-2.25,-2.2437,-2.2331,-2.2196,-2.2007,-2.1805,-2.1883,-2.2436,-2.3054,-2.321,-2.3212,-2.3059,-2.2874,-2.2128,-2.1523,-2.1378,-2.1156,-2.0931,-2.0787,-2.08,-2.0812,-2.0873,-2.0885,-2.0847,-2.0673,-2.0485,-2.0093,-1.9798,-2.0036,-0.8531,-0.8636,-0.9313,-1.0263,-1.12,-1.1835,-1.2214,-1.2413,-1.2767,-1.2881,-1.2778,-1.2723,-1.2923,-1.308,-1.2933,-1.2998,-1.3111,-1.3171,-1.3305,-1.3516,-1.3938,-1.3952,-1.4132,-1.4416,-1.4912,-1.5486,-1.6116,-1.619,-1.5954,-1.5384,-1.4956,-1.5003,-1.5425,-1.594,-1.6608,-1.7271,-1.7746,-1.8303,-1.8635,-1.8866,-1.8858,-1.8826,-1.9058,-1.9317,-1.9634,-1.9996,-2.0319,-2.0533,-2.0703,-2.0576,-2.0489,-2.0303,-2.0186,-2.0177,-2.0779,-2.1346,-2.2069,-2.2709,-2.3349,-2.3863,-2.3721,-2.3805,-2.4203,-2.4393,-2.4408,-2.4809,-2.5496,-2.5676,-2.5618,-2.5627,-2.5446,-2.5099,-2.4687,-2.4123,-2.3235,-2.2487,-2.2336,-2.2228,-2.2309,-2.2389,-2.2359,-2.234,-2.2408,-2.2671,-2.2494,-2.2231,-2.2134,-2.2072,-2.2015,-2.1888,-2.1744,-2.1413,-2.1234,-2.1937,-2.2808,-2.3054,-2.3026,-2.3003,-2.2716,-2.1834,-2.1173,-2.1108,-2.0991,-2.0703,-2.0599,-2.0649,-2.0712,-2.0787,-2.0761,-2.066,-2.0409,-2.0156,-1.9991,-1.972,-1.9617,-0.8535,-0.8514,-0.8631,-0.922,-1.0171,-1.098,-1.1619,-1.2132,-1.2604,-1.2767,-1.2278,-1.1751,-1.1835,-1.268,-1.2157,-1.2007,-1.2128,-1.2152,-1.1982,-1.2105,-1.2636,-1.2906,-1.3252,-1.3701,-1.4545,-1.5028,-1.5194,-1.5003,-1.5099,-1.4484,-1.3968,-1.3968,-1.4394,-1.5051,-1.5852,-1.6749,-1.7878,-1.8488,-1.9279,-1.9646,-1.9654,-1.9612,-1.9616,-1.9861,-2.0213,-2.0369,-2.051,-2.0605,-2.0508,-2.0333,-2.0029,-1.9833,-1.9754,-1.9824,-2.043,-2.1298,-2.201,-2.2763,-2.3404,-2.3699,-2.3607,-2.3675,-2.4001,-2.4187,-2.433,-2.4543,-2.4969,-2.5087,-2.5123,-2.5346,-2.5177,-2.4607,-2.4126,-2.3338,-2.2474,-2.2101,-2.1867,-2.2023,-2.2216,-2.2278,-2.2309,-2.2161,-2.2032,-2.2054,-2.1892,-2.1699,-2.1691,-2.1659,-2.1576,-2.1515,-2.15,-2.1101,-2.0732,-2.1222,-2.202,-2.2582,-2.2706,-2.2743,-2.2613,-2.185,-2.1267,-2.1,-2.0783,-2.0438,-2.0473,-2.0599,-2.0637,-2.0448,-2.0423,-2.0271,-2.0055,-1.985,-1.9708,-1.9617,-1.9486]}]]